<?xml version='1.0' encoding='UTF-8'?>
<gpx version="1.1" creator="https://www.komoot.de" xmlns="http://www.topografix.com/GPX/1/1" xmlns:xsi="http://www.w3.org/2001/XMLSchema-instance" xsi:schemaLocation="http://www.topografix.com/GPX/1/1 http://www.topografix.com/GPX/1/1/gpx.xsd">
  <metadata>
    <name>59_800SiflueKaenerkAsp</name>
    <author>
      <link href="https://www.komoot.de">
        <text>komoot</text>
        <type>text/html</type>
      </link>
    </author>
  </metadata>
  <trk>
    <name>59_800SiflueKaenerkAsp</name>
    <trkseg>
      <trkpt lat="47.541486" lon="7.870733">
        <ele>339.081654</ele>
        <time>2021-11-15T19:58:39.050Z</time>
      </trkpt>
      <trkpt lat="47.541576" lon="7.870664">
        <ele>339.081654</ele>
        <time>2021-11-15T19:58:40.337Z</time>
      </trkpt>
      <trkpt lat="47.541550" lon="7.870601">
        <ele>339.081654</ele>
        <time>2021-11-15T19:58:41.148Z</time>
      </trkpt>
      <trkpt lat="47.541521" lon="7.870517">
        <ele>339.081654</ele>
        <time>2021-11-15T19:58:42.205Z</time>
      </trkpt>
      <trkpt lat="47.541606" lon="7.870424">
        <ele>339.081654</ele>
        <time>2021-11-15T19:58:43.943Z</time>
      </trkpt>
      <trkpt lat="47.541910" lon="7.870106">
        <ele>339.081654</ele>
        <time>2021-11-15T19:58:49.793Z</time>
      </trkpt>
      <trkpt lat="47.542014" lon="7.870126">
        <ele>339.081654</ele>
        <time>2021-11-15T19:58:51.299Z</time>
      </trkpt>
      <trkpt lat="47.542118" lon="7.870135">
        <ele>339.079122</ele>
        <time>2021-11-15T19:58:53.044Z</time>
      </trkpt>
      <trkpt lat="47.542181" lon="7.870131">
        <ele>339.013344</ele>
        <time>2021-11-15T19:58:53.932Z</time>
      </trkpt>
      <trkpt lat="47.542317" lon="7.870012">
        <ele>338.848578</ele>
        <time>2021-11-15T19:58:56.141Z</time>
      </trkpt>
      <trkpt lat="47.542348" lon="7.869983">
        <ele>338.810332</ele>
        <time>2021-11-15T19:58:56.581Z</time>
      </trkpt>
      <trkpt lat="47.542329" lon="7.869820">
        <ele>338.693855</ele>
        <time>2021-11-15T19:58:58.368Z</time>
      </trkpt>
      <trkpt lat="47.542372" lon="7.869746">
        <ele>338.625100</ele>
        <time>2021-11-15T19:58:59.193Z</time>
      </trkpt>
      <trkpt lat="47.542657" lon="7.869354">
        <ele>338.219419</ele>
        <time>2021-11-15T19:59:04.052Z</time>
      </trkpt>
      <trkpt lat="47.542696" lon="7.869257">
        <ele>338.139918</ele>
        <time>2021-11-15T19:59:04.987Z</time>
      </trkpt>
      <trkpt lat="47.542722" lon="7.869201">
        <ele>338.092059</ele>
        <time>2021-11-15T19:59:05.578Z</time>
      </trkpt>
      <trkpt lat="47.543049" lon="7.868759">
        <ele>337.630299</ele>
        <time>2021-11-15T19:59:10.491Z</time>
      </trkpt>
      <trkpt lat="47.543105" lon="7.868711">
        <ele>337.562810</ele>
        <time>2021-11-15T19:59:11.230Z</time>
      </trkpt>
      <trkpt lat="47.543201" lon="7.868657">
        <ele>337.455693</ele>
        <time>2021-11-15T19:59:12.308Z</time>
      </trkpt>
      <trkpt lat="47.543657" lon="7.868359">
        <ele>336.893173</ele>
        <time>2021-11-15T19:59:18.103Z</time>
      </trkpt>
      <trkpt lat="47.543801" lon="7.868269">
        <ele>336.704369</ele>
        <time>2021-11-15T19:59:20.583Z</time>
      </trkpt>
      <trkpt lat="47.544214" lon="7.867988">
        <ele>336.155348</ele>
        <time>2021-11-15T19:59:28.199Z</time>
      </trkpt>
      <trkpt lat="47.544246" lon="7.867967">
        <ele>336.113068</ele>
        <time>2021-11-15T19:59:28.796Z</time>
      </trkpt>
      <trkpt lat="47.544410" lon="7.867825">
        <ele>335.883593</ele>
        <time>2021-11-15T19:59:32.049Z</time>
      </trkpt>
      <trkpt lat="47.544469" lon="7.867776">
        <ele>335.801883</ele>
        <time>2021-11-15T19:59:33.071Z</time>
      </trkpt>
      <trkpt lat="47.544568" lon="7.867693">
        <ele>335.664465</ele>
        <time>2021-11-15T19:59:34.998Z</time>
      </trkpt>
      <trkpt lat="47.545003" lon="7.867278">
        <ele>335.039435</ele>
        <time>2021-11-15T19:59:43.846Z</time>
      </trkpt>
      <trkpt lat="47.545160" lon="7.866985">
        <ele>335.301506</ele>
        <time>2021-11-15T19:59:48.497Z</time>
      </trkpt>
      <trkpt lat="47.545240" lon="7.866887">
        <ele>335.414579</ele>
        <time>2021-11-15T19:59:50.771Z</time>
      </trkpt>
      <trkpt lat="47.546096" lon="7.866147">
        <ele>336.494127</ele>
        <time>2021-11-15T20:00:15.841Z</time>
      </trkpt>
      <trkpt lat="47.546327" lon="7.865959">
        <ele>336.781215</ele>
        <time>2021-11-15T20:00:23.578Z</time>
      </trkpt>
      <trkpt lat="47.546510" lon="7.865766">
        <ele>337.052875</ele>
        <time>2021-11-15T20:00:30.679Z</time>
      </trkpt>
      <trkpt lat="47.546819" lon="7.865489">
        <ele>337.757517</ele>
        <time>2021-11-15T20:00:40.910Z</time>
      </trkpt>
      <trkpt lat="47.546889" lon="7.865225">
        <ele>338.131046</ele>
        <time>2021-11-15T20:00:46.101Z</time>
      </trkpt>
      <trkpt lat="47.546894" lon="7.864837">
        <ele>338.642103</ele>
        <time>2021-11-15T20:00:53.521Z</time>
      </trkpt>
      <trkpt lat="47.546885" lon="7.864500">
        <ele>339.086252</ele>
        <time>2021-11-15T20:01:00.310Z</time>
      </trkpt>
      <trkpt lat="47.546877" lon="7.864345">
        <ele>339.290970</ele>
        <time>2021-11-15T20:01:03.203Z</time>
      </trkpt>
      <trkpt lat="47.546592" lon="7.863006">
        <ele>340.695935</ele>
        <time>2021-11-15T20:01:29.213Z</time>
      </trkpt>
      <trkpt lat="47.546526" lon="7.861665">
        <ele>341.236154</ele>
        <time>2021-11-15T20:01:49.945Z</time>
      </trkpt>
      <trkpt lat="47.546487" lon="7.859119">
        <ele>341.190061</ele>
        <time>2021-11-15T20:02:22.565Z</time>
      </trkpt>
      <trkpt lat="47.546537" lon="7.857497">
        <ele>340.863373</ele>
        <time>2021-11-15T20:02:43.577Z</time>
      </trkpt>
      <trkpt lat="47.546582" lon="7.856413">
        <ele>340.678381</ele>
        <time>2021-11-15T20:02:57.930Z</time>
      </trkpt>
      <trkpt lat="47.546945" lon="7.851719">
        <ele>339.198666</ele>
        <time>2021-11-15T20:03:58.965Z</time>
      </trkpt>
      <trkpt lat="47.547141" lon="7.850355">
        <ele>338.211093</ele>
        <time>2021-11-15T20:04:14.530Z</time>
      </trkpt>
      <trkpt lat="47.547143" lon="7.849985">
        <ele>337.789602</ele>
        <time>2021-11-15T20:04:18.439Z</time>
      </trkpt>
      <trkpt lat="47.547124" lon="7.848795">
        <ele>336.193125</ele>
        <time>2021-11-15T20:04:31.037Z</time>
      </trkpt>
      <trkpt lat="47.547274" lon="7.845536">
        <ele>332.216883</ele>
        <time>2021-11-15T20:05:05.795Z</time>
      </trkpt>
      <trkpt lat="47.547295" lon="7.844722">
        <ele>331.459159</ele>
        <time>2021-11-15T20:05:15.278Z</time>
      </trkpt>
      <trkpt lat="47.547313" lon="7.843735">
        <ele>331.213538</ele>
        <time>2021-11-15T20:05:27.682Z</time>
      </trkpt>
      <trkpt lat="47.547354" lon="7.842839">
        <ele>330.990134</ele>
        <time>2021-11-15T20:05:39.870Z</time>
      </trkpt>
      <trkpt lat="47.547448" lon="7.842262">
        <ele>330.840668</ele>
        <time>2021-11-15T20:05:48.010Z</time>
      </trkpt>
      <trkpt lat="47.547362" lon="7.841665">
        <ele>330.554237</ele>
        <time>2021-11-15T20:05:56.078Z</time>
      </trkpt>
      <trkpt lat="47.547339" lon="7.841072">
        <ele>330.275533</ele>
        <time>2021-11-15T20:06:03.559Z</time>
      </trkpt>
      <trkpt lat="47.547332" lon="7.840572">
        <ele>330.040874</ele>
        <time>2021-11-15T20:06:09.658Z</time>
      </trkpt>
      <trkpt lat="47.547323" lon="7.840012">
        <ele>329.778039</ele>
        <time>2021-11-15T20:06:16.231Z</time>
      </trkpt>
      <trkpt lat="47.547300" lon="7.838688">
        <ele>328.500057</ele>
        <time>2021-11-15T20:06:30.927Z</time>
      </trkpt>
      <trkpt lat="47.547276" lon="7.837287">
        <ele>326.855870</ele>
        <time>2021-11-15T20:06:45.883Z</time>
      </trkpt>
      <trkpt lat="47.547240" lon="7.836221">
        <ele>325.560273</ele>
        <time>2021-11-15T20:06:57.359Z</time>
      </trkpt>
      <trkpt lat="47.547190" lon="7.835066">
        <ele>324.134254</ele>
        <time>2021-11-15T20:07:09.865Z</time>
      </trkpt>
      <trkpt lat="47.547020" lon="7.831965">
        <ele>320.365966</ele>
        <time>2021-11-15T20:07:43.665Z</time>
      </trkpt>
      <trkpt lat="47.546946" lon="7.830852">
        <ele>318.910107</ele>
        <time>2021-11-15T20:07:55.697Z</time>
      </trkpt>
      <trkpt lat="47.546823" lon="7.829336">
        <ele>316.861706</ele>
        <time>2021-11-15T20:08:11.889Z</time>
      </trkpt>
      <trkpt lat="47.546721" lon="7.828140">
        <ele>315.122204</ele>
        <time>2021-11-15T20:08:24.600Z</time>
      </trkpt>
      <trkpt lat="47.546592" lon="7.826850">
        <ele>313.187729</ele>
        <time>2021-11-15T20:08:38.066Z</time>
      </trkpt>
      <trkpt lat="47.546574" lon="7.826239">
        <ele>312.342956</ele>
        <time>2021-11-15T20:08:44.512Z</time>
      </trkpt>
      <trkpt lat="47.546589" lon="7.825597">
        <ele>311.745534</ele>
        <time>2021-11-15T20:08:51.334Z</time>
      </trkpt>
      <trkpt lat="47.546693" lon="7.825618">
        <ele>311.600917</ele>
        <time>2021-11-15T20:08:53.001Z</time>
      </trkpt>
      <trkpt lat="47.547233" lon="7.825872">
        <ele>310.820302</ele>
        <time>2021-11-15T20:09:02.124Z</time>
      </trkpt>
      <trkpt lat="47.547666" lon="7.826091">
        <ele>310.189904</ele>
        <time>2021-11-15T20:09:09.822Z</time>
      </trkpt>
      <trkpt lat="47.548237" lon="7.826410">
        <ele>310.398069</ele>
        <time>2021-11-15T20:09:23.197Z</time>
      </trkpt>
      <trkpt lat="47.548679" lon="7.826710">
        <ele>310.860397</ele>
        <time>2021-11-15T20:09:34.495Z</time>
      </trkpt>
      <trkpt lat="47.549105" lon="7.827067">
        <ele>311.325817</ele>
        <time>2021-11-15T20:09:46.762Z</time>
      </trkpt>
      <trkpt lat="47.549143" lon="7.827110">
        <ele>311.371288</ele>
        <time>2021-11-15T20:09:48.772Z</time>
      </trkpt>
      <trkpt lat="47.550183" lon="7.828277">
        <ele>312.893452</ele>
        <time>2021-11-15T20:10:24.960Z</time>
      </trkpt>
      <trkpt lat="47.550522" lon="7.828744">
        <ele>313.466647</ele>
        <time>2021-11-15T20:10:36.844Z</time>
      </trkpt>
      <trkpt lat="47.550675" lon="7.828955">
        <ele>313.725476</ele>
        <time>2021-11-15T20:10:41.105Z</time>
      </trkpt>
      <trkpt lat="47.551640" lon="7.830558">
        <ele>312.850754</ele>
        <time>2021-11-15T20:11:07.881Z</time>
      </trkpt>
      <trkpt lat="47.552065" lon="7.831350">
        <ele>312.061117</ele>
        <time>2021-11-15T20:11:18.904Z</time>
      </trkpt>
      <trkpt lat="47.552251" lon="7.831814">
        <ele>311.306709</ele>
        <time>2021-11-15T20:11:24.644Z</time>
      </trkpt>
      <trkpt lat="47.552368" lon="7.832305">
        <ele>310.578817</ele>
        <time>2021-11-15T20:11:30.113Z</time>
      </trkpt>
      <trkpt lat="47.552458" lon="7.832824">
        <ele>309.829745</ele>
        <time>2021-11-15T20:11:35.714Z</time>
      </trkpt>
      <trkpt lat="47.552508" lon="7.832936">
        <ele>309.642029</ele>
        <time>2021-11-15T20:11:37.174Z</time>
      </trkpt>
      <trkpt lat="47.552556" lon="7.832977">
        <ele>309.527273</ele>
        <time>2021-11-15T20:11:38.138Z</time>
      </trkpt>
      <trkpt lat="47.552616" lon="7.832891">
        <ele>309.354368</ele>
        <time>2021-11-15T20:11:38.945Z</time>
      </trkpt>
      <trkpt lat="47.552690" lon="7.832598">
        <ele>308.917048</ele>
        <time>2021-11-15T20:11:41.268Z</time>
      </trkpt>
      <trkpt lat="47.552645" lon="7.830686">
        <ele>305.856748</ele>
        <time>2021-11-15T20:11:54.961Z</time>
      </trkpt>
      <trkpt lat="47.552554" lon="7.829266">
        <ele>303.833009</ele>
        <time>2021-11-15T20:12:05.247Z</time>
      </trkpt>
      <trkpt lat="47.552416" lon="7.828822">
        <ele>303.299129</ele>
        <time>2021-11-15T20:12:08.905Z</time>
      </trkpt>
      <trkpt lat="47.552404" lon="7.828582">
        <ele>303.036287</ele>
        <time>2021-11-15T20:12:10.813Z</time>
      </trkpt>
      <trkpt lat="47.552421" lon="7.828481">
        <ele>302.922597</ele>
        <time>2021-11-15T20:12:11.568Z</time>
      </trkpt>
      <trkpt lat="47.552477" lon="7.828294">
        <ele>302.699157</ele>
        <time>2021-11-15T20:12:13.141Z</time>
      </trkpt>
      <trkpt lat="47.552515" lon="7.828094">
        <ele>302.472230</ele>
        <time>2021-11-15T20:12:14.854Z</time>
      </trkpt>
      <trkpt lat="47.552491" lon="7.827227">
        <ele>301.524512</ele>
        <time>2021-11-15T20:12:21.756Z</time>
      </trkpt>
      <trkpt lat="47.552510" lon="7.826557">
        <ele>301.200404</ele>
        <time>2021-11-15T20:12:27.444Z</time>
      </trkpt>
      <trkpt lat="47.552567" lon="7.824508">
        <ele>300.237461</ele>
        <time>2021-11-15T20:12:45.625Z</time>
      </trkpt>
      <trkpt lat="47.552896" lon="7.820699">
        <ele>298.361868</ele>
        <time>2021-11-15T20:13:18.405Z</time>
      </trkpt>
      <trkpt lat="47.552948" lon="7.819358">
        <ele>297.730628</ele>
        <time>2021-11-15T20:13:29.944Z</time>
      </trkpt>
      <trkpt lat="47.552844" lon="7.816432">
        <ele>297.336066</ele>
        <time>2021-11-15T20:13:57.578Z</time>
      </trkpt>
      <trkpt lat="47.552711" lon="7.812955">
        <ele>298.598769</ele>
        <time>2021-11-15T20:14:38.233Z</time>
      </trkpt>
      <trkpt lat="47.552566" lon="7.810386">
        <ele>299.728486</ele>
        <time>2021-11-15T20:15:08.265Z</time>
      </trkpt>
      <trkpt lat="47.552398" lon="7.808880">
        <ele>300.422518</ele>
        <time>2021-11-15T20:15:26.745Z</time>
      </trkpt>
      <trkpt lat="47.552068" lon="7.806445">
        <ele>300.909274</ele>
        <time>2021-11-15T20:15:55.090Z</time>
      </trkpt>
      <trkpt lat="47.552015" lon="7.806307">
        <ele>300.935819</ele>
        <time>2021-11-15T20:15:56.815Z</time>
      </trkpt>
      <trkpt lat="47.551895" lon="7.806278">
        <ele>300.965938</ele>
        <time>2021-11-15T20:15:58.124Z</time>
      </trkpt>
      <trkpt lat="47.551651" lon="7.806246">
        <ele>300.841649</ele>
        <time>2021-11-15T20:16:01.889Z</time>
      </trkpt>
      <trkpt lat="47.551671" lon="7.806117">
        <ele>300.773667</ele>
        <time>2021-11-15T20:16:03.203Z</time>
      </trkpt>
      <trkpt lat="47.551676" lon="7.805779">
        <ele>300.600023</ele>
        <time>2021-11-15T20:16:07.717Z</time>
      </trkpt>
      <trkpt lat="47.551681" lon="7.805477">
        <ele>300.444864</ele>
        <time>2021-11-15T20:16:11.061Z</time>
      </trkpt>
      <trkpt lat="47.551709" lon="7.805000">
        <ele>300.198943</ele>
        <time>2021-11-15T20:16:16.706Z</time>
      </trkpt>
      <trkpt lat="47.551731" lon="7.804667">
        <ele>300.027091</ele>
        <time>2021-11-15T20:16:21.346Z</time>
      </trkpt>
      <trkpt lat="47.551744" lon="7.804473">
        <ele>299.926960</ele>
        <time>2021-11-15T20:16:23.350Z</time>
      </trkpt>
      <trkpt lat="47.551741" lon="7.804294">
        <ele>299.834994</ele>
        <time>2021-11-15T20:16:25.733Z</time>
      </trkpt>
      <trkpt lat="47.551692" lon="7.803510">
        <ele>299.588375</ele>
        <time>2021-11-15T20:16:34.880Z</time>
      </trkpt>
      <trkpt lat="47.551751" lon="7.803369">
        <ele>299.577104</ele>
        <time>2021-11-15T20:16:36.883Z</time>
      </trkpt>
      <trkpt lat="47.551744" lon="7.803277">
        <ele>299.570814</ele>
        <time>2021-11-15T20:16:37.701Z</time>
      </trkpt>
      <trkpt lat="47.551732" lon="7.803125">
        <ele>299.560417</ele>
        <time>2021-11-15T20:16:39.089Z</time>
      </trkpt>
      <trkpt lat="47.551666" lon="7.803144">
        <ele>299.553649</ele>
        <time>2021-11-15T20:16:43.756Z</time>
      </trkpt>
      <trkpt lat="47.551598" lon="7.803160">
        <ele>299.546718</ele>
        <time>2021-11-15T20:16:48.500Z</time>
      </trkpt>
      <trkpt lat="47.551163" lon="7.803129">
        <ele>299.502879</ele>
        <time>2021-11-15T20:16:57.526Z</time>
      </trkpt>
      <trkpt lat="47.550981" lon="7.803132">
        <ele>299.484557</ele>
        <time>2021-11-15T20:17:01.539Z</time>
      </trkpt>
      <trkpt lat="47.550196" lon="7.803120">
        <ele>299.514825</ele>
        <time>2021-11-15T20:17:18.865Z</time>
      </trkpt>
      <trkpt lat="47.550134" lon="7.803051">
        <ele>299.540036</ele>
        <time>2021-11-15T20:17:20.547Z</time>
      </trkpt>
      <trkpt lat="47.550146" lon="7.802262">
        <ele>299.713222</ele>
        <time>2021-11-15T20:17:31.929Z</time>
      </trkpt>
      <trkpt lat="47.549879" lon="7.802247">
        <ele>299.800093</ele>
        <time>2021-11-15T20:17:37.708Z</time>
      </trkpt>
      <trkpt lat="47.549481" lon="7.802234">
        <ele>299.929526</ele>
        <time>2021-11-15T20:17:46.422Z</time>
      </trkpt>
      <trkpt lat="47.549410" lon="7.802226">
        <ele>299.952677</ele>
        <time>2021-11-15T20:17:48.034Z</time>
      </trkpt>
      <trkpt lat="47.548877" lon="7.802168">
        <ele>300.056063</ele>
        <time>2021-11-15T20:17:59.236Z</time>
      </trkpt>
      <trkpt lat="47.548626" lon="7.802129">
        <ele>300.085754</ele>
        <time>2021-11-15T20:18:04.450Z</time>
      </trkpt>
      <trkpt lat="47.548607" lon="7.801690">
        <ele>300.120684</ele>
        <time>2021-11-15T20:18:10.527Z</time>
      </trkpt>
      <trkpt lat="47.548598" lon="7.801312">
        <ele>300.150718</ele>
        <time>2021-11-15T20:18:15.664Z</time>
      </trkpt>
      <trkpt lat="47.548596" lon="7.801213">
        <ele>300.158583</ele>
        <time>2021-11-15T20:18:17.060Z</time>
      </trkpt>
      <trkpt lat="47.548576" lon="7.800968">
        <ele>300.178179</ele>
        <time>2021-11-15T20:18:20.414Z</time>
      </trkpt>
      <trkpt lat="47.548569" lon="7.800838">
        <ele>300.188535</ele>
        <time>2021-11-15T20:18:22.174Z</time>
      </trkpt>
      <trkpt lat="47.548560" lon="7.800672">
        <ele>300.201759</ele>
        <time>2021-11-15T20:18:24.504Z</time>
      </trkpt>
      <trkpt lat="47.548545" lon="7.800404">
        <ele>300.223112</ele>
        <time>2021-11-15T20:18:28.141Z</time>
      </trkpt>
      <trkpt lat="47.548519" lon="7.799896">
        <ele>300.323397</ele>
        <time>2021-11-15T20:18:35.258Z</time>
      </trkpt>
      <trkpt lat="47.548514" lon="7.799795">
        <ele>300.344876</ele>
        <time>2021-11-15T20:18:36.657Z</time>
      </trkpt>
      <trkpt lat="47.548535" lon="7.799720">
        <ele>300.362097</ele>
        <time>2021-11-15T20:18:37.805Z</time>
      </trkpt>
      <trkpt lat="47.548459" lon="7.799691">
        <ele>300.386757</ele>
        <time>2021-11-15T20:18:39.467Z</time>
      </trkpt>
      <trkpt lat="47.547912" lon="7.799646">
        <ele>300.558904</ele>
        <time>2021-11-15T20:18:50.710Z</time>
      </trkpt>
      <trkpt lat="47.547540" lon="7.799538">
        <ele>300.678019</ele>
        <time>2021-11-15T20:18:58.670Z</time>
      </trkpt>
      <trkpt lat="47.546418" lon="7.798980">
        <ele>301.125894</ele>
        <time>2021-11-15T20:19:27.127Z</time>
      </trkpt>
      <trkpt lat="47.545807" lon="7.798846">
        <ele>301.377364</ele>
        <time>2021-11-15T20:19:40.045Z</time>
      </trkpt>
      <trkpt lat="47.545731" lon="7.798810">
        <ele>301.409849</ele>
        <time>2021-11-15T20:19:42.113Z</time>
      </trkpt>
      <trkpt lat="47.545581" lon="7.798713">
        <ele>301.476484</ele>
        <time>2021-11-15T20:19:44.918Z</time>
      </trkpt>
      <trkpt lat="47.545511" lon="7.798680">
        <ele>301.506391</ele>
        <time>2021-11-15T20:19:46.410Z</time>
      </trkpt>
      <trkpt lat="47.545558" lon="7.798144">
        <ele>301.509534</ele>
        <time>2021-11-15T20:19:53.198Z</time>
      </trkpt>
      <trkpt lat="47.545637" lon="7.797310">
        <ele>301.481528</ele>
        <time>2021-11-15T20:20:04.919Z</time>
      </trkpt>
      <trkpt lat="47.545645" lon="7.797258">
        <ele>301.479755</ele>
        <time>2021-11-15T20:20:05.414Z</time>
      </trkpt>
      <trkpt lat="47.545670" lon="7.797142">
        <ele>301.475705</ele>
        <time>2021-11-15T20:20:06.984Z</time>
      </trkpt>
      <trkpt lat="47.545689" lon="7.797076">
        <ele>301.473319</ele>
        <time>2021-11-15T20:20:07.888Z</time>
      </trkpt>
      <trkpt lat="47.545689" lon="7.797076">
        <ele>301.473319</ele>
        <time>2021-11-15T20:20:07.892Z</time>
      </trkpt>
      <trkpt lat="47.545728" lon="7.796950">
        <ele>301.468710</ele>
        <time>2021-11-15T20:20:10.625Z</time>
      </trkpt>
      <trkpt lat="47.545788" lon="7.796748">
        <ele>301.461371</ele>
        <time>2021-11-15T20:20:13.399Z</time>
      </trkpt>
      <trkpt lat="47.545889" lon="7.796500">
        <ele>301.451739</ele>
        <time>2021-11-15T20:20:17.678Z</time>
      </trkpt>
      <trkpt lat="47.546038" lon="7.796107">
        <ele>301.436750</ele>
        <time>2021-11-15T20:20:23.221Z</time>
      </trkpt>
      <trkpt lat="47.546105" lon="7.795928">
        <ele>301.490661</ele>
        <time>2021-11-15T20:20:26.763Z</time>
      </trkpt>
      <trkpt lat="47.546154" lon="7.795747">
        <ele>301.543169</ele>
        <time>2021-11-15T20:20:29.080Z</time>
      </trkpt>
      <trkpt lat="47.546170" lon="7.795612">
        <ele>301.580075</ele>
        <time>2021-11-15T20:20:30.970Z</time>
      </trkpt>
      <trkpt lat="47.546165" lon="7.795511">
        <ele>301.607342</ele>
        <time>2021-11-15T20:20:33.017Z</time>
      </trkpt>
      <trkpt lat="47.546019" lon="7.795020">
        <ele>301.751805</ele>
        <time>2021-11-15T20:20:40.522Z</time>
      </trkpt>
      <trkpt lat="47.545947" lon="7.794710">
        <ele>301.840077</ele>
        <time>2021-11-15T20:20:45.457Z</time>
      </trkpt>
      <trkpt lat="47.545921" lon="7.794468">
        <ele>301.906057</ele>
        <time>2021-11-15T20:20:49.587Z</time>
      </trkpt>
      <trkpt lat="47.545969" lon="7.793663">
        <ele>302.123651</ele>
        <time>2021-11-15T20:21:02.114Z</time>
      </trkpt>
      <trkpt lat="47.546027" lon="7.793254">
        <ele>302.044116</ele>
        <time>2021-11-15T20:21:08.717Z</time>
      </trkpt>
      <trkpt lat="47.546061" lon="7.793064">
        <ele>301.973213</ele>
        <time>2021-11-15T20:21:11.172Z</time>
      </trkpt>
      <trkpt lat="47.546253" lon="7.791998">
        <ele>301.575240</ele>
        <time>2021-11-15T20:21:25.136Z</time>
      </trkpt>
      <trkpt lat="47.546552" lon="7.789807">
        <ele>300.507097</ele>
        <time>2021-11-15T20:21:50.660Z</time>
      </trkpt>
      <trkpt lat="47.546673" lon="7.788921">
        <ele>299.979666</ele>
        <time>2021-11-15T20:22:01.749Z</time>
      </trkpt>
      <trkpt lat="47.546695" lon="7.788763">
        <ele>299.885536</ele>
        <time>2021-11-15T20:22:03.670Z</time>
      </trkpt>
      <trkpt lat="47.546897" lon="7.787133">
        <ele>300.307627</ele>
        <time>2021-11-15T20:22:24.682Z</time>
      </trkpt>
      <trkpt lat="47.546959" lon="7.786598">
        <ele>300.602316</ele>
        <time>2021-11-15T20:22:32.234Z</time>
      </trkpt>
      <trkpt lat="47.546952" lon="7.786540">
        <ele>300.634303</ele>
        <time>2021-11-15T20:22:33.193Z</time>
      </trkpt>
      <trkpt lat="47.546913" lon="7.786470">
        <ele>300.683577</ele>
        <time>2021-11-15T20:22:34.977Z</time>
      </trkpt>
      <trkpt lat="47.546526" lon="7.786353">
        <ele>301.001249</ele>
        <time>2021-11-15T20:22:46.374Z</time>
      </trkpt>
      <trkpt lat="47.546464" lon="7.786335">
        <ele>301.052063</ele>
        <time>2021-11-15T20:22:48.179Z</time>
      </trkpt>
      <trkpt lat="47.546417" lon="7.786331">
        <ele>301.121765</ele>
        <time>2021-11-15T20:22:49.417Z</time>
      </trkpt>
      <trkpt lat="47.546102" lon="7.786217">
        <ele>302.986024</ele>
        <time>2021-11-15T20:23:00.970Z</time>
      </trkpt>
      <trkpt lat="47.545856" lon="7.785973">
        <ele>304.688048</ele>
        <time>2021-11-15T20:23:13.125Z</time>
      </trkpt>
      <trkpt lat="47.545672" lon="7.785654">
        <ele>306.316419</ele>
        <time>2021-11-15T20:23:24.451Z</time>
      </trkpt>
      <trkpt lat="47.545624" lon="7.785548">
        <ele>306.811769</ele>
        <time>2021-11-15T20:23:31.116Z</time>
      </trkpt>
      <trkpt lat="47.545250" lon="7.784778">
        <ele>310.493163</ele>
        <time>2021-11-15T20:24:02.642Z</time>
      </trkpt>
      <trkpt lat="47.545240" lon="7.784746">
        <ele>310.630010</ele>
        <time>2021-11-15T20:24:05.321Z</time>
      </trkpt>
      <trkpt lat="47.545054" lon="7.784227">
        <ele>311.860125</ele>
        <time>2021-11-15T20:24:23.471Z</time>
      </trkpt>
      <trkpt lat="47.544950" lon="7.784008">
        <ele>312.164249</ele>
        <time>2021-11-15T20:24:29.802Z</time>
      </trkpt>
      <trkpt lat="47.544627" lon="7.783499">
        <ele>312.957715</ele>
        <time>2021-11-15T20:24:45.665Z</time>
      </trkpt>
      <trkpt lat="47.544555" lon="7.783372">
        <ele>313.146086</ele>
        <time>2021-11-15T20:24:47.742Z</time>
      </trkpt>
      <trkpt lat="47.544490" lon="7.783060">
        <ele>313.516946</ele>
        <time>2021-11-15T20:24:52.488Z</time>
      </trkpt>
      <trkpt lat="47.544474" lon="7.782623">
        <ele>314.014016</ele>
        <time>2021-11-15T20:24:57.495Z</time>
      </trkpt>
      <trkpt lat="47.544469" lon="7.782455">
        <ele>314.205015</ele>
        <time>2021-11-15T20:24:58.795Z</time>
      </trkpt>
      <trkpt lat="47.544461" lon="7.782254">
        <ele>314.433705</ele>
        <time>2021-11-15T20:25:00.059Z</time>
      </trkpt>
      <trkpt lat="47.544100" lon="7.779438">
        <ele>303.457653</ele>
        <time>2021-11-15T20:25:17.548Z</time>
      </trkpt>
      <trkpt lat="47.543933" lon="7.778374">
        <ele>300.758954</ele>
        <time>2021-11-15T20:25:24.619Z</time>
      </trkpt>
      <trkpt lat="47.543707" lon="7.777394">
        <ele>298.200499</ele>
        <time>2021-11-15T20:25:31.840Z</time>
      </trkpt>
      <trkpt lat="47.543527" lon="7.776532">
        <ele>297.120224</ele>
        <time>2021-11-15T20:25:38.983Z</time>
      </trkpt>
      <trkpt lat="47.543482" lon="7.776095">
        <ele>296.949136</ele>
        <time>2021-11-15T20:25:42.860Z</time>
      </trkpt>
      <trkpt lat="47.543449" lon="7.775478">
        <ele>296.709591</ele>
        <time>2021-11-15T20:25:48.602Z</time>
      </trkpt>
      <trkpt lat="47.543402" lon="7.775016">
        <ele>296.528764</ele>
        <time>2021-11-15T20:25:53.272Z</time>
      </trkpt>
      <trkpt lat="47.543350" lon="7.774507">
        <ele>296.329523</ele>
        <time>2021-11-15T20:25:58.509Z</time>
      </trkpt>
      <trkpt lat="47.543145" lon="7.773277">
        <ele>296.135021</ele>
        <time>2021-11-15T20:26:11.409Z</time>
      </trkpt>
      <trkpt lat="47.543108" lon="7.773069">
        <ele>296.104940</ele>
        <time>2021-11-15T20:26:13.588Z</time>
      </trkpt>
      <trkpt lat="47.542720" lon="7.770771">
        <ele>295.733857</ele>
        <time>2021-11-15T20:26:34.811Z</time>
      </trkpt>
      <trkpt lat="47.542450" lon="7.769311">
        <ele>295.468150</ele>
        <time>2021-11-15T20:26:48.783Z</time>
      </trkpt>
      <trkpt lat="47.542317" lon="7.768533">
        <ele>296.718332</ele>
        <time>2021-11-15T20:26:57.156Z</time>
      </trkpt>
      <trkpt lat="47.541697" lon="7.765479">
        <ele>305.185095</ele>
        <time>2021-11-15T20:27:59.422Z</time>
      </trkpt>
      <trkpt lat="47.541552" lon="7.764869">
        <ele>307.869084</ele>
        <time>2021-11-15T20:28:19.161Z</time>
      </trkpt>
      <trkpt lat="47.541443" lon="7.764512">
        <ele>309.495208</ele>
        <time>2021-11-15T20:28:33.013Z</time>
      </trkpt>
      <trkpt lat="47.541364" lon="7.764150">
        <ele>311.177611</ele>
        <time>2021-11-15T20:28:43.979Z</time>
      </trkpt>
      <trkpt lat="47.541377" lon="7.764045">
        <ele>311.854504</ele>
        <time>2021-11-15T20:28:48.543Z</time>
      </trkpt>
      <trkpt lat="47.541334" lon="7.764020">
        <ele>312.288399</ele>
        <time>2021-11-15T20:28:53.386Z</time>
      </trkpt>
      <trkpt lat="47.541219" lon="7.763853">
        <ele>313.801060</ele>
        <time>2021-11-15T20:28:59.973Z</time>
      </trkpt>
      <trkpt lat="47.541023" lon="7.762922">
        <ele>319.984826</ele>
        <time>2021-11-15T20:29:38.305Z</time>
      </trkpt>
      <trkpt lat="47.541004" lon="7.762306">
        <ele>323.894885</ele>
        <time>2021-11-15T20:30:01.124Z</time>
      </trkpt>
      <trkpt lat="47.540921" lon="7.761599">
        <ele>328.142890</ele>
        <time>2021-11-15T20:30:25.793Z</time>
      </trkpt>
      <trkpt lat="47.540567" lon="7.759901">
        <ele>334.345080</ele>
        <time>2021-11-15T20:31:10.467Z</time>
      </trkpt>
      <trkpt lat="47.540447" lon="7.759585">
        <ele>335.610444</ele>
        <time>2021-11-15T20:31:18.050Z</time>
      </trkpt>
      <trkpt lat="47.539949" lon="7.758688">
        <ele>336.530480</ele>
        <time>2021-11-15T20:31:36.294Z</time>
      </trkpt>
      <trkpt lat="47.539722" lon="7.758107">
        <ele>336.041407</ele>
        <time>2021-11-15T20:31:42.584Z</time>
      </trkpt>
      <trkpt lat="47.539595" lon="7.757548">
        <ele>335.611697</ele>
        <time>2021-11-15T20:31:46.977Z</time>
      </trkpt>
      <trkpt lat="47.539346" lon="7.755736">
        <ele>330.769673</ele>
        <time>2021-11-15T20:31:58.722Z</time>
      </trkpt>
      <trkpt lat="47.539230" lon="7.755294">
        <ele>329.029848</ele>
        <time>2021-11-15T20:32:01.613Z</time>
      </trkpt>
      <trkpt lat="47.539079" lon="7.754976">
        <ele>327.603477</ele>
        <time>2021-11-15T20:32:04.004Z</time>
      </trkpt>
      <trkpt lat="47.538792" lon="7.754549">
        <ele>325.392852</ele>
        <time>2021-11-15T20:32:07.738Z</time>
      </trkpt>
      <trkpt lat="47.538723" lon="7.754445">
        <ele>325.090428</ele>
        <time>2021-11-15T20:32:08.636Z</time>
      </trkpt>
      <trkpt lat="47.538494" lon="7.754103">
        <ele>324.148781</ele>
        <time>2021-11-15T20:32:11.796Z</time>
      </trkpt>
      <trkpt lat="47.538359" lon="7.753900">
        <ele>323.591737</ele>
        <time>2021-11-15T20:32:13.698Z</time>
      </trkpt>
      <trkpt lat="47.538052" lon="7.753460">
        <ele>322.354749</ele>
        <time>2021-11-15T20:32:18.105Z</time>
      </trkpt>
      <trkpt lat="47.537715" lon="7.753194">
        <ele>321.248999</ele>
        <time>2021-11-15T20:32:22.224Z</time>
      </trkpt>
      <trkpt lat="47.537564" lon="7.753073">
        <ele>320.751867</ele>
        <time>2021-11-15T20:32:24.126Z</time>
      </trkpt>
      <trkpt lat="47.537371" lon="7.752851">
        <ele>320.134387</ele>
        <time>2021-11-15T20:32:27.563Z</time>
      </trkpt>
      <trkpt lat="47.537134" lon="7.752309">
        <ele>319.975732</ele>
        <time>2021-11-15T20:32:33.850Z</time>
      </trkpt>
      <trkpt lat="47.535912" lon="7.749669">
        <ele>319.231886</ele>
        <time>2021-11-15T20:33:04.030Z</time>
      </trkpt>
      <trkpt lat="47.534874" lon="7.746551">
        <ele>318.601772</ele>
        <time>2021-11-15T20:33:35.881Z</time>
      </trkpt>
      <trkpt lat="47.534429" lon="7.744856">
        <ele>318.714019</ele>
        <time>2021-11-15T20:33:54.792Z</time>
      </trkpt>
      <trkpt lat="47.534370" lon="7.744709">
        <ele>318.744055</ele>
        <time>2021-11-15T20:33:56.439Z</time>
      </trkpt>
      <trkpt lat="47.534179" lon="7.744495">
        <ele>318.806357</ele>
        <time>2021-11-15T20:34:00.322Z</time>
      </trkpt>
      <trkpt lat="47.534097" lon="7.744343">
        <ele>318.840529</ele>
        <time>2021-11-15T20:34:02.333Z</time>
      </trkpt>
      <trkpt lat="47.534043" lon="7.744207">
        <ele>318.868240</ele>
        <time>2021-11-15T20:34:04.078Z</time>
      </trkpt>
      <trkpt lat="47.533870" lon="7.743466">
        <ele>319.063922</ele>
        <time>2021-11-15T20:34:12.857Z</time>
      </trkpt>
      <trkpt lat="47.533707" lon="7.742025">
        <ele>319.743879</ele>
        <time>2021-11-15T20:34:31.406Z</time>
      </trkpt>
      <trkpt lat="47.533352" lon="7.740430">
        <ele>319.633590</ele>
        <time>2021-11-15T20:34:50.528Z</time>
      </trkpt>
      <trkpt lat="47.533191" lon="7.739816">
        <ele>319.071838</ele>
        <time>2021-11-15T20:34:56.599Z</time>
      </trkpt>
      <trkpt lat="47.533153" lon="7.739664">
        <ele>318.933604</ele>
        <time>2021-11-15T20:34:57.896Z</time>
      </trkpt>
      <trkpt lat="47.531874" lon="7.736048">
        <ele>312.545220</ele>
        <time>2021-11-15T20:35:26.369Z</time>
      </trkpt>
      <trkpt lat="47.531710" lon="7.735855">
        <ele>312.181706</ele>
        <time>2021-11-15T20:35:28.555Z</time>
      </trkpt>
      <trkpt lat="47.531389" lon="7.735745">
        <ele>311.609920</ele>
        <time>2021-11-15T20:35:32.119Z</time>
      </trkpt>
      <trkpt lat="47.531325" lon="7.735684">
        <ele>311.477842</ele>
        <time>2021-11-15T20:35:32.831Z</time>
      </trkpt>
      <trkpt lat="47.530882" lon="7.735983">
        <ele>310.632984</ele>
        <time>2021-11-15T20:35:38.444Z</time>
      </trkpt>
      <trkpt lat="47.530193" lon="7.736351">
        <ele>309.732416</ele>
        <time>2021-11-15T20:35:47.863Z</time>
      </trkpt>
      <trkpt lat="47.529741" lon="7.736731">
        <ele>309.767606</ele>
        <time>2021-11-15T20:35:56.343Z</time>
      </trkpt>
      <trkpt lat="47.529603" lon="7.736896">
        <ele>309.779615</ele>
        <time>2021-11-15T20:35:59.578Z</time>
      </trkpt>
      <trkpt lat="47.529534" lon="7.737005">
        <ele>309.786445</ele>
        <time>2021-11-15T20:36:01.748Z</time>
      </trkpt>
      <trkpt lat="47.528997" lon="7.738134">
        <ele>309.741139</ele>
        <time>2021-11-15T20:36:15.723Z</time>
      </trkpt>
      <trkpt lat="47.528896" lon="7.738303">
        <ele>309.631096</ele>
        <time>2021-11-15T20:36:17.911Z</time>
      </trkpt>
      <trkpt lat="47.528842" lon="7.738378">
        <ele>309.577637</ele>
        <time>2021-11-15T20:36:18.729Z</time>
      </trkpt>
      <trkpt lat="47.528601" lon="7.738620">
        <ele>309.367376</ele>
        <time>2021-11-15T20:36:22.348Z</time>
      </trkpt>
      <trkpt lat="47.528341" lon="7.738762">
        <ele>309.167266</ele>
        <time>2021-11-15T20:36:25.704Z</time>
      </trkpt>
      <trkpt lat="47.528292" lon="7.738774">
        <ele>309.131401</ele>
        <time>2021-11-15T20:36:26.298Z</time>
      </trkpt>
      <trkpt lat="47.527841" lon="7.738820">
        <ele>308.804955</ele>
        <time>2021-11-15T20:36:34.191Z</time>
      </trkpt>
      <trkpt lat="47.527567" lon="7.738827">
        <ele>308.607065</ele>
        <time>2021-11-15T20:36:37.828Z</time>
      </trkpt>
      <trkpt lat="47.527349" lon="7.738840">
        <ele>308.524978</ele>
        <time>2021-11-15T20:36:40.568Z</time>
      </trkpt>
      <trkpt lat="47.527103" lon="7.738847">
        <ele>308.493144</ele>
        <time>2021-11-15T20:36:43.512Z</time>
      </trkpt>
      <trkpt lat="47.527038" lon="7.739424">
        <ele>308.442036</ele>
        <time>2021-11-15T20:36:48.602Z</time>
      </trkpt>
      <trkpt lat="47.527030" lon="7.739469">
        <ele>308.437971</ele>
        <time>2021-11-15T20:36:49.222Z</time>
      </trkpt>
      <trkpt lat="47.526782" lon="7.740808">
        <ele>308.316666</ele>
        <time>2021-11-15T20:37:03.801Z</time>
      </trkpt>
      <trkpt lat="47.526392" lon="7.742181">
        <ele>309.187180</ele>
        <time>2021-11-15T20:37:22.269Z</time>
      </trkpt>
      <trkpt lat="47.526222" lon="7.742784">
        <ele>309.597568</ele>
        <time>2021-11-15T20:37:30.177Z</time>
      </trkpt>
      <trkpt lat="47.525969" lon="7.743974">
        <ele>310.705208</ele>
        <time>2021-11-15T20:37:47.178Z</time>
      </trkpt>
      <trkpt lat="47.525836" lon="7.744800">
        <ele>311.671180</ele>
        <time>2021-11-15T20:37:59.396Z</time>
      </trkpt>
      <trkpt lat="47.525817" lon="7.744920">
        <ele>311.811391</ele>
        <time>2021-11-15T20:38:01.326Z</time>
      </trkpt>
      <trkpt lat="47.525761" lon="7.745310">
        <ele>312.264962</ele>
        <time>2021-11-15T20:38:07.100Z</time>
      </trkpt>
      <trkpt lat="47.525754" lon="7.745361">
        <ele>312.324164</ele>
        <time>2021-11-15T20:38:07.874Z</time>
      </trkpt>
      <trkpt lat="47.525698" lon="7.745676">
        <ele>312.694709</ele>
        <time>2021-11-15T20:38:12.962Z</time>
      </trkpt>
      <trkpt lat="47.525493" lon="7.746648">
        <ele>314.246858</ele>
        <time>2021-11-15T20:38:29.092Z</time>
      </trkpt>
      <trkpt lat="47.525175" lon="7.747653">
        <ele>316.100237</ele>
        <time>2021-11-15T20:38:47.942Z</time>
      </trkpt>
      <trkpt lat="47.525102" lon="7.747843">
        <ele>316.465285</ele>
        <time>2021-11-15T20:38:52.019Z</time>
      </trkpt>
      <trkpt lat="47.525034" lon="7.748003">
        <ele>316.780988</ele>
        <time>2021-11-15T20:38:54.883Z</time>
      </trkpt>
      <trkpt lat="47.524939" lon="7.748210">
        <ele>317.198941</ele>
        <time>2021-11-15T20:38:59.157Z</time>
      </trkpt>
      <trkpt lat="47.524786" lon="7.748513">
        <ele>317.945504</ele>
        <time>2021-11-15T20:39:05.364Z</time>
      </trkpt>
      <trkpt lat="47.524595" lon="7.748826">
        <ele>318.867860</ele>
        <time>2021-11-15T20:39:13.103Z</time>
      </trkpt>
      <trkpt lat="47.523810" lon="7.749861">
        <ele>322.270897</ele>
        <time>2021-11-15T20:39:42.547Z</time>
      </trkpt>
      <trkpt lat="47.522660" lon="7.751079">
        <ele>327.078327</ele>
        <time>2021-11-15T20:40:24.413Z</time>
      </trkpt>
      <trkpt lat="47.522153" lon="7.751504">
        <ele>329.086151</ele>
        <time>2021-11-15T20:40:41.002Z</time>
      </trkpt>
      <trkpt lat="47.521128" lon="7.752139">
        <ele>331.642140</ele>
        <time>2021-11-15T20:41:09.504Z</time>
      </trkpt>
      <trkpt lat="47.520691" lon="7.752581">
        <ele>332.789651</ele>
        <time>2021-11-15T20:41:21.844Z</time>
      </trkpt>
      <trkpt lat="47.520500" lon="7.752840">
        <ele>333.351221</ele>
        <time>2021-11-15T20:41:26.600Z</time>
      </trkpt>
      <trkpt lat="47.520081" lon="7.753575">
        <ele>333.326770</ele>
        <time>2021-11-15T20:41:37.291Z</time>
      </trkpt>
      <trkpt lat="47.519771" lon="7.754124">
        <ele>333.284737</ele>
        <time>2021-11-15T20:41:43.945Z</time>
      </trkpt>
      <trkpt lat="47.519558" lon="7.754516">
        <ele>333.255184</ele>
        <time>2021-11-15T20:41:48.310Z</time>
      </trkpt>
      <trkpt lat="47.518866" lon="7.755813">
        <ele>332.864906</ele>
        <time>2021-11-15T20:42:02.272Z</time>
      </trkpt>
      <trkpt lat="47.517863" lon="7.757421">
        <ele>332.711184</ele>
        <time>2021-11-15T20:42:22.984Z</time>
      </trkpt>
      <trkpt lat="47.516954" lon="7.758506">
        <ele>333.534966</ele>
        <time>2021-11-15T20:42:44.609Z</time>
      </trkpt>
      <trkpt lat="47.516501" lon="7.759179">
        <ele>334.757759</ele>
        <time>2021-11-15T20:42:57.723Z</time>
      </trkpt>
      <trkpt lat="47.515929" lon="7.760077">
        <ele>336.722453</ele>
        <time>2021-11-15T20:43:17.429Z</time>
      </trkpt>
      <trkpt lat="47.515394" lon="7.761200">
        <ele>339.414431</ele>
        <time>2021-11-15T20:43:44.240Z</time>
      </trkpt>
      <trkpt lat="47.515265" lon="7.761533">
        <ele>340.330023</ele>
        <time>2021-11-15T20:43:52.116Z</time>
      </trkpt>
      <trkpt lat="47.515220" lon="7.761710">
        <ele>340.781096</ele>
        <time>2021-11-15T20:43:55.985Z</time>
      </trkpt>
      <trkpt lat="47.515194" lon="7.761991">
        <ele>341.457556</ele>
        <time>2021-11-15T20:44:02.016Z</time>
      </trkpt>
      <trkpt lat="47.515150" lon="7.762617">
        <ele>342.958665</ele>
        <time>2021-11-15T20:44:14.136Z</time>
      </trkpt>
      <trkpt lat="47.515108" lon="7.762767">
        <ele>343.345950</ele>
        <time>2021-11-15T20:44:17.599Z</time>
      </trkpt>
      <trkpt lat="47.515023" lon="7.762891">
        <ele>343.767335</ele>
        <time>2021-11-15T20:44:21.330Z</time>
      </trkpt>
      <trkpt lat="47.514492" lon="7.763207">
        <ele>345.094546</ele>
        <time>2021-11-15T20:44:36.728Z</time>
      </trkpt>
      <trkpt lat="47.514365" lon="7.763357">
        <ele>345.409667</ele>
        <time>2021-11-15T20:44:41.114Z</time>
      </trkpt>
      <trkpt lat="47.514022" lon="7.763802">
        <ele>346.294268</ele>
        <time>2021-11-15T20:44:49.287Z</time>
      </trkpt>
      <trkpt lat="47.513823" lon="7.764227">
        <ele>346.971770</ele>
        <time>2021-11-15T20:44:56.434Z</time>
      </trkpt>
      <trkpt lat="47.513810" lon="7.764252">
        <ele>347.013105</ele>
        <time>2021-11-15T20:44:56.822Z</time>
      </trkpt>
      <trkpt lat="47.513747" lon="7.764397">
        <ele>347.238979</ele>
        <time>2021-11-15T20:44:59.324Z</time>
      </trkpt>
      <trkpt lat="47.513707" lon="7.764494">
        <ele>347.387872</ele>
        <time>2021-11-15T20:45:01.341Z</time>
      </trkpt>
      <trkpt lat="47.513661" lon="7.764590">
        <ele>347.542077</ele>
        <time>2021-11-15T20:45:03.303Z</time>
      </trkpt>
      <trkpt lat="47.513615" lon="7.764654">
        <ele>347.664517</ele>
        <time>2021-11-15T20:45:03.976Z</time>
      </trkpt>
      <trkpt lat="47.513036" lon="7.765134">
        <ele>348.647673</ele>
        <time>2021-11-15T20:45:18.938Z</time>
      </trkpt>
      <trkpt lat="47.512959" lon="7.765198">
        <ele>348.776055</ele>
        <time>2021-11-15T20:45:20.061Z</time>
      </trkpt>
      <trkpt lat="47.512947" lon="7.765205">
        <ele>348.794806</ele>
        <time>2021-11-15T20:45:20.295Z</time>
      </trkpt>
      <trkpt lat="47.512876" lon="7.765238">
        <ele>348.902998</ele>
        <time>2021-11-15T20:45:21.791Z</time>
      </trkpt>
      <trkpt lat="47.512596" lon="7.765294">
        <ele>349.313778</ele>
        <time>2021-11-15T20:45:27.261Z</time>
      </trkpt>
      <trkpt lat="47.512523" lon="7.765308">
        <ele>349.420797</ele>
        <time>2021-11-15T20:45:28.719Z</time>
      </trkpt>
      <trkpt lat="47.512359" lon="7.765319">
        <ele>349.659476</ele>
        <time>2021-11-15T20:45:32.693Z</time>
      </trkpt>
      <trkpt lat="47.512026" lon="7.765311">
        <ele>350.143677</ele>
        <time>2021-11-15T20:45:38.688Z</time>
      </trkpt>
      <trkpt lat="47.511929" lon="7.765269">
        <ele>350.290609</ele>
        <time>2021-11-15T20:45:40.877Z</time>
      </trkpt>
      <trkpt lat="47.511866" lon="7.765218">
        <ele>350.404977</ele>
        <time>2021-11-15T20:45:41.952Z</time>
      </trkpt>
      <trkpt lat="47.511702" lon="7.765093">
        <ele>350.736733</ele>
        <time>2021-11-15T20:45:46.339Z</time>
      </trkpt>
      <trkpt lat="47.511360" lon="7.764807">
        <ele>351.443182</ele>
        <time>2021-11-15T20:45:55.773Z</time>
      </trkpt>
      <trkpt lat="47.511298" lon="7.764777">
        <ele>351.560497</ele>
        <time>2021-11-15T20:45:57.829Z</time>
      </trkpt>
      <trkpt lat="47.511261" lon="7.764772">
        <ele>351.627320</ele>
        <time>2021-11-15T20:45:58.729Z</time>
      </trkpt>
      <trkpt lat="47.510922" lon="7.764773">
        <ele>352.237032</ele>
        <time>2021-11-15T20:46:06.603Z</time>
      </trkpt>
      <trkpt lat="47.510628" lon="7.764909">
        <ele>352.791018</ele>
        <time>2021-11-15T20:46:12.430Z</time>
      </trkpt>
      <trkpt lat="47.510486" lon="7.765012">
        <ele>353.075419</ele>
        <time>2021-11-15T20:46:15.756Z</time>
      </trkpt>
      <trkpt lat="47.510392" lon="7.765088">
        <ele>353.268052</ele>
        <time>2021-11-15T20:46:17.729Z</time>
      </trkpt>
      <trkpt lat="47.510179" lon="7.765273">
        <ele>353.814259</ele>
        <time>2021-11-15T20:46:22.350Z</time>
      </trkpt>
      <trkpt lat="47.510078" lon="7.765363">
        <ele>354.200334</ele>
        <time>2021-11-15T20:46:25.034Z</time>
      </trkpt>
      <trkpt lat="47.510019" lon="7.765402">
        <ele>354.411947</ele>
        <time>2021-11-15T20:46:26.204Z</time>
      </trkpt>
      <trkpt lat="47.509942" lon="7.765436">
        <ele>354.675103</ele>
        <time>2021-11-15T20:46:28.237Z</time>
      </trkpt>
      <trkpt lat="47.509899" lon="7.765445">
        <ele>354.817331</ele>
        <time>2021-11-15T20:46:29.233Z</time>
      </trkpt>
      <trkpt lat="47.509741" lon="7.765454">
        <ele>355.335170</ele>
        <time>2021-11-15T20:46:33.356Z</time>
      </trkpt>
      <trkpt lat="47.509600" lon="7.765443">
        <ele>355.797592</ele>
        <time>2021-11-15T20:46:37.599Z</time>
      </trkpt>
      <trkpt lat="47.509436" lon="7.765441">
        <ele>356.334718</ele>
        <time>2021-11-15T20:46:42.625Z</time>
      </trkpt>
      <trkpt lat="47.509057" lon="7.765447">
        <ele>357.576030</ele>
        <time>2021-11-15T20:46:55.163Z</time>
      </trkpt>
      <trkpt lat="47.508744" lon="7.765478">
        <ele>358.603410</ele>
        <time>2021-11-15T20:47:05.137Z</time>
      </trkpt>
      <trkpt lat="47.508322" lon="7.765556">
        <ele>359.991172</ele>
        <time>2021-11-15T20:47:17.799Z</time>
      </trkpt>
      <trkpt lat="47.508137" lon="7.765584">
        <ele>360.594287</ele>
        <time>2021-11-15T20:47:22.582Z</time>
      </trkpt>
      <trkpt lat="47.507977" lon="7.765561">
        <ele>361.115636</ele>
        <time>2021-11-15T20:47:26.795Z</time>
      </trkpt>
      <trkpt lat="47.507650" lon="7.765503">
        <ele>362.183739</ele>
        <time>2021-11-15T20:47:35.030Z</time>
      </trkpt>
      <trkpt lat="47.507506" lon="7.765470">
        <ele>362.656319</ele>
        <time>2021-11-15T20:47:40.362Z</time>
      </trkpt>
      <trkpt lat="47.507429" lon="7.765409">
        <ele>362.939552</ele>
        <time>2021-11-15T20:47:42.018Z</time>
      </trkpt>
      <trkpt lat="47.506870" lon="7.765037">
        <ele>364.927239</ele>
        <time>2021-11-15T20:48:00.400Z</time>
      </trkpt>
      <trkpt lat="47.506716" lon="7.764971">
        <ele>365.433772</ele>
        <time>2021-11-15T20:48:03.760Z</time>
      </trkpt>
      <trkpt lat="47.506619" lon="7.764938">
        <ele>365.724545</ele>
        <time>2021-11-15T20:48:06.546Z</time>
      </trkpt>
      <trkpt lat="47.506377" lon="7.764894">
        <ele>366.436864</ele>
        <time>2021-11-15T20:48:11.992Z</time>
      </trkpt>
      <trkpt lat="47.506301" lon="7.764884">
        <ele>366.659774</ele>
        <time>2021-11-15T20:48:13.692Z</time>
      </trkpt>
      <trkpt lat="47.506143" lon="7.764883">
        <ele>367.121377</ele>
        <time>2021-11-15T20:48:18.390Z</time>
      </trkpt>
      <trkpt lat="47.505115" lon="7.765011">
        <ele>370.135295</ele>
        <time>2021-11-15T20:48:44.385Z</time>
      </trkpt>
      <trkpt lat="47.504400" lon="7.764478">
        <ele>372.125215</ele>
        <time>2021-11-15T20:49:09.644Z</time>
      </trkpt>
      <trkpt lat="47.503736" lon="7.764325">
        <ele>373.729393</ele>
        <time>2021-11-15T20:49:28.623Z</time>
      </trkpt>
      <trkpt lat="47.502578" lon="7.764620">
        <ele>375.062304</ele>
        <time>2021-11-15T20:49:43.646Z</time>
      </trkpt>
      <trkpt lat="47.502400" lon="7.764717">
        <ele>375.116944</ele>
        <time>2021-11-15T20:49:51.617Z</time>
      </trkpt>
      <trkpt lat="47.502299" lon="7.764761">
        <ele>375.147273</ele>
        <time>2021-11-15T20:49:52.686Z</time>
      </trkpt>
      <trkpt lat="47.501861" lon="7.764937">
        <ele>375.278012</ele>
        <time>2021-11-15T20:49:58.108Z</time>
      </trkpt>
      <trkpt lat="47.501785" lon="7.764941">
        <ele>375.299919</ele>
        <time>2021-11-15T20:50:04.639Z</time>
      </trkpt>
      <trkpt lat="47.501717" lon="7.764903">
        <ele>375.320857</ele>
        <time>2021-11-15T20:50:05.272Z</time>
      </trkpt>
      <trkpt lat="47.501402" lon="7.764367">
        <ele>375.773937</ele>
        <time>2021-11-15T20:50:11.655Z</time>
      </trkpt>
      <trkpt lat="47.501345" lon="7.764315">
        <ele>375.868473</ele>
        <time>2021-11-15T20:50:12.213Z</time>
      </trkpt>
      <trkpt lat="47.501281" lon="7.764267">
        <ele>375.969772</ele>
        <time>2021-11-15T20:50:19.785Z</time>
      </trkpt>
      <trkpt lat="47.501196" lon="7.764236">
        <ele>376.093373</ele>
        <time>2021-11-15T20:50:20.619Z</time>
      </trkpt>
      <trkpt lat="47.501035" lon="7.764209">
        <ele>376.322144</ele>
        <time>2021-11-15T20:50:22.135Z</time>
      </trkpt>
      <trkpt lat="47.500820" lon="7.764278">
        <ele>376.632756</ele>
        <time>2021-11-15T20:50:28.084Z</time>
      </trkpt>
      <trkpt lat="47.500727" lon="7.764330">
        <ele>376.773119</ele>
        <time>2021-11-15T20:50:30.047Z</time>
      </trkpt>
      <trkpt lat="47.500387" lon="7.764595">
        <ele>377.315650</ele>
        <time>2021-11-15T20:50:36.569Z</time>
      </trkpt>
      <trkpt lat="47.499963" lon="7.764903">
        <ele>378.084849</ele>
        <time>2021-11-15T20:50:51.550Z</time>
      </trkpt>
      <trkpt lat="47.499690" lon="7.765083">
        <ele>379.175602</ele>
        <time>2021-11-15T20:51:01.248Z</time>
      </trkpt>
      <trkpt lat="47.499422" lon="7.765260">
        <ele>380.246676</ele>
        <time>2021-11-15T20:51:09.855Z</time>
      </trkpt>
      <trkpt lat="47.499360" lon="7.765292">
        <ele>380.486321</ele>
        <time>2021-11-15T20:51:12.118Z</time>
      </trkpt>
      <trkpt lat="47.498800" lon="7.765582">
        <ele>382.651639</ele>
        <time>2021-11-15T20:51:30.661Z</time>
      </trkpt>
      <trkpt lat="47.498586" lon="7.765657">
        <ele>383.454273</ele>
        <time>2021-11-15T20:51:37.103Z</time>
      </trkpt>
      <trkpt lat="47.498351" lon="7.765739">
        <ele>384.335467</ele>
        <time>2021-11-15T20:51:43.061Z</time>
      </trkpt>
      <trkpt lat="47.498155" lon="7.765801">
        <ele>385.227680</ele>
        <time>2021-11-15T20:51:48.572Z</time>
      </trkpt>
      <trkpt lat="47.497958" lon="7.765844">
        <ele>386.154283</ele>
        <time>2021-11-15T20:51:53.313Z</time>
      </trkpt>
      <trkpt lat="47.497754" lon="7.765880">
        <ele>387.110268</ele>
        <time>2021-11-15T20:51:59.433Z</time>
      </trkpt>
      <trkpt lat="47.497723" lon="7.766185">
        <ele>388.079923</ele>
        <time>2021-11-15T20:52:04.258Z</time>
      </trkpt>
      <trkpt lat="47.497675" lon="7.766623">
        <ele>389.474915</ele>
        <time>2021-11-15T20:52:13.405Z</time>
      </trkpt>
      <trkpt lat="47.497649" lon="7.766873">
        <ele>390.270128</ele>
        <time>2021-11-15T20:52:19.944Z</time>
      </trkpt>
      <trkpt lat="47.497611" lon="7.767211">
        <ele>391.347353</ele>
        <time>2021-11-15T20:52:29.939Z</time>
      </trkpt>
      <trkpt lat="47.497511" lon="7.768079">
        <ele>395.192519</ele>
        <time>2021-11-15T20:52:55.725Z</time>
      </trkpt>
      <trkpt lat="47.497361" lon="7.768561">
        <ele>398.282765</ele>
        <time>2021-11-15T20:53:10.685Z</time>
      </trkpt>
      <trkpt lat="47.497291" lon="7.768691">
        <ele>399.250801</ele>
        <time>2021-11-15T20:53:15.288Z</time>
      </trkpt>
      <trkpt lat="47.497192" lon="7.768830">
        <ele>400.426931</ele>
        <time>2021-11-15T20:53:20.899Z</time>
      </trkpt>
      <trkpt lat="47.497103" lon="7.768933">
        <ele>401.400683</ele>
        <time>2021-11-15T20:53:27.224Z</time>
      </trkpt>
      <trkpt lat="47.495667" lon="7.770224">
        <ele>416.845800</ele>
        <time>2021-11-15T20:55:02.176Z</time>
      </trkpt>
      <trkpt lat="47.493379" lon="7.771903">
        <ele>439.827750</ele>
        <time>2021-11-15T20:57:13.278Z</time>
      </trkpt>
      <trkpt lat="47.492787" lon="7.772160">
        <ele>443.338404</ele>
        <time>2021-11-15T20:57:38.557Z</time>
      </trkpt>
      <trkpt lat="47.491693" lon="7.772220">
        <ele>448.359998</ele>
        <time>2021-11-15T20:58:10.467Z</time>
      </trkpt>
      <trkpt lat="47.491378" lon="7.772372">
        <ele>449.932386</ele>
        <time>2021-11-15T20:58:19.635Z</time>
      </trkpt>
      <trkpt lat="47.490979" lon="7.772729">
        <ele>452.401644</ele>
        <time>2021-11-15T20:58:33.183Z</time>
      </trkpt>
      <trkpt lat="47.490789" lon="7.773001">
        <ele>453.801622</ele>
        <time>2021-11-15T20:58:41.159Z</time>
      </trkpt>
      <trkpt lat="47.490600" lon="7.773314">
        <ele>455.303775</ele>
        <time>2021-11-15T20:58:50.360Z</time>
      </trkpt>
      <trkpt lat="47.490509" lon="7.773483">
        <ele>456.077088</ele>
        <time>2021-11-15T20:58:55.627Z</time>
      </trkpt>
      <trkpt lat="47.490333" lon="7.773772">
        <ele>457.469342</ele>
        <time>2021-11-15T20:59:05.087Z</time>
      </trkpt>
      <trkpt lat="47.489507" lon="7.774592">
        <ele>467.530609</ele>
        <time>2021-11-15T20:59:56.493Z</time>
      </trkpt>
      <trkpt lat="47.489299" lon="7.774864">
        <ele>470.919660</ele>
        <time>2021-11-15T21:00:17.524Z</time>
      </trkpt>
      <trkpt lat="47.489027" lon="7.775404">
        <ele>476.476495</ele>
        <time>2021-11-15T21:00:50.989Z</time>
      </trkpt>
      <trkpt lat="47.488856" lon="7.776072">
        <ele>482.286015</ele>
        <time>2021-11-15T21:01:25.028Z</time>
      </trkpt>
      <trkpt lat="47.488821" lon="7.776320">
        <ele>484.245650</ele>
        <time>2021-11-15T21:01:38.031Z</time>
      </trkpt>
      <trkpt lat="47.488804" lon="7.776561">
        <ele>486.119882</ele>
        <time>2021-11-15T21:01:49.269Z</time>
      </trkpt>
      <trkpt lat="47.488828" lon="7.777228">
        <ele>491.286345</ele>
        <time>2021-11-15T21:02:19.753Z</time>
      </trkpt>
      <trkpt lat="47.488939" lon="7.777976">
        <ele>497.209886</ele>
        <time>2021-11-15T21:02:51.880Z</time>
      </trkpt>
      <trkpt lat="47.489070" lon="7.778258">
        <ele>499.856820</ele>
        <time>2021-11-15T21:03:04.629Z</time>
      </trkpt>
      <trkpt lat="47.489510" lon="7.778865">
        <ele>503.513316</ele>
        <time>2021-11-15T21:03:27.192Z</time>
      </trkpt>
      <trkpt lat="47.489751" lon="7.779285">
        <ele>505.091707</ele>
        <time>2021-11-15T21:03:36.798Z</time>
      </trkpt>
      <trkpt lat="47.489935" lon="7.779599">
        <ele>506.282296</ele>
        <time>2021-11-15T21:03:43.437Z</time>
      </trkpt>
      <trkpt lat="47.490085" lon="7.779841">
        <ele>507.222999</ele>
        <time>2021-11-15T21:03:48.378Z</time>
      </trkpt>
      <trkpt lat="47.490300" lon="7.780156">
        <ele>508.505552</ele>
        <time>2021-11-15T21:03:57.984Z</time>
      </trkpt>
      <trkpt lat="47.490637" lon="7.780677">
        <ele>510.544321</ele>
        <time>2021-11-15T21:04:14.336Z</time>
      </trkpt>
      <trkpt lat="47.491131" lon="7.781314">
        <ele>513.265192</ele>
        <time>2021-11-15T21:04:29.249Z</time>
      </trkpt>
      <trkpt lat="47.491257" lon="7.781415">
        <ele>513.860248</ele>
        <time>2021-11-15T21:04:35.336Z</time>
      </trkpt>
      <trkpt lat="47.491593" lon="7.781786">
        <ele>515.601094</ele>
        <time>2021-11-15T21:04:51.525Z</time>
      </trkpt>
      <trkpt lat="47.491764" lon="7.781979">
        <ele>516.494135</ele>
        <time>2021-11-15T21:04:56.092Z</time>
      </trkpt>
      <trkpt lat="47.491932" lon="7.782190">
        <ele>517.873114</ele>
        <time>2021-11-15T21:05:06.431Z</time>
      </trkpt>
      <trkpt lat="47.491994" lon="7.782263">
        <ele>518.419891</ele>
        <time>2021-11-15T21:05:07.134Z</time>
      </trkpt>
      <trkpt lat="47.492051" lon="7.782347">
        <ele>518.975032</ele>
        <time>2021-11-15T21:05:11.788Z</time>
      </trkpt>
      <trkpt lat="47.492170" lon="7.783077">
        <ele>522.476823</ele>
        <time>2021-11-15T21:05:36.325Z</time>
      </trkpt>
      <trkpt lat="47.492224" lon="7.783215">
        <ele>523.220464</ele>
        <time>2021-11-15T21:05:38.883Z</time>
      </trkpt>
      <trkpt lat="47.492208" lon="7.783343">
        <ele>523.827479</ele>
        <time>2021-11-15T21:05:43.366Z</time>
      </trkpt>
      <trkpt lat="47.492115" lon="7.783471">
        <ele>524.703957</ele>
        <time>2021-11-15T21:05:51.308Z</time>
      </trkpt>
      <trkpt lat="47.492008" lon="7.783519">
        <ele>525.475580</ele>
        <time>2021-11-15T21:05:54.644Z</time>
      </trkpt>
      <trkpt lat="47.491443" lon="7.783484">
        <ele>529.455625</ele>
        <time>2021-11-15T21:06:16.581Z</time>
      </trkpt>
      <trkpt lat="47.491316" lon="7.783486">
        <ele>530.596005</ele>
        <time>2021-11-15T21:06:24.376Z</time>
      </trkpt>
      <trkpt lat="47.491026" lon="7.783504">
        <ele>533.202165</ele>
        <time>2021-11-15T21:06:39.662Z</time>
      </trkpt>
      <trkpt lat="47.490801" lon="7.783516">
        <ele>535.223722</ele>
        <time>2021-11-15T21:06:52.785Z</time>
      </trkpt>
      <trkpt lat="47.490527" lon="7.783532">
        <ele>537.685845</ele>
        <time>2021-11-15T21:07:06.721Z</time>
      </trkpt>
      <trkpt lat="47.490609" lon="7.783692">
        <ele>538.904215</ele>
        <time>2021-11-15T21:07:12.050Z</time>
      </trkpt>
      <trkpt lat="47.490633" lon="7.783833">
        <ele>539.786403</ele>
        <time>2021-11-15T21:07:17.631Z</time>
      </trkpt>
      <trkpt lat="47.490689" lon="7.784199">
        <ele>542.063182</ele>
        <time>2021-11-15T21:07:29.020Z</time>
      </trkpt>
      <trkpt lat="47.490723" lon="7.784422">
        <ele>543.450161</ele>
        <time>2021-11-15T21:07:38.574Z</time>
      </trkpt>
      <trkpt lat="47.490860" lon="7.785128">
        <ele>548.191363</ele>
        <time>2021-11-15T21:08:05.644Z</time>
      </trkpt>
      <trkpt lat="47.490876" lon="7.785414">
        <ele>550.120561</ele>
        <time>2021-11-15T21:08:16.183Z</time>
      </trkpt>
      <trkpt lat="47.490808" lon="7.785962">
        <ele>553.866067</ele>
        <time>2021-11-15T21:08:35.782Z</time>
      </trkpt>
      <trkpt lat="47.490637" lon="7.786369">
        <ele>557.087889</ele>
        <time>2021-11-15T21:08:54.281Z</time>
      </trkpt>
      <trkpt lat="47.490588" lon="7.786449">
        <ele>557.813749</ele>
        <time>2021-11-15T21:08:59.383Z</time>
      </trkpt>
      <trkpt lat="47.490524" lon="7.786562">
        <ele>558.804944</ele>
        <time>2021-11-15T21:09:04.020Z</time>
      </trkpt>
      <trkpt lat="47.490217" lon="7.787045">
        <ele>563.245629</ele>
        <time>2021-11-15T21:09:28.747Z</time>
      </trkpt>
      <trkpt lat="47.489788" lon="7.787865">
        <ele>568.997064</ele>
        <time>2021-11-15T21:10:06.830Z</time>
      </trkpt>
      <trkpt lat="47.489723" lon="7.788036">
        <ele>570.085182</ele>
        <time>2021-11-15T21:10:15.231Z</time>
      </trkpt>
      <trkpt lat="47.489691" lon="7.788200">
        <ele>571.031885</ele>
        <time>2021-11-15T21:10:21.251Z</time>
      </trkpt>
      <trkpt lat="47.489663" lon="7.788691">
        <ele>573.764648</ele>
        <time>2021-11-15T21:10:37.575Z</time>
      </trkpt>
      <trkpt lat="47.489823" lon="7.789549">
        <ele>578.118791</ele>
        <time>2021-11-15T21:11:00.322Z</time>
      </trkpt>
      <trkpt lat="47.489925" lon="7.791008">
        <ele>580.129557</ele>
        <time>2021-11-15T21:11:24.787Z</time>
      </trkpt>
      <trkpt lat="47.489971" lon="7.791599">
        <ele>580.945093</ele>
        <time>2021-11-15T21:11:31.751Z</time>
      </trkpt>
      <trkpt lat="47.489987" lon="7.791819">
        <ele>581.248424</ele>
        <time>2021-11-15T21:11:34.243Z</time>
      </trkpt>
      <trkpt lat="47.490118" lon="7.793776">
        <ele>578.932237</ele>
        <time>2021-11-15T21:11:51.036Z</time>
      </trkpt>
      <trkpt lat="47.490137" lon="7.796120">
        <ele>571.090358</ele>
        <time>2021-11-15T21:12:05.862Z</time>
      </trkpt>
      <trkpt lat="47.490229" lon="7.796508">
        <ele>569.220125</ele>
        <time>2021-11-15T21:12:08.305Z</time>
      </trkpt>
      <trkpt lat="47.490482" lon="7.797579">
        <ele>563.876026</ele>
        <time>2021-11-15T21:12:15.041Z</time>
      </trkpt>
      <trkpt lat="47.490613" lon="7.798182">
        <ele>560.598417</ele>
        <time>2021-11-15T21:12:18.749Z</time>
      </trkpt>
      <trkpt lat="47.490919" lon="7.798941">
        <ele>556.024924</ele>
        <time>2021-11-15T21:12:23.976Z</time>
      </trkpt>
      <trkpt lat="47.491125" lon="7.799903">
        <ele>551.445390</ele>
        <time>2021-11-15T21:12:30.206Z</time>
      </trkpt>
      <trkpt lat="47.491207" lon="7.800233">
        <ele>551.055904</ele>
        <time>2021-11-15T21:12:32.454Z</time>
      </trkpt>
      <trkpt lat="47.491266" lon="7.800470">
        <ele>550.776120</ele>
        <time>2021-11-15T21:12:34.228Z</time>
      </trkpt>
      <trkpt lat="47.491393" lon="7.801006">
        <ele>550.146930</ele>
        <time>2021-11-15T21:12:38.242Z</time>
      </trkpt>
      <trkpt lat="47.491405" lon="7.801118">
        <ele>550.021314</ele>
        <time>2021-11-15T21:12:39.010Z</time>
      </trkpt>
      <trkpt lat="47.491420" lon="7.801300">
        <ele>549.818213</ele>
        <time>2021-11-15T21:12:40.437Z</time>
      </trkpt>
      <trkpt lat="47.491399" lon="7.802037">
        <ele>549.001091</ele>
        <time>2021-11-15T21:12:48.419Z</time>
      </trkpt>
      <trkpt lat="47.491604" lon="7.802704">
        <ele>551.278192</ele>
        <time>2021-11-15T21:12:59.883Z</time>
      </trkpt>
      <trkpt lat="47.491641" lon="7.802949">
        <ele>552.781000</ele>
        <time>2021-11-15T21:13:05.187Z</time>
      </trkpt>
      <trkpt lat="47.491627" lon="7.803075">
        <ele>553.545393</ele>
        <time>2021-11-15T21:13:10.665Z</time>
      </trkpt>
      <trkpt lat="47.491556" lon="7.803362">
        <ele>555.374965</ele>
        <time>2021-11-15T21:13:19.888Z</time>
      </trkpt>
      <trkpt lat="47.491486" lon="7.803573">
        <ele>556.782088</ele>
        <time>2021-11-15T21:13:31.061Z</time>
      </trkpt>
      <trkpt lat="47.491467" lon="7.803711">
        <ele>557.625163</ele>
        <time>2021-11-15T21:13:38.044Z</time>
      </trkpt>
      <trkpt lat="47.491463" lon="7.803928">
        <ele>558.924659</ele>
        <time>2021-11-15T21:13:47.507Z</time>
      </trkpt>
      <trkpt lat="47.491423" lon="7.804002">
        <ele>559.491945</ele>
        <time>2021-11-15T21:13:54.331Z</time>
      </trkpt>
      <trkpt lat="47.491177" lon="7.804268">
        <ele>562.191074</ele>
        <time>2021-11-15T21:14:11.637Z</time>
      </trkpt>
      <trkpt lat="47.490972" lon="7.804817">
        <ele>566.119125</ele>
        <time>2021-11-15T21:14:42.656Z</time>
      </trkpt>
      <trkpt lat="47.490914" lon="7.804913">
        <ele>566.989677</ele>
        <time>2021-11-15T21:14:47.436Z</time>
      </trkpt>
      <trkpt lat="47.490692" lon="7.805224">
        <ele>570.047920</ele>
        <time>2021-11-15T21:15:07.879Z</time>
      </trkpt>
      <trkpt lat="47.490528" lon="7.805558">
        <ele>572.838984</ele>
        <time>2021-11-15T21:15:20.212Z</time>
      </trkpt>
      <trkpt lat="47.490509" lon="7.805657">
        <ele>573.534709</ele>
        <time>2021-11-15T21:15:27.645Z</time>
      </trkpt>
      <trkpt lat="47.490507" lon="7.805711">
        <ele>573.900305</ele>
        <time>2021-11-15T21:15:28.010Z</time>
      </trkpt>
      <trkpt lat="47.490538" lon="7.805979">
        <ele>575.738376</ele>
        <time>2021-11-15T21:15:36.998Z</time>
      </trkpt>
      <trkpt lat="47.490574" lon="7.806137">
        <ele>576.865565</ele>
        <time>2021-11-15T21:15:42.956Z</time>
      </trkpt>
      <trkpt lat="47.490633" lon="7.806304">
        <ele>578.139504</ele>
        <time>2021-11-15T21:15:49.217Z</time>
      </trkpt>
      <trkpt lat="47.490886" lon="7.806854">
        <ele>582.615041</ele>
        <time>2021-11-15T21:16:12.430Z</time>
      </trkpt>
      <trkpt lat="47.490987" lon="7.807452">
        <ele>584.230917</ele>
        <time>2021-11-15T21:16:28.341Z</time>
      </trkpt>
      <trkpt lat="47.491021" lon="7.807539">
        <ele>584.494384</ele>
        <time>2021-11-15T21:16:30.620Z</time>
      </trkpt>
      <trkpt lat="47.491259" lon="7.808151">
        <ele>586.345460</ele>
        <time>2021-11-15T21:16:41.242Z</time>
      </trkpt>
      <trkpt lat="47.491350" lon="7.808391">
        <ele>587.066897</ele>
        <time>2021-11-15T21:16:45.879Z</time>
      </trkpt>
      <trkpt lat="47.491452" lon="7.808947">
        <ele>588.577193</ele>
        <time>2021-11-15T21:16:53.350Z</time>
      </trkpt>
      <trkpt lat="47.491490" lon="7.809341">
        <ele>589.621678</ele>
        <time>2021-11-15T21:17:01.938Z</time>
      </trkpt>
      <trkpt lat="47.491540" lon="7.809874">
        <ele>591.071780</ele>
        <time>2021-11-15T21:17:13.657Z</time>
      </trkpt>
      <trkpt lat="47.491544" lon="7.810309">
        <ele>592.244123</ele>
        <time>2021-11-15T21:17:23.611Z</time>
      </trkpt>
      <trkpt lat="47.491483" lon="7.810733">
        <ele>593.412328</ele>
        <time>2021-11-15T21:17:33.907Z</time>
      </trkpt>
      <trkpt lat="47.491462" lon="7.810822">
        <ele>593.666368</ele>
        <time>2021-11-15T21:17:36.105Z</time>
      </trkpt>
      <trkpt lat="47.491417" lon="7.811033">
        <ele>594.262620</ele>
        <time>2021-11-15T21:17:39.899Z</time>
      </trkpt>
      <trkpt lat="47.491356" lon="7.811021">
        <ele>594.508038</ele>
        <time>2021-11-15T21:17:42.462Z</time>
      </trkpt>
      <trkpt lat="47.491305" lon="7.811022">
        <ele>594.711452</ele>
        <time>2021-11-15T21:17:44.099Z</time>
      </trkpt>
      <trkpt lat="47.491210" lon="7.811067">
        <ele>595.109260</ele>
        <time>2021-11-15T21:17:47.643Z</time>
      </trkpt>
      <trkpt lat="47.491168" lon="7.811103">
        <ele>595.302829</ele>
        <time>2021-11-15T21:17:49.796Z</time>
      </trkpt>
      <trkpt lat="47.491099" lon="7.811167">
        <ele>595.627591</ele>
        <time>2021-11-15T21:17:50.911Z</time>
      </trkpt>
      <trkpt lat="47.490921" lon="7.811332">
        <ele>596.465240</ele>
        <time>2021-11-15T21:17:57.327Z</time>
      </trkpt>
      <trkpt lat="47.490608" lon="7.811558">
        <ele>597.655863</ele>
        <time>2021-11-15T21:18:06.498Z</time>
      </trkpt>
      <trkpt lat="47.490230" lon="7.811766">
        <ele>598.974766</ele>
        <time>2021-11-15T21:18:17.171Z</time>
      </trkpt>
      <trkpt lat="47.489734" lon="7.811930">
        <ele>600.636883</ele>
        <time>2021-11-15T21:18:32.233Z</time>
      </trkpt>
      <trkpt lat="47.488654" lon="7.812154">
        <ele>604.345947</ele>
        <time>2021-11-15T21:19:01.397Z</time>
      </trkpt>
      <trkpt lat="47.488525" lon="7.812197">
        <ele>604.817678</ele>
        <time>2021-11-15T21:19:05.771Z</time>
      </trkpt>
      <trkpt lat="47.486782" lon="7.812718">
        <ele>610.072259</ele>
        <time>2021-11-15T21:19:58.947Z</time>
      </trkpt>
      <trkpt lat="47.486531" lon="7.812839">
        <ele>610.527978</ele>
        <time>2021-11-15T21:20:05.896Z</time>
      </trkpt>
      <trkpt lat="47.485925" lon="7.813196">
        <ele>611.653980</ele>
        <time>2021-11-15T21:20:19.887Z</time>
      </trkpt>
      <trkpt lat="47.485144" lon="7.813866">
        <ele>608.470370</ele>
        <time>2021-11-15T21:20:29.895Z</time>
      </trkpt>
      <trkpt lat="47.484810" lon="7.814067">
        <ele>606.298407</ele>
        <time>2021-11-15T21:20:33.105Z</time>
      </trkpt>
      <trkpt lat="47.484732" lon="7.814081">
        <ele>605.825108</ele>
        <time>2021-11-15T21:20:33.755Z</time>
      </trkpt>
      <trkpt lat="47.484689" lon="7.814083">
        <ele>605.565957</ele>
        <time>2021-11-15T21:20:34.856Z</time>
      </trkpt>
      <trkpt lat="47.484558" lon="7.814061">
        <ele>604.771774</ele>
        <time>2021-11-15T21:20:38.564Z</time>
      </trkpt>
      <trkpt lat="47.484474" lon="7.814023">
        <ele>604.242658</ele>
        <time>2021-11-15T21:20:40.957Z</time>
      </trkpt>
      <trkpt lat="47.484375" lon="7.813958">
        <ele>603.590236</ele>
        <time>2021-11-15T21:20:41.848Z</time>
      </trkpt>
      <trkpt lat="47.483867" lon="7.813452">
        <ele>598.126335</ele>
        <time>2021-11-15T21:20:47.308Z</time>
      </trkpt>
      <trkpt lat="47.483804" lon="7.813389">
        <ele>597.095737</ele>
        <time>2021-11-15T21:20:47.936Z</time>
      </trkpt>
      <trkpt lat="47.483708" lon="7.813293">
        <ele>595.525299</ele>
        <time>2021-11-15T21:20:48.951Z</time>
      </trkpt>
      <trkpt lat="47.483493" lon="7.813178">
        <ele>592.426675</ele>
        <time>2021-11-15T21:20:50.905Z</time>
      </trkpt>
      <trkpt lat="47.483220" lon="7.813099">
        <ele>588.656374</ele>
        <time>2021-11-15T21:20:53.278Z</time>
      </trkpt>
      <trkpt lat="47.482949" lon="7.813114">
        <ele>584.980704</ele>
        <time>2021-11-15T21:20:55.525Z</time>
      </trkpt>
      <trkpt lat="47.482420" lon="7.813239">
        <ele>577.719856</ele>
        <time>2021-11-15T21:20:59.931Z</time>
      </trkpt>
      <trkpt lat="47.482097" lon="7.813263">
        <ele>572.805612</ele>
        <time>2021-11-15T21:21:02.587Z</time>
      </trkpt>
      <trkpt lat="47.481920" lon="7.813196">
        <ele>569.964841</ele>
        <time>2021-11-15T21:21:04.084Z</time>
      </trkpt>
      <trkpt lat="47.481456" lon="7.813058">
        <ele>562.605885</ele>
        <time>2021-11-15T21:21:07.980Z</time>
      </trkpt>
      <trkpt lat="47.480872" lon="7.813093">
        <ele>553.517920</ele>
        <time>2021-11-15T21:21:12.831Z</time>
      </trkpt>
      <trkpt lat="47.480713" lon="7.812994">
        <ele>550.835682</ele>
        <time>2021-11-15T21:21:14.288Z</time>
      </trkpt>
      <trkpt lat="47.479735" lon="7.811893">
        <ele>541.772902</ele>
        <time>2021-11-15T21:21:24.904Z</time>
      </trkpt>
      <trkpt lat="47.479687" lon="7.811839">
        <ele>541.381353</ele>
        <time>2021-11-15T21:21:31.995Z</time>
      </trkpt>
      <trkpt lat="47.479473" lon="7.811584">
        <ele>539.597147</ele>
        <time>2021-11-15T21:21:34.275Z</time>
      </trkpt>
      <trkpt lat="47.478943" lon="7.810849">
        <ele>535.612540</ele>
        <time>2021-11-15T21:21:42.660Z</time>
      </trkpt>
      <trkpt lat="47.478809" lon="7.810763">
        <ele>534.951517</ele>
        <time>2021-11-15T21:21:54.008Z</time>
      </trkpt>
      <trkpt lat="47.478566" lon="7.810790">
        <ele>533.848698</ele>
        <time>2021-11-15T21:21:56.137Z</time>
      </trkpt>
      <trkpt lat="47.478335" lon="7.810955">
        <ele>532.687836</ele>
        <time>2021-11-15T21:22:01.672Z</time>
      </trkpt>
      <trkpt lat="47.478231" lon="7.811139">
        <ele>531.954166</ele>
        <time>2021-11-15T21:22:03.050Z</time>
      </trkpt>
      <trkpt lat="47.478204" lon="7.811401">
        <ele>531.143519</ele>
        <time>2021-11-15T21:22:04.644Z</time>
      </trkpt>
      <trkpt lat="47.478262" lon="7.811831">
        <ele>529.802332</ele>
        <time>2021-11-15T21:22:07.207Z</time>
      </trkpt>
      <trkpt lat="47.478245" lon="7.812069">
        <ele>528.975282</ele>
        <time>2021-11-15T21:22:08.674Z</time>
      </trkpt>
      <trkpt lat="47.478216" lon="7.812137">
        <ele>528.458819</ele>
        <time>2021-11-15T21:22:09.126Z</time>
      </trkpt>
      <trkpt lat="47.478172" lon="7.812240">
        <ele>527.676157</ele>
        <time>2021-11-15T21:22:09.852Z</time>
      </trkpt>
      <trkpt lat="47.477609" lon="7.813223">
        <ele>519.399955</ele>
        <time>2021-11-15T21:22:17.407Z</time>
      </trkpt>
      <trkpt lat="47.477546" lon="7.813318">
        <ele>518.545066</ele>
        <time>2021-11-15T21:22:18.157Z</time>
      </trkpt>
      <trkpt lat="47.477516" lon="7.813359">
        <ele>518.156939</ele>
        <time>2021-11-15T21:22:18.502Z</time>
      </trkpt>
      <trkpt lat="47.477155" lon="7.813696">
        <ele>514.100319</ele>
        <time>2021-11-15T21:22:22.424Z</time>
      </trkpt>
      <trkpt lat="47.476980" lon="7.813791">
        <ele>512.328773</ele>
        <time>2021-11-15T21:22:24.592Z</time>
      </trkpt>
      <trkpt lat="47.476884" lon="7.813858">
        <ele>511.269359</ele>
        <time>2021-11-15T21:22:25.459Z</time>
      </trkpt>
      <trkpt lat="47.476563" lon="7.814189">
        <ele>507.297393</ele>
        <time>2021-11-15T21:22:28.838Z</time>
      </trkpt>
      <trkpt lat="47.476534" lon="7.814226">
        <ele>506.908656</ele>
        <time>2021-11-15T21:22:32.881Z</time>
      </trkpt>
      <trkpt lat="47.476334" lon="7.814450">
        <ele>504.362228</ele>
        <time>2021-11-15T21:22:35.042Z</time>
      </trkpt>
      <trkpt lat="47.476204" lon="7.814552">
        <ele>502.868442</ele>
        <time>2021-11-15T21:22:36.253Z</time>
      </trkpt>
      <trkpt lat="47.476150" lon="7.814569">
        <ele>502.307989</ele>
        <time>2021-11-15T21:22:41.040Z</time>
      </trkpt>
      <trkpt lat="47.476077" lon="7.814575">
        <ele>501.565787</ele>
        <time>2021-11-15T21:22:41.643Z</time>
      </trkpt>
      <trkpt lat="47.475705" lon="7.814474">
        <ele>497.726370</ele>
        <time>2021-11-15T21:22:44.830Z</time>
      </trkpt>
      <trkpt lat="47.475471" lon="7.814482">
        <ele>495.350285</ele>
        <time>2021-11-15T21:22:46.777Z</time>
      </trkpt>
      <trkpt lat="47.475276" lon="7.814567">
        <ele>493.055078</ele>
        <time>2021-11-15T21:22:48.540Z</time>
      </trkpt>
      <trkpt lat="47.475210" lon="7.814595">
        <ele>492.046256</ele>
        <time>2021-11-15T21:22:49.109Z</time>
      </trkpt>
      <trkpt lat="47.474961" lon="7.814741">
        <ele>488.110842</ele>
        <time>2021-11-15T21:22:51.717Z</time>
      </trkpt>
      <trkpt lat="47.474804" lon="7.814845">
        <ele>485.583366</ele>
        <time>2021-11-15T21:22:53.134Z</time>
      </trkpt>
      <trkpt lat="47.474584" lon="7.814993">
        <ele>482.032415</ele>
        <time>2021-11-15T21:22:55.270Z</time>
      </trkpt>
      <trkpt lat="47.474430" lon="7.815154">
        <ele>479.261757</ele>
        <time>2021-11-15T21:22:56.910Z</time>
      </trkpt>
      <trkpt lat="47.474375" lon="7.815394">
        <ele>476.744973</ele>
        <time>2021-11-15T21:22:58.374Z</time>
      </trkpt>
      <trkpt lat="47.474616" lon="7.816226">
        <ele>467.755347</ele>
        <time>2021-11-15T21:23:03.379Z</time>
      </trkpt>
      <trkpt lat="47.474739" lon="7.816928">
        <ele>460.373357</ele>
        <time>2021-11-15T21:23:07.406Z</time>
      </trkpt>
      <trkpt lat="47.474739" lon="7.817281">
        <ele>456.775242</ele>
        <time>2021-11-15T21:23:09.357Z</time>
      </trkpt>
      <trkpt lat="47.474702" lon="7.817367">
        <ele>455.736133</ele>
        <time>2021-11-15T21:23:10.062Z</time>
      </trkpt>
      <trkpt lat="47.474641" lon="7.817509">
        <ele>454.021147</ele>
        <time>2021-11-15T21:23:11.576Z</time>
      </trkpt>
      <trkpt lat="47.474613" lon="7.817546">
        <ele>453.454996</ele>
        <time>2021-11-15T21:23:12.845Z</time>
      </trkpt>
      <trkpt lat="47.474555" lon="7.817587">
        <ele>452.485630</ele>
        <time>2021-11-15T21:23:13.631Z</time>
      </trkpt>
      <trkpt lat="47.474389" lon="7.817613">
        <ele>449.968323</ele>
        <time>2021-11-15T21:23:28.822Z</time>
      </trkpt>
      <trkpt lat="47.474233" lon="7.817507">
        <ele>447.379552</ele>
        <time>2021-11-15T21:23:30.280Z</time>
      </trkpt>
      <trkpt lat="47.474210" lon="7.817475">
        <ele>446.903428</ele>
        <time>2021-11-15T21:23:30.858Z</time>
      </trkpt>
      <trkpt lat="47.474182" lon="7.817417">
        <ele>446.176925</ele>
        <time>2021-11-15T21:23:37.813Z</time>
      </trkpt>
      <trkpt lat="47.473926" lon="7.816632">
        <ele>438.883649</ele>
        <time>2021-11-15T21:23:43.405Z</time>
      </trkpt>
      <trkpt lat="47.473743" lon="7.816298">
        <ele>436.856677</ele>
        <time>2021-11-15T21:23:45.819Z</time>
      </trkpt>
      <trkpt lat="47.473230" lon="7.815705">
        <ele>432.315921</ele>
        <time>2021-11-15T21:23:51.432Z</time>
      </trkpt>
      <trkpt lat="47.472623" lon="7.815140">
        <ele>427.286238</ele>
        <time>2021-11-15T21:23:59.948Z</time>
      </trkpt>
      <trkpt lat="47.472505" lon="7.815033">
        <ele>426.252900</ele>
        <time>2021-11-15T21:24:01.312Z</time>
      </trkpt>
      <trkpt lat="47.472320" lon="7.814860">
        <ele>424.618846</ele>
        <time>2021-11-15T21:24:03.449Z</time>
      </trkpt>
      <trkpt lat="47.471093" lon="7.813407">
        <ele>413.435971</ele>
        <time>2021-11-15T21:24:17.030Z</time>
      </trkpt>
      <trkpt lat="47.470923" lon="7.812993">
        <ele>411.958594</ele>
        <time>2021-11-15T21:24:20.091Z</time>
      </trkpt>
      <trkpt lat="47.470835" lon="7.812891">
        <ele>411.454187</ele>
        <time>2021-11-15T21:24:21.226Z</time>
      </trkpt>
      <trkpt lat="47.470794" lon="7.812878">
        <ele>411.264997</ele>
        <time>2021-11-15T21:24:21.993Z</time>
      </trkpt>
      <trkpt lat="47.470744" lon="7.812887">
        <ele>411.037736</ele>
        <time>2021-11-15T21:24:22.443Z</time>
      </trkpt>
      <trkpt lat="47.470614" lon="7.813052">
        <ele>410.264891</ele>
        <time>2021-11-15T21:24:24.069Z</time>
      </trkpt>
      <trkpt lat="47.470607" lon="7.813259">
        <ele>409.632767</ele>
        <time>2021-11-15T21:24:25.767Z</time>
      </trkpt>
      <trkpt lat="47.470938" lon="7.813871">
        <ele>407.242286</ele>
        <time>2021-11-15T21:24:31.158Z</time>
      </trkpt>
      <trkpt lat="47.470969" lon="7.814299">
        <ele>405.873699</ele>
        <time>2021-11-15T21:24:34.632Z</time>
      </trkpt>
      <trkpt lat="47.470838" lon="7.814669">
        <ele>404.295768</ele>
        <time>2021-11-15T21:24:37.721Z</time>
      </trkpt>
      <trkpt lat="47.470596" lon="7.814760">
        <ele>402.900267</ele>
        <time>2021-11-15T21:24:40.076Z</time>
      </trkpt>
      <trkpt lat="47.470163" lon="7.814758">
        <ele>400.480300</ele>
        <time>2021-11-15T21:24:44.070Z</time>
      </trkpt>
      <trkpt lat="47.469960" lon="7.814754">
        <ele>399.345671</ele>
        <time>2021-11-15T21:24:46.088Z</time>
      </trkpt>
      <trkpt lat="47.469647" lon="7.814557">
        <ele>397.444632</ele>
        <time>2021-11-15T21:24:49.091Z</time>
      </trkpt>
      <trkpt lat="47.469608" lon="7.814504">
        <ele>397.148658</ele>
        <time>2021-11-15T21:24:49.567Z</time>
      </trkpt>
      <trkpt lat="47.469564" lon="7.814419">
        <ele>396.744194</ele>
        <time>2021-11-15T21:24:50.170Z</time>
      </trkpt>
      <trkpt lat="47.469477" lon="7.814056">
        <ele>394.718896</ele>
        <time>2021-11-15T21:24:52.534Z</time>
      </trkpt>
      <trkpt lat="47.469471" lon="7.813955">
        <ele>394.069997</ele>
        <time>2021-11-15T21:24:53.107Z</time>
      </trkpt>
      <trkpt lat="47.469445" lon="7.813683">
        <ele>392.311857</ele>
        <time>2021-11-15T21:24:54.739Z</time>
      </trkpt>
      <trkpt lat="47.469382" lon="7.813432">
        <ele>390.598273</ele>
        <time>2021-11-15T21:24:56.284Z</time>
      </trkpt>
      <trkpt lat="47.469261" lon="7.813214">
        <ele>388.792988</ele>
        <time>2021-11-15T21:24:57.932Z</time>
      </trkpt>
      <trkpt lat="47.468968" lon="7.813033">
        <ele>385.786761</ele>
        <time>2021-11-15T21:25:00.648Z</time>
      </trkpt>
      <trkpt lat="47.468898" lon="7.813028">
        <ele>385.123242</ele>
        <time>2021-11-15T21:25:01.235Z</time>
      </trkpt>
      <trkpt lat="47.468231" lon="7.813117">
        <ele>378.940527</ele>
        <time>2021-11-15T21:25:06.985Z</time>
      </trkpt>
      <trkpt lat="47.468087" lon="7.813122">
        <ele>378.297227</ele>
        <time>2021-11-15T21:25:08.258Z</time>
      </trkpt>
      <trkpt lat="47.467986" lon="7.813069">
        <ele>377.818607</ele>
        <time>2021-11-15T21:25:09.267Z</time>
      </trkpt>
      <trkpt lat="47.467958" lon="7.813047">
        <ele>377.677010</ele>
        <time>2021-11-15T21:25:09.604Z</time>
      </trkpt>
      <trkpt lat="47.467857" lon="7.812969">
        <ele>377.168160</ele>
        <time>2021-11-15T21:25:10.610Z</time>
      </trkpt>
      <trkpt lat="47.467746" lon="7.812871">
        <ele>376.590838</ele>
        <time>2021-11-15T21:25:11.827Z</time>
      </trkpt>
      <trkpt lat="47.467739" lon="7.812865">
        <ele>376.554707</ele>
        <time>2021-11-15T21:25:11.894Z</time>
      </trkpt>
      <trkpt lat="47.467426" lon="7.812608">
        <ele>374.955903</ele>
        <time>2021-11-15T21:25:15.262Z</time>
      </trkpt>
      <trkpt lat="47.467146" lon="7.812375">
        <ele>373.521103</ele>
        <time>2021-11-15T21:25:18.577Z</time>
      </trkpt>
      <trkpt lat="47.467077" lon="7.812317">
        <ele>373.166662</ele>
        <time>2021-11-15T21:25:19.370Z</time>
      </trkpt>
      <trkpt lat="47.467013" lon="7.812269">
        <ele>372.846190</ele>
        <time>2021-11-15T21:25:20.219Z</time>
      </trkpt>
      <trkpt lat="47.466796" lon="7.812117">
        <ele>371.773877</ele>
        <time>2021-11-15T21:25:22.803Z</time>
      </trkpt>
      <trkpt lat="47.466676" lon="7.812018">
        <ele>371.160225</ele>
        <time>2021-11-15T21:25:24.417Z</time>
      </trkpt>
      <trkpt lat="47.466578" lon="7.811937">
        <ele>371.135917</ele>
        <time>2021-11-15T21:25:25.823Z</time>
      </trkpt>
      <trkpt lat="47.466490" lon="7.811850">
        <ele>371.241837</ele>
        <time>2021-11-15T21:25:27.147Z</time>
      </trkpt>
      <trkpt lat="47.466315" lon="7.811646">
        <ele>371.464807</ele>
        <time>2021-11-15T21:25:30.941Z</time>
      </trkpt>
      <trkpt lat="47.466262" lon="7.811579">
        <ele>371.534575</ele>
        <time>2021-11-15T21:25:32.006Z</time>
      </trkpt>
      <trkpt lat="47.466196" lon="7.811499">
        <ele>371.619964</ele>
        <time>2021-11-15T21:25:33.622Z</time>
      </trkpt>
      <trkpt lat="47.466094" lon="7.811396">
        <ele>371.743554</ele>
        <time>2021-11-15T21:25:36.087Z</time>
      </trkpt>
      <trkpt lat="47.466010" lon="7.811328">
        <ele>371.839379</ele>
        <time>2021-11-15T21:25:37.990Z</time>
      </trkpt>
      <trkpt lat="47.465897" lon="7.811237">
        <ele>371.968133</ele>
        <time>2021-11-15T21:25:40.263Z</time>
      </trkpt>
      <trkpt lat="47.465656" lon="7.811068">
        <ele>372.235035</ele>
        <time>2021-11-15T21:25:46.656Z</time>
      </trkpt>
      <trkpt lat="47.465536" lon="7.811007">
        <ele>372.362014</ele>
        <time>2021-11-15T21:25:49.595Z</time>
      </trkpt>
      <trkpt lat="47.465394" lon="7.810939">
        <ele>372.511378</ele>
        <time>2021-11-15T21:25:53.455Z</time>
      </trkpt>
      <trkpt lat="47.465245" lon="7.810868">
        <ele>372.668031</ele>
        <time>2021-11-15T21:25:56.792Z</time>
      </trkpt>
      <trkpt lat="47.465212" lon="7.810852">
        <ele>372.702783</ele>
        <time>2021-11-15T21:25:57.676Z</time>
      </trkpt>
      <trkpt lat="47.465087" lon="7.810791">
        <ele>372.834505</ele>
        <time>2021-11-15T21:26:00.832Z</time>
      </trkpt>
      <trkpt lat="47.464636" lon="7.810572">
        <ele>373.592017</ele>
        <time>2021-11-15T21:26:11.116Z</time>
      </trkpt>
      <trkpt lat="47.464496" lon="7.810462">
        <ele>373.847867</ele>
        <time>2021-11-15T21:26:14.337Z</time>
      </trkpt>
      <trkpt lat="47.464452" lon="7.810429">
        <ele>373.927488</ele>
        <time>2021-11-15T21:26:15.534Z</time>
      </trkpt>
      <trkpt lat="47.464417" lon="7.810573">
        <ele>374.094452</ele>
        <time>2021-11-15T21:26:17.824Z</time>
      </trkpt>
      <trkpt lat="47.464385" lon="7.810619">
        <ele>374.166469</ele>
        <time>2021-11-15T21:26:18.561Z</time>
      </trkpt>
      <trkpt lat="47.464364" lon="7.810630">
        <ele>374.202424</ele>
        <time>2021-11-15T21:26:19.045Z</time>
      </trkpt>
      <trkpt lat="47.464340" lon="7.810632">
        <ele>374.241221</ele>
        <time>2021-11-15T21:26:19.586Z</time>
      </trkpt>
      <trkpt lat="47.464200" lon="7.810621">
        <ele>374.467491</ele>
        <time>2021-11-15T21:26:22.352Z</time>
      </trkpt>
      <trkpt lat="47.463897" lon="7.810575">
        <ele>374.959085</ele>
        <time>2021-11-15T21:26:28.997Z</time>
      </trkpt>
      <trkpt lat="47.463886" lon="7.810514">
        <ele>375.027970</ele>
        <time>2021-11-15T21:26:30.030Z</time>
      </trkpt>
      <trkpt lat="47.463831" lon="7.810395">
        <ele>375.185256</ele>
        <time>2021-11-15T21:26:32.600Z</time>
      </trkpt>
      <trkpt lat="47.463753" lon="7.810251">
        <ele>375.386588</ele>
        <time>2021-11-15T21:26:35.896Z</time>
      </trkpt>
      <trkpt lat="47.463689" lon="7.810134">
        <ele>375.550803</ele>
        <time>2021-11-15T21:26:38.589Z</time>
      </trkpt>
      <trkpt lat="47.463652" lon="7.810060">
        <ele>375.651229</ele>
        <time>2021-11-15T21:26:40.062Z</time>
      </trkpt>
      <trkpt lat="47.463616" lon="7.809990">
        <ele>375.747195</ele>
        <time>2021-11-15T21:26:41.577Z</time>
      </trkpt>
      <trkpt lat="47.463603" lon="7.809961">
        <ele>375.778889</ele>
        <time>2021-11-15T21:26:42.196Z</time>
      </trkpt>
      <trkpt lat="47.463403" lon="7.809601">
        <ele>376.192729</ele>
        <time>2021-11-15T21:26:50.249Z</time>
      </trkpt>
      <trkpt lat="47.463347" lon="7.809533">
        <ele>376.287912</ele>
        <time>2021-11-15T21:26:52.378Z</time>
      </trkpt>
      <trkpt lat="47.463122" lon="7.809317">
        <ele>376.640296</ele>
        <time>2021-11-15T21:26:58.899Z</time>
      </trkpt>
      <trkpt lat="47.463007" lon="7.809215">
        <ele>376.816453</ele>
        <time>2021-11-15T21:27:02.427Z</time>
      </trkpt>
      <trkpt lat="47.462918" lon="7.809150">
        <ele>376.946850</ele>
        <time>2021-11-15T21:27:04.129Z</time>
      </trkpt>
      <trkpt lat="47.462879" lon="7.809121">
        <ele>377.004194</ele>
        <time>2021-11-15T21:27:05.176Z</time>
      </trkpt>
      <trkpt lat="47.462185" lon="7.808547">
        <ele>378.048769</ele>
        <time>2021-11-15T21:27:20.698Z</time>
      </trkpt>
      <trkpt lat="47.462087" lon="7.808494">
        <ele>378.194912</ele>
        <time>2021-11-15T21:27:23.097Z</time>
      </trkpt>
      <trkpt lat="47.462052" lon="7.808470">
        <ele>378.252017</ele>
        <time>2021-11-15T21:27:23.805Z</time>
      </trkpt>
      <trkpt lat="47.461997" lon="7.808450">
        <ele>378.335854</ele>
        <time>2021-11-15T21:27:24.863Z</time>
      </trkpt>
      <trkpt lat="47.461822" lon="7.808433">
        <ele>378.595453</ele>
        <time>2021-11-15T21:27:28.701Z</time>
      </trkpt>
      <trkpt lat="47.461296" lon="7.808372">
        <ele>379.376445</ele>
        <time>2021-11-15T21:27:39.961Z</time>
      </trkpt>
      <trkpt lat="47.460938" lon="7.808308">
        <ele>379.910224</ele>
        <time>2021-11-15T21:27:47.296Z</time>
      </trkpt>
      <trkpt lat="47.460870" lon="7.808289">
        <ele>380.012660</ele>
        <time>2021-11-15T21:27:48.629Z</time>
      </trkpt>
      <trkpt lat="47.460827" lon="7.808276">
        <ele>380.077627</ele>
        <time>2021-11-15T21:27:49.627Z</time>
      </trkpt>
      <trkpt lat="47.460439" lon="7.808155">
        <ele>380.664584</ele>
        <time>2021-11-15T21:27:57.890Z</time>
      </trkpt>
      <trkpt lat="47.460298" lon="7.808103">
        <ele>380.874480</ele>
        <time>2021-11-15T21:28:00.885Z</time>
      </trkpt>
      <trkpt lat="47.460078" lon="7.808023">
        <ele>381.192866</ele>
        <time>2021-11-15T21:28:05.563Z</time>
      </trkpt>
      <trkpt lat="47.459865" lon="7.807952">
        <ele>381.499715</ele>
        <time>2021-11-15T21:28:09.992Z</time>
      </trkpt>
      <trkpt lat="47.459423" lon="7.807775">
        <ele>382.143248</ele>
        <time>2021-11-15T21:28:19.589Z</time>
      </trkpt>
      <trkpt lat="47.459282" lon="7.807707">
        <ele>382.351671</ele>
        <time>2021-11-15T21:28:22.462Z</time>
      </trkpt>
      <trkpt lat="47.459007" lon="7.807577">
        <ele>382.757405</ele>
        <time>2021-11-15T21:28:27.863Z</time>
      </trkpt>
      <trkpt lat="47.458678" lon="7.807409">
        <ele>383.246548</ele>
        <time>2021-11-15T21:28:34.829Z</time>
      </trkpt>
      <trkpt lat="47.458342" lon="7.807254">
        <ele>383.913576</ele>
        <time>2021-11-15T21:28:42.340Z</time>
      </trkpt>
      <trkpt lat="47.458237" lon="7.807215">
        <ele>384.125782</ele>
        <time>2021-11-15T21:28:44.756Z</time>
      </trkpt>
      <trkpt lat="47.458181" lon="7.807191">
        <ele>384.240066</ele>
        <time>2021-11-15T21:28:46.106Z</time>
      </trkpt>
      <trkpt lat="47.457732" lon="7.807037">
        <ele>385.143529</ele>
        <time>2021-11-15T21:28:56.608Z</time>
      </trkpt>
      <trkpt lat="47.457326" lon="7.806926">
        <ele>385.952832</ele>
        <time>2021-11-15T21:29:06.531Z</time>
      </trkpt>
      <trkpt lat="47.457291" lon="7.806917">
        <ele>386.022467</ele>
        <time>2021-11-15T21:29:07.255Z</time>
      </trkpt>
      <trkpt lat="47.456988" lon="7.806840">
        <ele>386.625096</ele>
        <time>2021-11-15T21:29:14.692Z</time>
      </trkpt>
      <trkpt lat="47.456502" lon="7.806745">
        <ele>387.615183</ele>
        <time>2021-11-15T21:29:26.003Z</time>
      </trkpt>
      <trkpt lat="47.456331" lon="7.806727">
        <ele>387.964184</ele>
        <time>2021-11-15T21:29:30.152Z</time>
      </trkpt>
      <trkpt lat="47.456100" lon="7.806718">
        <ele>388.434614</ele>
        <time>2021-11-15T21:29:35.522Z</time>
      </trkpt>
      <trkpt lat="47.455379" lon="7.806783">
        <ele>389.905143</ele>
        <time>2021-11-15T21:29:52.215Z</time>
      </trkpt>
      <trkpt lat="47.454559" lon="7.807067">
        <ele>391.294540</ele>
        <time>2021-11-15T21:30:10.983Z</time>
      </trkpt>
      <trkpt lat="47.454428" lon="7.807128">
        <ele>391.493542</ele>
        <time>2021-11-15T21:30:13.318Z</time>
      </trkpt>
      <trkpt lat="47.454310" lon="7.807191">
        <ele>391.675321</ele>
        <time>2021-11-15T21:30:15.823Z</time>
      </trkpt>
      <trkpt lat="47.453985" lon="7.807368">
        <ele>392.177153</ele>
        <time>2021-11-15T21:30:22.293Z</time>
      </trkpt>
      <trkpt lat="47.453901" lon="7.807402">
        <ele>392.303343</ele>
        <time>2021-11-15T21:30:24.173Z</time>
      </trkpt>
      <trkpt lat="47.453815" lon="7.807438">
        <ele>392.432850</ele>
        <time>2021-11-15T21:30:25.868Z</time>
      </trkpt>
      <trkpt lat="47.453677" lon="7.807487">
        <ele>392.638491</ele>
        <time>2021-11-15T21:30:28.476Z</time>
      </trkpt>
      <trkpt lat="47.453371" lon="7.807571">
        <ele>393.089450</ele>
        <time>2021-11-15T21:30:34.530Z</time>
      </trkpt>
      <trkpt lat="47.453183" lon="7.807608">
        <ele>393.398429</ele>
        <time>2021-11-15T21:30:38.753Z</time>
      </trkpt>
      <trkpt lat="47.452830" lon="7.807686">
        <ele>393.981952</ele>
        <time>2021-11-15T21:30:47.026Z</time>
      </trkpt>
      <trkpt lat="47.452649" lon="7.807724">
        <ele>394.280834</ele>
        <time>2021-11-15T21:30:50.937Z</time>
      </trkpt>
      <trkpt lat="47.452556" lon="7.807739">
        <ele>394.433781</ele>
        <time>2021-11-15T21:30:52.940Z</time>
      </trkpt>
      <trkpt lat="47.452456" lon="7.807753">
        <ele>394.598001</ele>
        <time>2021-11-15T21:30:55.461Z</time>
      </trkpt>
      <trkpt lat="47.452253" lon="7.807773">
        <ele>394.930619</ele>
        <time>2021-11-15T21:30:59.799Z</time>
      </trkpt>
      <trkpt lat="47.451923" lon="7.807754">
        <ele>395.470542</ele>
        <time>2021-11-15T21:31:06.685Z</time>
      </trkpt>
      <trkpt lat="47.451791" lon="7.807759">
        <ele>395.686418</ele>
        <time>2021-11-15T21:31:09.442Z</time>
      </trkpt>
      <trkpt lat="47.451415" lon="7.807774">
        <ele>396.280927</ele>
        <time>2021-11-15T21:31:17.261Z</time>
      </trkpt>
      <trkpt lat="47.450005" lon="7.807761">
        <ele>398.406952</ele>
        <time>2021-11-15T21:31:46.676Z</time>
      </trkpt>
      <trkpt lat="47.449896" lon="7.807771">
        <ele>398.571617</ele>
        <time>2021-11-15T21:31:48.677Z</time>
      </trkpt>
      <trkpt lat="47.449829" lon="7.807782">
        <ele>398.673260</ele>
        <time>2021-11-15T21:31:50.035Z</time>
      </trkpt>
      <trkpt lat="47.449353" lon="7.807942">
        <ele>399.677797</ele>
        <time>2021-11-15T21:32:00.097Z</time>
      </trkpt>
      <trkpt lat="47.449267" lon="7.807971">
        <ele>399.865007</ele>
        <time>2021-11-15T21:32:02.419Z</time>
      </trkpt>
      <trkpt lat="47.449015" lon="7.808053">
        <ele>400.412642</ele>
        <time>2021-11-15T21:32:08.228Z</time>
      </trkpt>
      <trkpt lat="47.448903" lon="7.808078">
        <ele>400.653042</ele>
        <time>2021-11-15T21:32:11.072Z</time>
      </trkpt>
      <trkpt lat="47.448807" lon="7.808072">
        <ele>400.856972</ele>
        <time>2021-11-15T21:32:12.948Z</time>
      </trkpt>
      <trkpt lat="47.448442" lon="7.807881">
        <ele>401.678715</ele>
        <time>2021-11-15T21:32:22.350Z</time>
      </trkpt>
      <trkpt lat="47.448284" lon="7.807767">
        <ele>402.051840</ele>
        <time>2021-11-15T21:32:27.037Z</time>
      </trkpt>
      <trkpt lat="47.448245" lon="7.807740">
        <ele>402.143235</ele>
        <time>2021-11-15T21:32:28.469Z</time>
      </trkpt>
      <trkpt lat="47.447914" lon="7.807549">
        <ele>403.245946</ele>
        <time>2021-11-15T21:32:37.462Z</time>
      </trkpt>
      <trkpt lat="47.447689" lon="7.807548">
        <ele>404.228832</ele>
        <time>2021-11-15T21:32:42.399Z</time>
      </trkpt>
      <trkpt lat="47.447668" lon="7.807553">
        <ele>404.321749</ele>
        <time>2021-11-15T21:32:43.517Z</time>
      </trkpt>
      <trkpt lat="47.447633" lon="7.807562">
        <ele>404.476936</ele>
        <time>2021-11-15T21:32:44.450Z</time>
      </trkpt>
      <trkpt lat="47.447457" lon="7.807654">
        <ele>405.292392</ele>
        <time>2021-11-15T21:32:48.696Z</time>
      </trkpt>
      <trkpt lat="47.447388" lon="7.807704">
        <ele>405.628055</ele>
        <time>2021-11-15T21:32:50.431Z</time>
      </trkpt>
      <trkpt lat="47.447314" lon="7.807756">
        <ele>405.985958</ele>
        <time>2021-11-15T21:32:53.454Z</time>
      </trkpt>
      <trkpt lat="47.446662" lon="7.808234">
        <ele>409.164971</ele>
        <time>2021-11-15T21:33:18.491Z</time>
      </trkpt>
      <trkpt lat="47.446473" lon="7.808376">
        <ele>410.091054</ele>
        <time>2021-11-15T21:33:27.500Z</time>
      </trkpt>
      <trkpt lat="47.446375" lon="7.808453">
        <ele>410.639074</ele>
        <time>2021-11-15T21:33:32.209Z</time>
      </trkpt>
      <trkpt lat="47.446142" lon="7.808642">
        <ele>412.286804</ele>
        <time>2021-11-15T21:33:43.688Z</time>
      </trkpt>
      <trkpt lat="47.446096" lon="7.808680">
        <ele>412.613501</ele>
        <time>2021-11-15T21:33:46.015Z</time>
      </trkpt>
      <trkpt lat="47.446066" lon="7.808703">
        <ele>412.823021</ele>
        <time>2021-11-15T21:33:46.933Z</time>
      </trkpt>
      <trkpt lat="47.445880" lon="7.808843">
        <ele>414.117063</ele>
        <time>2021-11-15T21:33:55.712Z</time>
      </trkpt>
      <trkpt lat="47.445298" lon="7.809256">
        <ele>418.119586</ele>
        <time>2021-11-15T21:34:19.301Z</time>
      </trkpt>
      <trkpt lat="47.445120" lon="7.809369">
        <ele>419.320630</ele>
        <time>2021-11-15T21:34:26.836Z</time>
      </trkpt>
      <trkpt lat="47.445054" lon="7.809404">
        <ele>419.755362</ele>
        <time>2021-11-15T21:34:30.138Z</time>
      </trkpt>
      <trkpt lat="47.444386" lon="7.809626">
        <ele>423.453198</ele>
        <time>2021-11-15T21:35:03.299Z</time>
      </trkpt>
      <trkpt lat="47.443991" lon="7.809623">
        <ele>425.349317</ele>
        <time>2021-11-15T21:35:21.528Z</time>
      </trkpt>
      <trkpt lat="47.443720" lon="7.809596">
        <ele>426.653131</ele>
        <time>2021-11-15T21:35:33.648Z</time>
      </trkpt>
      <trkpt lat="47.443441" lon="7.809553">
        <ele>427.999653</ele>
        <time>2021-11-15T21:35:43.817Z</time>
      </trkpt>
      <trkpt lat="47.442919" lon="7.809465">
        <ele>430.150606</ele>
        <time>2021-11-15T21:35:58.240Z</time>
      </trkpt>
      <trkpt lat="47.442683" lon="7.809428">
        <ele>429.929879</ele>
        <time>2021-11-15T21:36:05.048Z</time>
      </trkpt>
      <trkpt lat="47.442177" lon="7.809333">
        <ele>429.455484</ele>
        <time>2021-11-15T21:36:17.121Z</time>
      </trkpt>
      <trkpt lat="47.440417" lon="7.808777">
        <ele>425.900770</ele>
        <time>2021-11-15T21:36:43.640Z</time>
      </trkpt>
      <trkpt lat="47.439717" lon="7.808754">
        <ele>423.630162</ele>
        <time>2021-11-15T21:36:53.487Z</time>
      </trkpt>
      <trkpt lat="47.439561" lon="7.808777">
        <ele>423.121757</ele>
        <time>2021-11-15T21:36:55.653Z</time>
      </trkpt>
      <trkpt lat="47.439256" lon="7.808836">
        <ele>422.621697</ele>
        <time>2021-11-15T21:37:00.347Z</time>
      </trkpt>
      <trkpt lat="47.439160" lon="7.808856">
        <ele>422.576558</ele>
        <time>2021-11-15T21:37:01.812Z</time>
      </trkpt>
      <trkpt lat="47.438917" lon="7.808920">
        <ele>422.461637</ele>
        <time>2021-11-15T21:37:05.837Z</time>
      </trkpt>
      <trkpt lat="47.438351" lon="7.809132">
        <ele>422.189783</ele>
        <time>2021-11-15T21:37:16.508Z</time>
      </trkpt>
      <trkpt lat="47.437880" lon="7.809448">
        <ele>421.948963</ele>
        <time>2021-11-15T21:37:29.039Z</time>
      </trkpt>
      <trkpt lat="47.437530" lon="7.809761">
        <ele>422.290716</ele>
        <time>2021-11-15T21:37:40.404Z</time>
      </trkpt>
      <trkpt lat="47.437405" lon="7.809871">
        <ele>422.553264</ele>
        <time>2021-11-15T21:37:44.410Z</time>
      </trkpt>
      <trkpt lat="47.436971" lon="7.810198">
        <ele>423.432429</ele>
        <time>2021-11-15T21:37:57.688Z</time>
      </trkpt>
      <trkpt lat="47.436910" lon="7.810231">
        <ele>423.549664</ele>
        <time>2021-11-15T21:37:59.598Z</time>
      </trkpt>
      <trkpt lat="47.436754" lon="7.810295">
        <ele>423.841861</ele>
        <time>2021-11-15T21:38:04.067Z</time>
      </trkpt>
      <trkpt lat="47.436714" lon="7.810307">
        <ele>423.915527</ele>
        <time>2021-11-15T21:38:05.339Z</time>
      </trkpt>
      <trkpt lat="47.436286" lon="7.810439">
        <ele>424.704634</ele>
        <time>2021-11-15T21:38:17.520Z</time>
      </trkpt>
      <trkpt lat="47.436034" lon="7.810517">
        <ele>425.167979</ele>
        <time>2021-11-15T21:38:25.028Z</time>
      </trkpt>
      <trkpt lat="47.435676" lon="7.810622">
        <ele>425.810780</ele>
        <time>2021-11-15T21:38:35.065Z</time>
      </trkpt>
      <trkpt lat="47.435107" lon="7.810718">
        <ele>426.819411</ele>
        <time>2021-11-15T21:38:50.169Z</time>
      </trkpt>
      <trkpt lat="47.434890" lon="7.810694">
        <ele>427.202661</ele>
        <time>2021-11-15T21:38:56.159Z</time>
      </trkpt>
      <trkpt lat="47.434532" lon="7.810638">
        <ele>427.836693</ele>
        <time>2021-11-15T21:39:05.923Z</time>
      </trkpt>
      <trkpt lat="47.434221" lon="7.810592">
        <ele>428.404470</ele>
        <time>2021-11-15T21:39:14.427Z</time>
      </trkpt>
      <trkpt lat="47.434093" lon="7.810572">
        <ele>428.668366</ele>
        <time>2021-11-15T21:39:17.836Z</time>
      </trkpt>
      <trkpt lat="47.433643" lon="7.810504">
        <ele>429.595796</ele>
        <time>2021-11-15T21:39:30.450Z</time>
      </trkpt>
      <trkpt lat="47.433316" lon="7.810451">
        <ele>430.270253</ele>
        <time>2021-11-15T21:39:40.273Z</time>
      </trkpt>
      <trkpt lat="47.432928" lon="7.810342">
        <ele>431.079995</ele>
        <time>2021-11-15T21:39:51.436Z</time>
      </trkpt>
      <trkpt lat="47.432554" lon="7.810136">
        <ele>431.898293</ele>
        <time>2021-11-15T21:40:02.774Z</time>
      </trkpt>
      <trkpt lat="47.432174" lon="7.809836">
        <ele>432.896216</ele>
        <time>2021-11-15T21:40:15.242Z</time>
      </trkpt>
      <trkpt lat="47.432022" lon="7.809706">
        <ele>433.307097</ele>
        <time>2021-11-15T21:40:20.788Z</time>
      </trkpt>
      <trkpt lat="47.431419" lon="7.809325">
        <ele>434.841462</ele>
        <time>2021-11-15T21:40:40.340Z</time>
      </trkpt>
      <trkpt lat="47.430797" lon="7.809083">
        <ele>436.463865</ele>
        <time>2021-11-15T21:40:59.114Z</time>
      </trkpt>
      <trkpt lat="47.430630" lon="7.809037">
        <ele>437.138480</ele>
        <time>2021-11-15T21:41:04.216Z</time>
      </trkpt>
      <trkpt lat="47.430471" lon="7.809009">
        <ele>437.774375</ele>
        <time>2021-11-15T21:41:08.470Z</time>
      </trkpt>
      <trkpt lat="47.430349" lon="7.809004">
        <ele>438.259054</ele>
        <time>2021-11-15T21:41:12.141Z</time>
      </trkpt>
      <trkpt lat="47.429678" lon="7.808980">
        <ele>440.924547</ele>
        <time>2021-11-15T21:41:34.450Z</time>
      </trkpt>
      <trkpt lat="47.428816" lon="7.809184">
        <ele>445.326688</ele>
        <time>2021-11-15T21:42:13.177Z</time>
      </trkpt>
      <trkpt lat="47.428531" lon="7.809311">
        <ele>447.541539</ele>
        <time>2021-11-15T21:42:28.311Z</time>
      </trkpt>
      <trkpt lat="47.428078" lon="7.809508">
        <ele>451.055002</ele>
        <time>2021-11-15T21:42:52.916Z</time>
      </trkpt>
      <trkpt lat="47.427626" lon="7.809699">
        <ele>454.552907</ele>
        <time>2021-11-15T21:43:17.833Z</time>
      </trkpt>
      <trkpt lat="47.427284" lon="7.809847">
        <ele>457.045757</ele>
        <time>2021-11-15T21:43:36.599Z</time>
      </trkpt>
      <trkpt lat="47.426541" lon="7.810106">
        <ele>460.925437</ele>
        <time>2021-11-15T21:44:13.318Z</time>
      </trkpt>
      <trkpt lat="47.425184" lon="7.810445">
        <ele>467.074007</ele>
        <time>2021-11-15T21:44:59.115Z</time>
      </trkpt>
      <trkpt lat="47.424871" lon="7.810565">
        <ele>468.047464</ele>
        <time>2021-11-15T21:45:07.222Z</time>
      </trkpt>
      <trkpt lat="47.424697" lon="7.810643">
        <ele>468.594845</ele>
        <time>2021-11-15T21:45:13.246Z</time>
      </trkpt>
      <trkpt lat="47.423941" lon="7.811048">
        <ele>471.015633</ele>
        <time>2021-11-15T21:45:38.639Z</time>
      </trkpt>
      <trkpt lat="47.423767" lon="7.811175">
        <ele>471.735672</ele>
        <time>2021-11-15T21:45:45.841Z</time>
      </trkpt>
      <trkpt lat="47.423172" lon="7.811608">
        <ele>474.529552</ele>
        <time>2021-11-15T21:46:12.012Z</time>
      </trkpt>
      <trkpt lat="47.422978" lon="7.811734">
        <ele>475.422232</ele>
        <time>2021-11-15T21:46:20.040Z</time>
      </trkpt>
      <trkpt lat="47.422720" lon="7.811867">
        <ele>476.573309</ele>
        <time>2021-11-15T21:46:31.276Z</time>
      </trkpt>
      <trkpt lat="47.422397" lon="7.812011">
        <ele>477.994550</ele>
        <time>2021-11-15T21:46:45.177Z</time>
      </trkpt>
      <trkpt lat="47.421893" lon="7.812157">
        <ele>478.346316</ele>
        <time>2021-11-15T21:47:02.438Z</time>
      </trkpt>
      <trkpt lat="47.421441" lon="7.812208">
        <ele>477.637495</ele>
        <time>2021-11-15T21:47:12.931Z</time>
      </trkpt>
      <trkpt lat="47.421405" lon="7.812207">
        <ele>477.581194</ele>
        <time>2021-11-15T21:47:14.114Z</time>
      </trkpt>
      <trkpt lat="47.421065" lon="7.812200">
        <ele>477.049506</ele>
        <time>2021-11-15T21:47:18.918Z</time>
      </trkpt>
      <trkpt lat="47.420870" lon="7.812170">
        <ele>476.742949</ele>
        <time>2021-11-15T21:47:21.550Z</time>
      </trkpt>
      <trkpt lat="47.420767" lon="7.812138">
        <ele>476.578374</ele>
        <time>2021-11-15T21:47:22.922Z</time>
      </trkpt>
      <trkpt lat="47.420607" lon="7.812071">
        <ele>476.318344</ele>
        <time>2021-11-15T21:47:25.364Z</time>
      </trkpt>
      <trkpt lat="47.420458" lon="7.811986">
        <ele>476.068609</ele>
        <time>2021-11-15T21:47:27.356Z</time>
      </trkpt>
      <trkpt lat="47.420135" lon="7.811734">
        <ele>474.524166</ele>
        <time>2021-11-15T21:47:32.297Z</time>
      </trkpt>
      <trkpt lat="47.419766" lon="7.811395">
        <ele>472.589662</ele>
        <time>2021-11-15T21:47:38.199Z</time>
      </trkpt>
      <trkpt lat="47.419632" lon="7.811270">
        <ele>471.884128</ele>
        <time>2021-11-15T21:47:40.318Z</time>
      </trkpt>
      <trkpt lat="47.419508" lon="7.811160">
        <ele>471.240204</ele>
        <time>2021-11-15T21:47:42.143Z</time>
      </trkpt>
      <trkpt lat="47.419414" lon="7.811078">
        <ele>470.754205</ele>
        <time>2021-11-15T21:47:43.779Z</time>
      </trkpt>
      <trkpt lat="47.419155" lon="7.810934">
        <ele>469.522119</ele>
        <time>2021-11-15T21:47:47.358Z</time>
      </trkpt>
      <trkpt lat="47.419134" lon="7.810926">
        <ele>469.425561</ele>
        <time>2021-11-15T21:47:47.870Z</time>
      </trkpt>
      <trkpt lat="47.419069" lon="7.810903">
        <ele>469.127972</ele>
        <time>2021-11-15T21:47:49.169Z</time>
      </trkpt>
      <trkpt lat="47.419015" lon="7.810884">
        <ele>468.880820</ele>
        <time>2021-11-15T21:47:50.014Z</time>
      </trkpt>
      <trkpt lat="47.418762" lon="7.810815">
        <ele>468.041416</ele>
        <time>2021-11-15T21:47:53.911Z</time>
      </trkpt>
      <trkpt lat="47.418377" lon="7.810720">
        <ele>468.198970</ele>
        <time>2021-11-15T21:48:00.945Z</time>
      </trkpt>
      <trkpt lat="47.417828" lon="7.810432">
        <ele>468.434117</ele>
        <time>2021-11-15T21:48:16.230Z</time>
      </trkpt>
      <trkpt lat="47.417743" lon="7.810418">
        <ele>468.468640</ele>
        <time>2021-11-15T21:48:18.437Z</time>
      </trkpt>
      <trkpt lat="47.417675" lon="7.810419">
        <ele>468.496089</ele>
        <time>2021-11-15T21:48:20.842Z</time>
      </trkpt>
      <trkpt lat="47.417067" lon="7.810695">
        <ele>468.771723</ele>
        <time>2021-11-15T21:48:36.150Z</time>
      </trkpt>
      <trkpt lat="47.416690" lon="7.810617">
        <ele>469.193434</ele>
        <time>2021-11-15T21:48:45.772Z</time>
      </trkpt>
      <trkpt lat="47.416598" lon="7.810554">
        <ele>469.305761</ele>
        <time>2021-11-15T21:48:49.144Z</time>
      </trkpt>
      <trkpt lat="47.416432" lon="7.810407">
        <ele>469.520141</ele>
        <time>2021-11-15T21:48:53.635Z</time>
      </trkpt>
      <trkpt lat="47.416349" lon="7.810346">
        <ele>469.622831</ele>
        <time>2021-11-15T21:48:55.774Z</time>
      </trkpt>
      <trkpt lat="47.416026" lon="7.810233">
        <ele>469.990537</ele>
        <time>2021-11-15T21:49:04.150Z</time>
      </trkpt>
      <trkpt lat="47.415983" lon="7.810241">
        <ele>470.038548</ele>
        <time>2021-11-15T21:49:05.177Z</time>
      </trkpt>
      <trkpt lat="47.415923" lon="7.810254">
        <ele>470.105727</ele>
        <time>2021-11-15T21:49:07.114Z</time>
      </trkpt>
      <trkpt lat="47.415633" lon="7.810382">
        <ele>470.441009</ele>
        <time>2021-11-15T21:49:13.925Z</time>
      </trkpt>
      <trkpt lat="47.415390" lon="7.810500">
        <ele>470.724363</ele>
        <time>2021-11-15T21:49:19.951Z</time>
      </trkpt>
      <trkpt lat="47.414706" lon="7.810912">
        <ele>471.705881</ele>
        <time>2021-11-15T21:49:36.559Z</time>
      </trkpt>
      <trkpt lat="47.414237" lon="7.811081">
        <ele>472.348701</ele>
        <time>2021-11-15T21:49:48.497Z</time>
      </trkpt>
      <trkpt lat="47.413959" lon="7.811165">
        <ele>472.726545</ele>
        <time>2021-11-15T21:49:55.832Z</time>
      </trkpt>
      <trkpt lat="47.413799" lon="7.811208">
        <ele>472.943096</ele>
        <time>2021-11-15T21:49:59.813Z</time>
      </trkpt>
      <trkpt lat="47.413716" lon="7.811229">
        <ele>473.055227</ele>
        <time>2021-11-15T21:50:01.884Z</time>
      </trkpt>
      <trkpt lat="47.413652" lon="7.811232">
        <ele>473.177939</ele>
        <time>2021-11-15T21:50:04.447Z</time>
      </trkpt>
      <trkpt lat="47.413454" lon="7.811217">
        <ele>474.348526</ele>
        <time>2021-11-15T21:50:10.217Z</time>
      </trkpt>
      <trkpt lat="47.413351" lon="7.811196">
        <ele>474.962430</ele>
        <time>2021-11-15T21:50:13.551Z</time>
      </trkpt>
      <trkpt lat="47.413271" lon="7.811524">
        <ele>476.355468</ele>
        <time>2021-11-15T21:50:21.536Z</time>
      </trkpt>
      <trkpt lat="47.413252" lon="7.811647">
        <ele>476.859553</ele>
        <time>2021-11-15T21:50:23.983Z</time>
      </trkpt>
      <trkpt lat="47.413242" lon="7.811717">
        <ele>477.145400</ele>
        <time>2021-11-15T21:50:26.673Z</time>
      </trkpt>
      <trkpt lat="47.413209" lon="7.811838">
        <ele>477.666639</ele>
        <time>2021-11-15T21:50:30.376Z</time>
      </trkpt>
      <trkpt lat="47.413015" lon="7.812281">
        <ele>479.774937</ele>
        <time>2021-11-15T21:50:45.591Z</time>
      </trkpt>
      <trkpt lat="47.412945" lon="7.812389">
        <ele>480.372450</ele>
        <time>2021-11-15T21:50:49.262Z</time>
      </trkpt>
      <trkpt lat="47.412863" lon="7.812536">
        <ele>481.133614</ele>
        <time>2021-11-15T21:50:54.078Z</time>
      </trkpt>
      <trkpt lat="47.412819" lon="7.812613">
        <ele>481.536282</ele>
        <time>2021-11-15T21:50:58.480Z</time>
      </trkpt>
      <trkpt lat="47.412767" lon="7.812703">
        <ele>482.009116</ele>
        <time>2021-11-15T21:51:02.927Z</time>
      </trkpt>
      <trkpt lat="47.412647" lon="7.812952">
        <ele>483.230504</ele>
        <time>2021-11-15T21:51:10.601Z</time>
      </trkpt>
      <trkpt lat="47.412590" lon="7.813097">
        <ele>483.970800</ele>
        <time>2021-11-15T21:51:17.578Z</time>
      </trkpt>
      <trkpt lat="47.412475" lon="7.813375">
        <ele>485.877873</ele>
        <time>2021-11-15T21:51:27.904Z</time>
      </trkpt>
      <trkpt lat="47.412453" lon="7.813489">
        <ele>486.571721</ele>
        <time>2021-11-15T21:51:32.736Z</time>
      </trkpt>
      <trkpt lat="47.412458" lon="7.813812">
        <ele>488.462745</ele>
        <time>2021-11-15T21:51:43.294Z</time>
      </trkpt>
      <trkpt lat="47.412508" lon="7.814020">
        <ele>489.754704</ele>
        <time>2021-11-15T21:51:50.785Z</time>
      </trkpt>
      <trkpt lat="47.412535" lon="7.814165">
        <ele>490.634936</ele>
        <time>2021-11-15T21:51:55.827Z</time>
      </trkpt>
      <trkpt lat="47.412651" lon="7.814791">
        <ele>494.433811</ele>
        <time>2021-11-15T21:52:17.382Z</time>
      </trkpt>
      <trkpt lat="47.412673" lon="7.815211">
        <ele>496.899429</ele>
        <time>2021-11-15T21:52:32.957Z</time>
      </trkpt>
      <trkpt lat="47.412661" lon="7.815346">
        <ele>497.696373</ele>
        <time>2021-11-15T21:52:37.304Z</time>
      </trkpt>
      <trkpt lat="47.412644" lon="7.815454">
        <ele>498.345374</ele>
        <time>2021-11-15T21:52:41.023Z</time>
      </trkpt>
      <trkpt lat="47.412538" lon="7.816206">
        <ele>502.865814</ele>
        <time>2021-11-15T21:53:06.790Z</time>
      </trkpt>
      <trkpt lat="47.412411" lon="7.816715">
        <ele>506.063063</ele>
        <time>2021-11-15T21:53:22.748Z</time>
      </trkpt>
      <trkpt lat="47.412340" lon="7.816932">
        <ele>507.483615</ele>
        <time>2021-11-15T21:53:30.096Z</time>
      </trkpt>
      <trkpt lat="47.412252" lon="7.817169">
        <ele>509.076846</ele>
        <time>2021-11-15T21:53:38.378Z</time>
      </trkpt>
      <trkpt lat="47.411675" lon="7.818402">
        <ele>518.277649</ele>
        <time>2021-11-15T21:54:32.865Z</time>
      </trkpt>
      <trkpt lat="47.411053" lon="7.819169">
        <ele>526.210245</ele>
        <time>2021-11-15T21:55:19.866Z</time>
      </trkpt>
      <trkpt lat="47.410982" lon="7.819269">
        <ele>527.170679</ele>
        <time>2021-11-15T21:55:26.444Z</time>
      </trkpt>
      <trkpt lat="47.410940" lon="7.819362">
        <ele>527.911566</ele>
        <time>2021-11-15T21:55:30.192Z</time>
      </trkpt>
      <trkpt lat="47.410889" lon="7.819549">
        <ele>529.247562</ele>
        <time>2021-11-15T21:55:34.627Z</time>
      </trkpt>
      <trkpt lat="47.410875" lon="7.819644">
        <ele>529.891833</ele>
        <time>2021-11-15T21:55:39.589Z</time>
      </trkpt>
      <trkpt lat="47.410870" lon="7.819785">
        <ele>530.827450</ele>
        <time>2021-11-15T21:55:45.291Z</time>
      </trkpt>
      <trkpt lat="47.410932" lon="7.820627">
        <ele>535.538367</ele>
        <time>2021-11-15T21:56:10.428Z</time>
      </trkpt>
      <trkpt lat="47.410950" lon="7.820708">
        <ele>535.971268</ele>
        <time>2021-11-15T21:56:15.287Z</time>
      </trkpt>
      <trkpt lat="47.410977" lon="7.820783">
        <ele>536.402628</ele>
        <time>2021-11-15T21:56:17.929Z</time>
      </trkpt>
      <trkpt lat="47.411082" lon="7.820940">
        <ele>537.523438</ele>
        <time>2021-11-15T21:56:24.551Z</time>
      </trkpt>
      <trkpt lat="47.411231" lon="7.820989">
        <ele>538.668771</ele>
        <time>2021-11-15T21:56:32.381Z</time>
      </trkpt>
      <trkpt lat="47.411259" lon="7.820982">
        <ele>538.881847</ele>
        <time>2021-11-15T21:56:33.120Z</time>
      </trkpt>
      <trkpt lat="47.411325" lon="7.820962">
        <ele>539.387365</ele>
        <time>2021-11-15T21:56:37.539Z</time>
      </trkpt>
      <trkpt lat="47.411618" lon="7.820798">
        <ele>541.738241</ele>
        <time>2021-11-15T21:56:49.510Z</time>
      </trkpt>
      <trkpt lat="47.411732" lon="7.820798">
        <ele>542.593609</ele>
        <time>2021-11-15T21:56:53.898Z</time>
      </trkpt>
      <trkpt lat="47.411885" lon="7.820944">
        <ele>543.960162</ele>
        <time>2021-11-15T21:57:01.253Z</time>
      </trkpt>
      <trkpt lat="47.411943" lon="7.821161">
        <ele>545.144831</ele>
        <time>2021-11-15T21:57:07.487Z</time>
      </trkpt>
      <trkpt lat="47.411897" lon="7.821410">
        <ele>546.445236</ele>
        <time>2021-11-15T21:57:14.345Z</time>
      </trkpt>
      <trkpt lat="47.411443" lon="7.822215">
        <ele>551.622387</ele>
        <time>2021-11-15T21:57:44.749Z</time>
      </trkpt>
      <trkpt lat="47.411269" lon="7.822710">
        <ele>554.378180</ele>
        <time>2021-11-15T21:58:02.219Z</time>
      </trkpt>
      <trkpt lat="47.411202" lon="7.822904">
        <ele>555.454241</ele>
        <time>2021-11-15T21:58:10.454Z</time>
      </trkpt>
      <trkpt lat="47.411082" lon="7.823262">
        <ele>557.428028</ele>
        <time>2021-11-15T21:58:22.329Z</time>
      </trkpt>
      <trkpt lat="47.410428" lon="7.825280">
        <ele>567.011726</ele>
        <time>2021-11-15T21:59:27.715Z</time>
      </trkpt>
      <trkpt lat="47.410381" lon="7.825922">
        <ele>569.696113</ele>
        <time>2021-11-15T21:59:41.487Z</time>
      </trkpt>
      <trkpt lat="47.410466" lon="7.826671">
        <ele>571.597871</ele>
        <time>2021-11-15T21:59:56.511Z</time>
      </trkpt>
      <trkpt lat="47.410491" lon="7.826956">
        <ele>572.214654</ele>
        <time>2021-11-15T22:00:02.434Z</time>
      </trkpt>
      <trkpt lat="47.410510" lon="7.827179">
        <ele>572.697033</ele>
        <time>2021-11-15T22:00:06.833Z</time>
      </trkpt>
      <trkpt lat="47.410563" lon="7.827634">
        <ele>573.687911</ele>
        <time>2021-11-15T22:00:15.737Z</time>
      </trkpt>
      <trkpt lat="47.410765" lon="7.828443">
        <ele>575.538588</ele>
        <time>2021-11-15T22:00:30.984Z</time>
      </trkpt>
      <trkpt lat="47.410839" lon="7.828759">
        <ele>575.931746</ele>
        <time>2021-11-15T22:00:36.244Z</time>
      </trkpt>
      <trkpt lat="47.410917" lon="7.829172">
        <ele>575.836473</ele>
        <time>2021-11-15T22:00:42.162Z</time>
      </trkpt>
      <trkpt lat="47.411036" lon="7.829964">
        <ele>575.656209</ele>
        <time>2021-11-15T22:00:50.705Z</time>
      </trkpt>
      <trkpt lat="47.411073" lon="7.830276">
        <ele>575.585828</ele>
        <time>2021-11-15T22:00:53.691Z</time>
      </trkpt>
      <trkpt lat="47.411089" lon="7.830400">
        <ele>575.557779</ele>
        <time>2021-11-15T22:00:54.719Z</time>
      </trkpt>
      <trkpt lat="47.411123" lon="7.830625">
        <ele>575.506554</ele>
        <time>2021-11-15T22:00:56.393Z</time>
      </trkpt>
      <trkpt lat="47.411370" lon="7.831550">
        <ele>574.624150</ele>
        <time>2021-11-15T22:01:03.618Z</time>
      </trkpt>
      <trkpt lat="47.411449" lon="7.832252">
        <ele>573.250288</ele>
        <time>2021-11-15T22:01:08.527Z</time>
      </trkpt>
      <trkpt lat="47.411524" lon="7.832786">
        <ele>572.197404</ele>
        <time>2021-11-15T22:01:12.168Z</time>
      </trkpt>
      <trkpt lat="47.411539" lon="7.832881">
        <ele>572.009076</ele>
        <time>2021-11-15T22:01:12.828Z</time>
      </trkpt>
      <trkpt lat="47.411675" lon="7.832923">
        <ele>571.612716</ele>
        <time>2021-11-15T22:01:14.836Z</time>
      </trkpt>
      <trkpt lat="47.411846" lon="7.833044">
        <ele>571.071847</ele>
        <time>2021-11-15T22:01:17.640Z</time>
      </trkpt>
      <trkpt lat="47.412245" lon="7.833434">
        <ele>570.139214</ele>
        <time>2021-11-15T22:01:24.742Z</time>
      </trkpt>
      <trkpt lat="47.412447" lon="7.833579">
        <ele>570.017550</ele>
        <time>2021-11-15T22:01:28.138Z</time>
      </trkpt>
      <trkpt lat="47.414261" lon="7.834648">
        <ele>570.861562</ele>
        <time>2021-11-15T22:02:09.390Z</time>
      </trkpt>
      <trkpt lat="47.414310" lon="7.834705">
        <ele>571.037402</ele>
        <time>2021-11-15T22:02:10.716Z</time>
      </trkpt>
      <trkpt lat="47.414398" lon="7.834546">
        <ele>571.429342</ele>
        <time>2021-11-15T22:02:15.959Z</time>
      </trkpt>
      <trkpt lat="47.415522" lon="7.832879">
        <ele>576.471332</ele>
        <time>2021-11-15T22:03:15.617Z</time>
      </trkpt>
      <trkpt lat="47.415738" lon="7.832680">
        <ele>577.439407</ele>
        <time>2021-11-15T22:03:23.862Z</time>
      </trkpt>
      <trkpt lat="47.415784" lon="7.832665">
        <ele>577.618566</ele>
        <time>2021-11-15T22:03:26.355Z</time>
      </trkpt>
      <trkpt lat="47.415845" lon="7.832655">
        <ele>577.851989</ele>
        <time>2021-11-15T22:03:28.909Z</time>
      </trkpt>
      <trkpt lat="47.416257" lon="7.832746">
        <ele>579.436346</ele>
        <time>2021-11-15T22:03:43.405Z</time>
      </trkpt>
      <trkpt lat="47.416481" lon="7.832685">
        <ele>580.302624</ele>
        <time>2021-11-15T22:03:50.982Z</time>
      </trkpt>
      <trkpt lat="47.417746" lon="7.831250">
        <ele>585.107100</ele>
        <time>2021-11-15T22:04:42.737Z</time>
      </trkpt>
      <trkpt lat="47.417833" lon="7.831162">
        <ele>585.410657</ele>
        <time>2021-11-15T22:04:45.818Z</time>
      </trkpt>
      <trkpt lat="47.417899" lon="7.831238">
        <ele>585.651569</ele>
        <time>2021-11-15T22:04:48.693Z</time>
      </trkpt>
      <trkpt lat="47.418136" lon="7.831437">
        <ele>586.407431</ele>
        <time>2021-11-15T22:04:56.332Z</time>
      </trkpt>
      <trkpt lat="47.418387" lon="7.831648">
        <ele>586.933606</ele>
        <time>2021-11-15T22:05:04.816Z</time>
      </trkpt>
      <trkpt lat="47.418688" lon="7.831819">
        <ele>587.521205</ele>
        <time>2021-11-15T22:05:14.192Z</time>
      </trkpt>
      <trkpt lat="47.419182" lon="7.832950">
        <ele>589.180952</ele>
        <time>2021-11-15T22:05:39.507Z</time>
      </trkpt>
      <trkpt lat="47.419764" lon="7.834108">
        <ele>589.573408</ele>
        <time>2021-11-15T22:06:01.976Z</time>
      </trkpt>
      <trkpt lat="47.419808" lon="7.834185">
        <ele>589.567641</ele>
        <time>2021-11-15T22:06:03.606Z</time>
      </trkpt>
      <trkpt lat="47.419865" lon="7.834320">
        <ele>589.558534</ele>
        <time>2021-11-15T22:06:05.492Z</time>
      </trkpt>
      <trkpt lat="47.420255" lon="7.835091">
        <ele>589.503448</ele>
        <time>2021-11-15T22:06:17.667Z</time>
      </trkpt>
      <trkpt lat="47.420353" lon="7.835315">
        <ele>589.488183</ele>
        <time>2021-11-15T22:06:20.608Z</time>
      </trkpt>
      <trkpt lat="47.420730" lon="7.835947">
        <ele>588.948737</ele>
        <time>2021-11-15T22:06:30.406Z</time>
      </trkpt>
      <trkpt lat="47.420767" lon="7.836023">
        <ele>588.881882</ele>
        <time>2021-11-15T22:06:31.312Z</time>
      </trkpt>
      <trkpt lat="47.422308" lon="7.838795">
        <ele>586.668009</ele>
        <time>2021-11-15T22:07:13.433Z</time>
      </trkpt>
      <trkpt lat="47.422369" lon="7.838922">
        <ele>586.587393</ele>
        <time>2021-11-15T22:07:15.964Z</time>
      </trkpt>
      <trkpt lat="47.422336" lon="7.839020">
        <ele>586.530732</ele>
        <time>2021-11-15T22:07:18.279Z</time>
      </trkpt>
      <trkpt lat="47.422309" lon="7.839135">
        <ele>586.467724</ele>
        <time>2021-11-15T22:07:19.753Z</time>
      </trkpt>
      <trkpt lat="47.422256" lon="7.839249">
        <ele>586.396129</ele>
        <time>2021-11-15T22:07:21.268Z</time>
      </trkpt>
      <trkpt lat="47.422043" lon="7.839821">
        <ele>585.737488</ele>
        <time>2021-11-15T22:07:28.971Z</time>
      </trkpt>
      <trkpt lat="47.421957" lon="7.840055">
        <ele>585.305832</ele>
        <time>2021-11-15T22:07:32.831Z</time>
      </trkpt>
      <trkpt lat="47.421835" lon="7.840453">
        <ele>584.597560</ele>
        <time>2021-11-15T22:07:38.139Z</time>
      </trkpt>
      <trkpt lat="47.421929" lon="7.840465">
        <ele>584.371517</ele>
        <time>2021-11-15T22:07:39.658Z</time>
      </trkpt>
      <trkpt lat="47.422290" lon="7.840513">
        <ele>583.503144</ele>
        <time>2021-11-15T22:07:45.263Z</time>
      </trkpt>
      <trkpt lat="47.422351" lon="7.840526">
        <ele>583.355489</ele>
        <time>2021-11-15T22:07:46.057Z</time>
      </trkpt>
      <trkpt lat="47.422351" lon="7.840526">
        <ele>583.355489</ele>
        <time>2021-11-15T22:07:46.071Z</time>
      </trkpt>
      <trkpt lat="47.422499" lon="7.840552">
        <ele>582.998416</ele>
        <time>2021-11-15T22:07:48.285Z</time>
      </trkpt>
      <trkpt lat="47.423032" lon="7.840729">
        <ele>581.393588</ele>
        <time>2021-11-15T22:07:56.330Z</time>
      </trkpt>
      <trkpt lat="47.423350" lon="7.840961">
        <ele>579.345224</ele>
        <time>2021-11-15T22:08:00.936Z</time>
      </trkpt>
      <trkpt lat="47.423411" lon="7.841024">
        <ele>578.915390</ele>
        <time>2021-11-15T22:08:01.815Z</time>
      </trkpt>
      <trkpt lat="47.423450" lon="7.841073">
        <ele>578.619733</ele>
        <time>2021-11-15T22:08:02.449Z</time>
      </trkpt>
      <trkpt lat="47.423524" lon="7.841186">
        <ele>578.005158</ele>
        <time>2021-11-15T22:08:04.134Z</time>
      </trkpt>
      <trkpt lat="47.423565" lon="7.841262">
        <ele>577.625298</ele>
        <time>2021-11-15T22:08:05.021Z</time>
      </trkpt>
      <trkpt lat="47.423618" lon="7.841382">
        <ele>577.065270</ele>
        <time>2021-11-15T22:08:06.165Z</time>
      </trkpt>
      <trkpt lat="47.424034" lon="7.842607">
        <ele>571.708891</ele>
        <time>2021-11-15T22:08:18.649Z</time>
      </trkpt>
      <trkpt lat="47.424114" lon="7.842747">
        <ele>570.898701</ele>
        <time>2021-11-15T22:08:20.241Z</time>
      </trkpt>
      <trkpt lat="47.424213" lon="7.842847">
        <ele>570.080238</ele>
        <time>2021-11-15T22:08:21.726Z</time>
      </trkpt>
      <trkpt lat="47.424580" lon="7.843075">
        <ele>567.362944</ele>
        <time>2021-11-15T22:08:26.912Z</time>
      </trkpt>
      <trkpt lat="47.425095" lon="7.843215">
        <ele>563.788778</ele>
        <time>2021-11-15T22:08:33.869Z</time>
      </trkpt>
      <trkpt lat="47.425236" lon="7.843253">
        <ele>562.810495</ele>
        <time>2021-11-15T22:08:35.701Z</time>
      </trkpt>
      <trkpt lat="47.425342" lon="7.843279">
        <ele>562.077082</ele>
        <time>2021-11-15T22:08:37.048Z</time>
      </trkpt>
      <trkpt lat="47.425459" lon="7.843310">
        <ele>561.265752</ele>
        <time>2021-11-15T22:08:38.532Z</time>
      </trkpt>
      <trkpt lat="47.425527" lon="7.843331">
        <ele>560.791585</ele>
        <time>2021-11-15T22:08:39.463Z</time>
      </trkpt>
      <trkpt lat="47.425659" lon="7.843366">
        <ele>559.876218</ele>
        <time>2021-11-15T22:08:41.077Z</time>
      </trkpt>
      <trkpt lat="47.425751" lon="7.843393">
        <ele>559.236000</ele>
        <time>2021-11-15T22:08:42.244Z</time>
      </trkpt>
      <trkpt lat="47.425871" lon="7.843432">
        <ele>558.267640</ele>
        <time>2021-11-15T22:08:43.896Z</time>
      </trkpt>
      <trkpt lat="47.425979" lon="7.843482">
        <ele>557.375312</ele>
        <time>2021-11-15T22:08:45.259Z</time>
      </trkpt>
      <trkpt lat="47.426320" lon="7.843715">
        <ele>554.413292</ele>
        <time>2021-11-15T22:08:49.946Z</time>
      </trkpt>
      <trkpt lat="47.426582" lon="7.844083">
        <ele>551.563606</ele>
        <time>2021-11-15T22:08:54.454Z</time>
      </trkpt>
      <trkpt lat="47.426658" lon="7.844245">
        <ele>550.512030</ele>
        <time>2021-11-15T22:08:56.104Z</time>
      </trkpt>
      <trkpt lat="47.426813" lon="7.844636">
        <ele>548.094685</ele>
        <time>2021-11-15T22:08:59.912Z</time>
      </trkpt>
      <trkpt lat="47.426915" lon="7.844919">
        <ele>546.384251</ele>
        <time>2021-11-15T22:09:02.685Z</time>
      </trkpt>
      <trkpt lat="47.426956" lon="7.845001">
        <ele>545.840356</ele>
        <time>2021-11-15T22:09:03.553Z</time>
      </trkpt>
      <trkpt lat="47.427161" lon="7.845395">
        <ele>544.021239</ele>
        <time>2021-11-15T22:09:08.079Z</time>
      </trkpt>
      <trkpt lat="47.427402" lon="7.845663">
        <ele>542.705639</ele>
        <time>2021-11-15T22:09:12.164Z</time>
      </trkpt>
      <trkpt lat="47.427688" lon="7.845804">
        <ele>541.390463</ele>
        <time>2021-11-15T22:09:16.250Z</time>
      </trkpt>
      <trkpt lat="47.428057" lon="7.845882">
        <ele>539.764406</ele>
        <time>2021-11-15T22:09:21.711Z</time>
      </trkpt>
      <trkpt lat="47.428751" lon="7.845871">
        <ele>536.636901</ele>
        <time>2021-11-15T22:09:31.978Z</time>
      </trkpt>
      <trkpt lat="47.429077" lon="7.845790">
        <ele>534.887595</ele>
        <time>2021-11-15T22:09:36.609Z</time>
      </trkpt>
      <trkpt lat="47.429914" lon="7.845225">
        <ele>530.018444</ele>
        <time>2021-11-15T22:09:48.842Z</time>
      </trkpt>
      <trkpt lat="47.430220" lon="7.845275">
        <ele>528.389310</ele>
        <time>2021-11-15T22:09:52.800Z</time>
      </trkpt>
      <trkpt lat="47.430624" lon="7.845539">
        <ele>526.144444</ele>
        <time>2021-11-15T22:09:58.465Z</time>
      </trkpt>
      <trkpt lat="47.431013" lon="7.845639">
        <ele>524.173290</ele>
        <time>2021-11-15T22:10:03.626Z</time>
      </trkpt>
      <trkpt lat="47.431567" lon="7.845688">
        <ele>521.402607</ele>
        <time>2021-11-15T22:10:11.133Z</time>
      </trkpt>
      <trkpt lat="47.432090" lon="7.845628">
        <ele>518.783780</ele>
        <time>2021-11-15T22:10:18.606Z</time>
      </trkpt>
      <trkpt lat="47.432307" lon="7.845499">
        <ele>517.627291</ele>
        <time>2021-11-15T22:10:22.145Z</time>
      </trkpt>
      <trkpt lat="47.432491" lon="7.845240">
        <ele>516.371843</ele>
        <time>2021-11-15T22:10:26.110Z</time>
      </trkpt>
      <trkpt lat="47.432686" lon="7.844763">
        <ele>514.508886</ele>
        <time>2021-11-15T22:10:32.042Z</time>
      </trkpt>
      <trkpt lat="47.433047" lon="7.843431">
        <ele>509.570603</ele>
        <time>2021-11-15T22:10:44.673Z</time>
      </trkpt>
      <trkpt lat="47.433198" lon="7.843131">
        <ele>506.681137</ele>
        <time>2021-11-15T22:10:47.778Z</time>
      </trkpt>
      <trkpt lat="47.433417" lon="7.842951">
        <ele>503.818828</ele>
        <time>2021-11-15T22:10:51.038Z</time>
      </trkpt>
      <trkpt lat="47.433454" lon="7.842940">
        <ele>503.387712</ele>
        <time>2021-11-15T22:10:51.469Z</time>
      </trkpt>
      <trkpt lat="47.433508" lon="7.842944">
        <ele>502.770092</ele>
        <time>2021-11-15T22:10:52.131Z</time>
      </trkpt>
      <trkpt lat="47.433758" lon="7.843170">
        <ele>499.422699</ele>
        <time>2021-11-15T22:10:55.694Z</time>
      </trkpt>
      <trkpt lat="47.433877" lon="7.843574">
        <ele>496.017852</ele>
        <time>2021-11-15T22:10:59.286Z</time>
      </trkpt>
      <trkpt lat="47.433880" lon="7.843726">
        <ele>494.842844</ele>
        <time>2021-11-15T22:11:00.457Z</time>
      </trkpt>
      <trkpt lat="47.433878" lon="7.843980">
        <ele>492.880045</ele>
        <time>2021-11-15T22:11:02.500Z</time>
      </trkpt>
      <trkpt lat="47.433682" lon="7.846047">
        <ele>474.662944</ele>
        <time>2021-11-15T22:11:19.044Z</time>
      </trkpt>
      <trkpt lat="47.433693" lon="7.846326">
        <ele>472.143167</ele>
        <time>2021-11-15T22:11:21.287Z</time>
      </trkpt>
      <trkpt lat="47.433829" lon="7.847163">
        <ele>464.697195</ele>
        <time>2021-11-15T22:11:28.275Z</time>
      </trkpt>
      <trkpt lat="47.433957" lon="7.847446">
        <ele>462.680573</ele>
        <time>2021-11-15T22:11:31.023Z</time>
      </trkpt>
      <trkpt lat="47.434180" lon="7.847710">
        <ele>460.178734</ele>
        <time>2021-11-15T22:11:34.497Z</time>
      </trkpt>
      <trkpt lat="47.434625" lon="7.848019">
        <ele>455.873345</ele>
        <time>2021-11-15T22:11:40.586Z</time>
      </trkpt>
      <trkpt lat="47.434893" lon="7.848197">
        <ele>453.300459</ele>
        <time>2021-11-15T22:11:44.294Z</time>
      </trkpt>
      <trkpt lat="47.435019" lon="7.848289">
        <ele>452.069818</ele>
        <time>2021-11-15T22:11:46.155Z</time>
      </trkpt>
      <trkpt lat="47.435042" lon="7.848417">
        <ele>451.285308</ele>
        <time>2021-11-15T22:11:47.366Z</time>
      </trkpt>
      <trkpt lat="47.435028" lon="7.848463">
        <ele>450.986514</ele>
        <time>2021-11-15T22:11:47.778Z</time>
      </trkpt>
      <trkpt lat="47.434989" lon="7.848471">
        <ele>450.641713</ele>
        <time>2021-11-15T22:11:48.262Z</time>
      </trkpt>
      <trkpt lat="47.434779" lon="7.848386">
        <ele>449.107200</ele>
        <time>2021-11-15T22:11:51.135Z</time>
      </trkpt>
      <trkpt lat="47.433803" lon="7.847991">
        <ele>444.292376</ele>
        <time>2021-11-15T22:12:04.723Z</time>
      </trkpt>
      <trkpt lat="47.433664" lon="7.848024">
        <ele>443.622520</ele>
        <time>2021-11-15T22:12:06.786Z</time>
      </trkpt>
      <trkpt lat="47.433556" lon="7.848240">
        <ele>442.757994</ele>
        <time>2021-11-15T22:12:09.275Z</time>
      </trkpt>
      <trkpt lat="47.433544" lon="7.848319">
        <ele>442.497391</ele>
        <time>2021-11-15T22:12:09.978Z</time>
      </trkpt>
      <trkpt lat="47.433528" lon="7.848396">
        <ele>442.238128</ele>
        <time>2021-11-15T22:12:10.796Z</time>
      </trkpt>
      <trkpt lat="47.433795" lon="7.848524">
        <ele>440.943053</ele>
        <time>2021-11-15T22:12:14.987Z</time>
      </trkpt>
      <trkpt lat="47.434500" lon="7.848920">
        <ele>438.982227</ele>
        <time>2021-11-15T22:12:26.021Z</time>
      </trkpt>
      <trkpt lat="47.436050" lon="7.850036">
        <ele>435.611707</ele>
        <time>2021-11-15T22:12:52.944Z</time>
      </trkpt>
      <trkpt lat="47.436479" lon="7.850260">
        <ele>435.153240</ele>
        <time>2021-11-15T22:13:01.144Z</time>
      </trkpt>
      <trkpt lat="47.436538" lon="7.850283">
        <ele>435.091755</ele>
        <time>2021-11-15T22:13:02.030Z</time>
      </trkpt>
      <trkpt lat="47.436557" lon="7.850181">
        <ele>435.019643</ele>
        <time>2021-11-15T22:13:03.726Z</time>
      </trkpt>
      <trkpt lat="47.436670" lon="7.850213">
        <ele>434.903705</ele>
        <time>2021-11-15T22:13:05.184Z</time>
      </trkpt>
      <trkpt lat="47.436809" lon="7.850224">
        <ele>434.763436</ele>
        <time>2021-11-15T22:13:07.072Z</time>
      </trkpt>
      <trkpt lat="47.437043" lon="7.850211">
        <ele>434.527472</ele>
        <time>2021-11-15T22:13:10.767Z</time>
      </trkpt>
      <trkpt lat="47.437212" lon="7.850178">
        <ele>434.607239</ele>
        <time>2021-11-15T22:13:13.038Z</time>
      </trkpt>
      <trkpt lat="47.437326" lon="7.850142">
        <ele>434.690433</ele>
        <time>2021-11-15T22:13:15.585Z</time>
      </trkpt>
      <trkpt lat="47.437622" lon="7.849998">
        <ele>434.912824</ele>
        <time>2021-11-15T22:13:20.802Z</time>
      </trkpt>
      <trkpt lat="47.438089" lon="7.849574">
        <ele>435.303940</ele>
        <time>2021-11-15T22:13:30.751Z</time>
      </trkpt>
      <trkpt lat="47.438227" lon="7.849403">
        <ele>435.432445</ele>
        <time>2021-11-15T22:13:34.996Z</time>
      </trkpt>
      <trkpt lat="47.438366" lon="7.849212">
        <ele>435.567876</ele>
        <time>2021-11-15T22:13:37.979Z</time>
      </trkpt>
      <trkpt lat="47.438605" lon="7.848874">
        <ele>435.786360</ele>
        <time>2021-11-15T22:13:44.329Z</time>
      </trkpt>
      <trkpt lat="47.438927" lon="7.848420">
        <ele>435.782016</ele>
        <time>2021-11-15T22:13:52.165Z</time>
      </trkpt>
      <trkpt lat="47.438961" lon="7.848371">
        <ele>435.781553</ele>
        <time>2021-11-15T22:13:53.626Z</time>
      </trkpt>
      <trkpt lat="47.440202" lon="7.846615">
        <ele>434.862045</ele>
        <time>2021-11-15T22:14:16.772Z</time>
      </trkpt>
      <trkpt lat="47.440435" lon="7.846294">
        <ele>434.199257</ele>
        <time>2021-11-15T22:14:20.196Z</time>
      </trkpt>
      <trkpt lat="47.440848" lon="7.845724">
        <ele>433.023471</ele>
        <time>2021-11-15T22:14:26.179Z</time>
      </trkpt>
      <trkpt lat="47.441172" lon="7.845276">
        <ele>432.100265</ele>
        <time>2021-11-15T22:14:30.669Z</time>
      </trkpt>
      <trkpt lat="47.442350" lon="7.843611">
        <ele>427.460285</ele>
        <time>2021-11-15T22:14:47.345Z</time>
      </trkpt>
      <trkpt lat="47.442611" lon="7.843200">
        <ele>426.433734</ele>
        <time>2021-11-15T22:14:51.549Z</time>
      </trkpt>
      <trkpt lat="47.443035" lon="7.842530">
        <ele>424.886907</ele>
        <time>2021-11-15T22:14:58.141Z</time>
      </trkpt>
      <trkpt lat="47.443546" lon="7.841569">
        <ele>422.826117</ele>
        <time>2021-11-15T22:15:06.896Z</time>
      </trkpt>
      <trkpt lat="47.443626" lon="7.841391">
        <ele>422.465835</ele>
        <time>2021-11-15T22:15:08.403Z</time>
      </trkpt>
      <trkpt lat="47.443792" lon="7.841068">
        <ele>421.653888</ele>
        <time>2021-11-15T22:15:11.308Z</time>
      </trkpt>
      <trkpt lat="47.444056" lon="7.840544">
        <ele>420.320583</ele>
        <time>2021-11-15T22:15:15.898Z</time>
      </trkpt>
      <trkpt lat="47.444912" lon="7.838914">
        <ele>416.067614</ele>
        <time>2021-11-15T22:15:29.957Z</time>
      </trkpt>
      <trkpt lat="47.445033" lon="7.838726">
        <ele>415.512032</ele>
        <time>2021-11-15T22:15:31.817Z</time>
      </trkpt>
      <trkpt lat="47.445033" lon="7.838726">
        <ele>415.512032</ele>
        <time>2021-11-15T22:15:31.822Z</time>
      </trkpt>
      <trkpt lat="47.445225" lon="7.838480">
        <ele>414.707858</ele>
        <time>2021-11-15T22:15:34.397Z</time>
      </trkpt>
      <trkpt lat="47.445517" lon="7.838127">
        <ele>413.513973</ele>
        <time>2021-11-15T22:15:38.228Z</time>
      </trkpt>
      <trkpt lat="47.445999" lon="7.837719">
        <ele>411.755948</ele>
        <time>2021-11-15T22:15:43.941Z</time>
      </trkpt>
      <trkpt lat="47.446087" lon="7.837647">
        <ele>411.437595</ele>
        <time>2021-11-15T22:15:44.900Z</time>
      </trkpt>
      <trkpt lat="47.446117" lon="7.837623">
        <ele>411.329627</ele>
        <time>2021-11-15T22:15:45.246Z</time>
      </trkpt>
      <trkpt lat="47.446198" lon="7.837551">
        <ele>411.043808</ele>
        <time>2021-11-15T22:15:46.227Z</time>
      </trkpt>
      <trkpt lat="47.446386" lon="7.837385">
        <ele>410.389226</ele>
        <time>2021-11-15T22:15:48.403Z</time>
      </trkpt>
      <trkpt lat="47.446416" lon="7.837359">
        <ele>410.285275</ele>
        <time>2021-11-15T22:15:48.772Z</time>
      </trkpt>
      <trkpt lat="47.446511" lon="7.837269">
        <ele>409.947995</ele>
        <time>2021-11-15T22:15:50.005Z</time>
      </trkpt>
      <trkpt lat="47.447115" lon="7.836735">
        <ele>407.844275</ele>
        <time>2021-11-15T22:15:57.257Z</time>
      </trkpt>
      <trkpt lat="47.447446" lon="7.836384">
        <ele>406.626647</ele>
        <time>2021-11-15T22:16:01.399Z</time>
      </trkpt>
      <trkpt lat="47.448080" lon="7.835715">
        <ele>404.606185</ele>
        <time>2021-11-15T22:16:09.448Z</time>
      </trkpt>
      <trkpt lat="47.448594" lon="7.835238">
        <ele>403.142240</ele>
        <time>2021-11-15T22:16:15.884Z</time>
      </trkpt>
      <trkpt lat="47.448956" lon="7.834983">
        <ele>402.174920</ele>
        <time>2021-11-15T22:16:20.201Z</time>
      </trkpt>
      <trkpt lat="47.449275" lon="7.834788">
        <ele>401.448362</ele>
        <time>2021-11-15T22:16:24.045Z</time>
      </trkpt>
      <trkpt lat="47.449505" lon="7.834629">
        <ele>401.142241</ele>
        <time>2021-11-15T22:16:26.963Z</time>
      </trkpt>
      <trkpt lat="47.449669" lon="7.834494">
        <ele>400.915931</ele>
        <time>2021-11-15T22:16:29.072Z</time>
      </trkpt>
      <trkpt lat="47.449811" lon="7.834354">
        <ele>400.710156</ele>
        <time>2021-11-15T22:16:31.126Z</time>
      </trkpt>
      <trkpt lat="47.450016" lon="7.834124">
        <ele>400.399896</ele>
        <time>2021-11-15T22:16:34.090Z</time>
      </trkpt>
      <trkpt lat="47.451121" lon="7.832696">
        <ele>399.201792</ele>
        <time>2021-11-15T22:16:52.580Z</time>
      </trkpt>
      <trkpt lat="47.451327" lon="7.832461">
        <ele>399.125371</ele>
        <time>2021-11-15T22:16:56.506Z</time>
      </trkpt>
      <trkpt lat="47.451426" lon="7.832356">
        <ele>399.089585</ele>
        <time>2021-11-15T22:16:58.175Z</time>
      </trkpt>
      <trkpt lat="47.451701" lon="7.832106">
        <ele>398.994766</ele>
        <time>2021-11-15T22:17:03.018Z</time>
      </trkpt>
      <trkpt lat="47.451989" lon="7.831857">
        <ele>398.896773</ele>
        <time>2021-11-15T22:17:08.164Z</time>
      </trkpt>
      <trkpt lat="47.452175" lon="7.831696">
        <ele>398.793867</ele>
        <time>2021-11-15T22:17:11.617Z</time>
      </trkpt>
      <trkpt lat="47.452373" lon="7.831505">
        <ele>398.609830</ele>
        <time>2021-11-15T22:17:14.919Z</time>
      </trkpt>
      <trkpt lat="47.452618" lon="7.831252">
        <ele>398.377199</ele>
        <time>2021-11-15T22:17:19.098Z</time>
      </trkpt>
      <trkpt lat="47.453250" lon="7.830464">
        <ele>397.733656</ele>
        <time>2021-11-15T22:17:29.300Z</time>
      </trkpt>
      <trkpt lat="47.453398" lon="7.830308">
        <ele>397.592167</ele>
        <time>2021-11-15T22:17:31.606Z</time>
      </trkpt>
      <trkpt lat="47.453492" lon="7.830220">
        <ele>397.505558</ele>
        <time>2021-11-15T22:17:32.835Z</time>
      </trkpt>
      <trkpt lat="47.453757" lon="7.829984">
        <ele>396.945023</ele>
        <time>2021-11-15T22:17:36.441Z</time>
      </trkpt>
      <trkpt lat="47.453989" lon="7.829813">
        <ele>396.408031</ele>
        <time>2021-11-15T22:17:39.195Z</time>
      </trkpt>
      <trkpt lat="47.454287" lon="7.829611">
        <ele>395.728940</ele>
        <time>2021-11-15T22:17:42.635Z</time>
      </trkpt>
      <trkpt lat="47.454472" lon="7.829506">
        <ele>395.318443</ele>
        <time>2021-11-15T22:17:44.896Z</time>
      </trkpt>
      <trkpt lat="47.454472" lon="7.829506">
        <ele>395.318443</ele>
        <time>2021-11-15T22:17:44.899Z</time>
      </trkpt>
      <trkpt lat="47.454625" lon="7.829495">
        <ele>395.001115</ele>
        <time>2021-11-15T22:17:46.456Z</time>
      </trkpt>
      <trkpt lat="47.454803" lon="7.829577">
        <ele>394.614897</ele>
        <time>2021-11-15T22:17:48.566Z</time>
      </trkpt>
      <trkpt lat="47.455119" lon="7.829864">
        <ele>393.846687</ele>
        <time>2021-11-15T22:17:52.531Z</time>
      </trkpt>
      <trkpt lat="47.455185" lon="7.829882">
        <ele>393.717142</ele>
        <time>2021-11-15T22:17:53.173Z</time>
      </trkpt>
      <trkpt lat="47.455265" lon="7.829874">
        <ele>393.618041</ele>
        <time>2021-11-15T22:17:54.002Z</time>
      </trkpt>
      <trkpt lat="47.455471" lon="7.829717">
        <ele>393.331620</ele>
        <time>2021-11-15T22:17:56.766Z</time>
      </trkpt>
      <trkpt lat="47.455556" lon="7.829615">
        <ele>393.196333</ele>
        <time>2021-11-15T22:17:57.867Z</time>
      </trkpt>
      <trkpt lat="47.455584" lon="7.829685">
        <ele>393.128365</ele>
        <time>2021-11-15T22:17:58.910Z</time>
      </trkpt>
      <trkpt lat="47.455626" lon="7.829799">
        <ele>393.019872</ele>
        <time>2021-11-15T22:18:00.457Z</time>
      </trkpt>
      <trkpt lat="47.455644" lon="7.829891">
        <ele>392.939835</ele>
        <time>2021-11-15T22:18:01.795Z</time>
      </trkpt>
      <trkpt lat="47.455667" lon="7.830016">
        <ele>392.831574</ele>
        <time>2021-11-15T22:18:03.125Z</time>
      </trkpt>
      <trkpt lat="47.455686" lon="7.830084">
        <ele>392.770087</ele>
        <time>2021-11-15T22:18:03.894Z</time>
      </trkpt>
      <trkpt lat="47.456217" lon="7.829960">
        <ele>392.105673</ele>
        <time>2021-11-15T22:18:13.313Z</time>
      </trkpt>
      <trkpt lat="47.456508" lon="7.829890">
        <ele>391.741290</ele>
        <time>2021-11-15T22:18:18.445Z</time>
      </trkpt>
      <trkpt lat="47.456847" lon="7.829841">
        <ele>391.405816</ele>
        <time>2021-11-15T22:18:25.370Z</time>
      </trkpt>
      <trkpt lat="47.457427" lon="7.829810">
        <ele>391.015010</ele>
        <time>2021-11-15T22:18:36.704Z</time>
      </trkpt>
      <trkpt lat="47.457731" lon="7.829812">
        <ele>390.810304</ele>
        <time>2021-11-15T22:18:42.173Z</time>
      </trkpt>
      <trkpt lat="47.458230" lon="7.829919">
        <ele>390.470782</ele>
        <time>2021-11-15T22:18:51.213Z</time>
      </trkpt>
      <trkpt lat="47.458385" lon="7.829959">
        <ele>390.364834</ele>
        <time>2021-11-15T22:18:53.157Z</time>
      </trkpt>
      <trkpt lat="47.458483" lon="7.830002">
        <ele>390.294732</ele>
        <time>2021-11-15T22:18:54.287Z</time>
      </trkpt>
      <trkpt lat="47.458605" lon="7.829769">
        <ele>389.992970</ele>
        <time>2021-11-15T22:18:56.579Z</time>
      </trkpt>
      <trkpt lat="47.458779" lon="7.829408">
        <ele>389.539008</ele>
        <time>2021-11-15T22:19:00.001Z</time>
      </trkpt>
      <trkpt lat="47.458992" lon="7.829105">
        <ele>389.091439</ele>
        <time>2021-11-15T22:19:03.399Z</time>
      </trkpt>
      <trkpt lat="47.459456" lon="7.828693">
        <ele>388.271821</ele>
        <time>2021-11-15T22:19:09.661Z</time>
      </trkpt>
      <trkpt lat="47.459537" lon="7.828672">
        <ele>388.147279</ele>
        <time>2021-11-15T22:19:10.507Z</time>
      </trkpt>
      <trkpt lat="47.459940" lon="7.828652">
        <ele>387.557249</ele>
        <time>2021-11-15T22:19:14.957Z</time>
      </trkpt>
      <trkpt lat="47.459989" lon="7.828660">
        <ele>387.524886</ele>
        <time>2021-11-15T22:19:15.544Z</time>
      </trkpt>
      <trkpt lat="47.460209" lon="7.828695">
        <ele>387.379631</ele>
        <time>2021-11-15T22:19:18.156Z</time>
      </trkpt>
      <trkpt lat="47.460628" lon="7.828763">
        <ele>387.102920</ele>
        <time>2021-11-15T22:19:23.135Z</time>
      </trkpt>
      <trkpt lat="47.460850" lon="7.828883">
        <ele>386.947757</ele>
        <time>2021-11-15T22:19:26.335Z</time>
      </trkpt>
      <trkpt lat="47.461473" lon="7.829886">
        <ele>386.418893</ele>
        <time>2021-11-15T22:19:39.487Z</time>
      </trkpt>
      <trkpt lat="47.461548" lon="7.829918">
        <ele>386.446687</ele>
        <time>2021-11-15T22:19:40.768Z</time>
      </trkpt>
      <trkpt lat="47.461585" lon="7.830158">
        <ele>386.505946</ele>
        <time>2021-11-15T22:19:43.532Z</time>
      </trkpt>
      <trkpt lat="47.461787" lon="7.831158">
        <ele>386.757191</ele>
        <time>2021-11-15T22:19:54.702Z</time>
      </trkpt>
      <trkpt lat="47.461918" lon="7.831668">
        <ele>386.888525</ele>
        <time>2021-11-15T22:20:00.704Z</time>
      </trkpt>
      <trkpt lat="47.462048" lon="7.832204">
        <ele>387.025607</ele>
        <time>2021-11-15T22:20:07.575Z</time>
      </trkpt>
      <trkpt lat="47.462080" lon="7.832335">
        <ele>387.094135</ele>
        <time>2021-11-15T22:20:09.204Z</time>
      </trkpt>
      <trkpt lat="47.462179" lon="7.832744">
        <ele>387.337288</ele>
        <time>2021-11-15T22:20:14.404Z</time>
      </trkpt>
      <trkpt lat="47.462217" lon="7.832953">
        <ele>387.458425</ele>
        <time>2021-11-15T22:20:17.248Z</time>
      </trkpt>
      <trkpt lat="47.462285" lon="7.833721">
        <ele>387.891955</ele>
        <time>2021-11-15T22:20:26.755Z</time>
      </trkpt>
      <trkpt lat="47.462296" lon="7.833933">
        <ele>388.010963</ele>
        <time>2021-11-15T22:20:29.703Z</time>
      </trkpt>
      <trkpt lat="47.462317" lon="7.834216">
        <ele>388.170313</ele>
        <time>2021-11-15T22:20:33.213Z</time>
      </trkpt>
      <trkpt lat="47.462357" lon="7.834782">
        <ele>388.488836</ele>
        <time>2021-11-15T22:20:39.975Z</time>
      </trkpt>
      <trkpt lat="47.462375" lon="7.834910">
        <ele>388.572316</ele>
        <time>2021-11-15T22:20:41.759Z</time>
      </trkpt>
      <trkpt lat="47.462388" lon="7.834991">
        <ele>388.630850</ele>
        <time>2021-11-15T22:20:42.789Z</time>
      </trkpt>
      <trkpt lat="47.462586" lon="7.835900">
        <ele>389.302324</ele>
        <time>2021-11-15T22:20:53.937Z</time>
      </trkpt>
      <trkpt lat="47.462666" lon="7.836201">
        <ele>389.529724</ele>
        <time>2021-11-15T22:20:58.048Z</time>
      </trkpt>
      <trkpt lat="47.462700" lon="7.836337">
        <ele>389.631674</ele>
        <time>2021-11-15T22:20:59.921Z</time>
      </trkpt>
      <trkpt lat="47.462730" lon="7.836472">
        <ele>389.731589</ele>
        <time>2021-11-15T22:21:01.643Z</time>
      </trkpt>
      <trkpt lat="47.462748" lon="7.836556">
        <ele>389.793545</ele>
        <time>2021-11-15T22:21:02.531Z</time>
      </trkpt>
      <trkpt lat="47.462851" lon="7.837404">
        <ele>390.398911</ele>
        <time>2021-11-15T22:21:15.143Z</time>
      </trkpt>
      <trkpt lat="47.462856" lon="7.837506">
        <ele>390.466600</ele>
        <time>2021-11-15T22:21:17.035Z</time>
      </trkpt>
      <trkpt lat="47.462865" lon="7.837711">
        <ele>390.602572</ele>
        <time>2021-11-15T22:21:19.443Z</time>
      </trkpt>
      <trkpt lat="47.462869" lon="7.837866">
        <ele>390.705238</ele>
        <time>2021-11-15T22:21:21.400Z</time>
      </trkpt>
      <trkpt lat="47.462871" lon="7.837954">
        <ele>390.763516</ele>
        <time>2021-11-15T22:21:22.929Z</time>
      </trkpt>
      <trkpt lat="47.462873" lon="7.838016">
        <ele>390.804600</ele>
        <time>2021-11-15T22:21:23.971Z</time>
      </trkpt>
      <trkpt lat="47.462883" lon="7.838488">
        <ele>391.117161</ele>
        <time>2021-11-15T22:21:30.105Z</time>
      </trkpt>
      <trkpt lat="47.462936" lon="7.838934">
        <ele>391.416885</ele>
        <time>2021-11-15T22:21:35.447Z</time>
      </trkpt>
      <trkpt lat="47.462967" lon="7.839047">
        <ele>391.497601</ele>
        <time>2021-11-15T22:21:37.144Z</time>
      </trkpt>
      <trkpt lat="47.462982" lon="7.839106">
        <ele>391.539322</ele>
        <time>2021-11-15T22:21:38.083Z</time>
      </trkpt>
      <trkpt lat="47.463043" lon="7.839292">
        <ele>391.676152</ele>
        <time>2021-11-15T22:21:39.899Z</time>
      </trkpt>
      <trkpt lat="47.463133" lon="7.839561">
        <ele>391.874806</ele>
        <time>2021-11-15T22:21:43.805Z</time>
      </trkpt>
      <trkpt lat="47.463287" lon="7.840028">
        <ele>392.138603</ele>
        <time>2021-11-15T22:21:49.840Z</time>
      </trkpt>
      <trkpt lat="47.463588" lon="7.840904">
        <ele>391.993032</ele>
        <time>2021-11-15T22:22:01.135Z</time>
      </trkpt>
      <trkpt lat="47.463616" lon="7.840992">
        <ele>391.978624</ele>
        <time>2021-11-15T22:22:02.213Z</time>
      </trkpt>
      <trkpt lat="47.463685" lon="7.841203">
        <ele>391.943901</ele>
        <time>2021-11-15T22:22:04.156Z</time>
      </trkpt>
      <trkpt lat="47.463874" lon="7.841863">
        <ele>391.837719</ele>
        <time>2021-11-15T22:22:10.444Z</time>
      </trkpt>
      <trkpt lat="47.463922" lon="7.842123">
        <ele>391.797792</ele>
        <time>2021-11-15T22:22:12.428Z</time>
      </trkpt>
      <trkpt lat="47.463971" lon="7.842355">
        <ele>391.761786</ele>
        <time>2021-11-15T22:22:14.992Z</time>
      </trkpt>
      <trkpt lat="47.464053" lon="7.842690">
        <ele>391.771183</ele>
        <time>2021-11-15T22:22:17.792Z</time>
      </trkpt>
      <trkpt lat="47.464075" lon="7.842774">
        <ele>391.774393</ele>
        <time>2021-11-15T22:22:18.990Z</time>
      </trkpt>
      <trkpt lat="47.464165" lon="7.843130">
        <ele>391.787936</ele>
        <time>2021-11-15T22:22:22.115Z</time>
      </trkpt>
      <trkpt lat="47.464176" lon="7.843178">
        <ele>391.789742</ele>
        <time>2021-11-15T22:22:22.600Z</time>
      </trkpt>
      <trkpt lat="47.464234" lon="7.843434">
        <ele>391.799363</ele>
        <time>2021-11-15T22:22:25.664Z</time>
      </trkpt>
      <trkpt lat="47.464354" lon="7.843960">
        <ele>391.819144</ele>
        <time>2021-11-15T22:22:31.681Z</time>
      </trkpt>
      <trkpt lat="47.464386" lon="7.844088">
        <ele>391.824007</ele>
        <time>2021-11-15T22:22:33.023Z</time>
      </trkpt>
      <trkpt lat="47.464433" lon="7.844273">
        <ele>391.831049</ele>
        <time>2021-11-15T22:22:35.507Z</time>
      </trkpt>
      <trkpt lat="47.464585" lon="7.844988">
        <ele>391.924882</ele>
        <time>2021-11-15T22:22:44.020Z</time>
      </trkpt>
      <trkpt lat="47.464737" lon="7.846119">
        <ele>392.686577</ele>
        <time>2021-11-15T22:22:58.129Z</time>
      </trkpt>
      <trkpt lat="47.464771" lon="7.847028">
        <ele>393.287929</ele>
        <time>2021-11-15T22:23:10.239Z</time>
      </trkpt>
      <trkpt lat="47.464784" lon="7.847333">
        <ele>393.489795</ele>
        <time>2021-11-15T22:23:14.219Z</time>
      </trkpt>
      <trkpt lat="47.464820" lon="7.847644">
        <ele>393.730819</ele>
        <time>2021-11-15T22:23:18.490Z</time>
      </trkpt>
      <trkpt lat="47.464850" lon="7.847870">
        <ele>393.940048</ele>
        <time>2021-11-15T22:23:21.407Z</time>
      </trkpt>
      <trkpt lat="47.464909" lon="7.848219">
        <ele>394.266856</ele>
        <time>2021-11-15T22:23:26.473Z</time>
      </trkpt>
      <trkpt lat="47.464952" lon="7.848443">
        <ele>394.478391</ele>
        <time>2021-11-15T22:23:29.661Z</time>
      </trkpt>
      <trkpt lat="47.465152" lon="7.849351">
        <ele>395.345931</ele>
        <time>2021-11-15T22:23:42.920Z</time>
      </trkpt>
      <trkpt lat="47.465348" lon="7.849875">
        <ele>395.889955</ele>
        <time>2021-11-15T22:23:51.146Z</time>
      </trkpt>
      <trkpt lat="47.465558" lon="7.850405">
        <ele>396.387313</ele>
        <time>2021-11-15T22:23:59.446Z</time>
      </trkpt>
      <trkpt lat="47.465620" lon="7.850585">
        <ele>396.544286</ele>
        <time>2021-11-15T22:24:02.049Z</time>
      </trkpt>
      <trkpt lat="47.465714" lon="7.850917">
        <ele>396.823971</ele>
        <time>2021-11-15T22:24:06.689Z</time>
      </trkpt>
      <trkpt lat="47.465829" lon="7.851383">
        <ele>397.209437</ele>
        <time>2021-11-15T22:24:13.051Z</time>
      </trkpt>
      <trkpt lat="47.465804" lon="7.851399">
        <ele>397.240746</ele>
        <time>2021-11-15T22:24:13.606Z</time>
      </trkpt>
      <trkpt lat="47.465765" lon="7.851501">
        <ele>397.331801</ele>
        <time>2021-11-15T22:24:15.086Z</time>
      </trkpt>
      <trkpt lat="47.465770" lon="7.851542">
        <ele>397.364173</ele>
        <time>2021-11-15T22:24:15.637Z</time>
      </trkpt>
      <trkpt lat="47.465781" lon="7.851575">
        <ele>397.392763</ele>
        <time>2021-11-15T22:24:16.118Z</time>
      </trkpt>
      <trkpt lat="47.465821" lon="7.851619">
        <ele>397.450057</ele>
        <time>2021-11-15T22:24:17.025Z</time>
      </trkpt>
      <trkpt lat="47.465846" lon="7.851625">
        <ele>397.479168</ele>
        <time>2021-11-15T22:24:17.505Z</time>
      </trkpt>
      <trkpt lat="47.465871" lon="7.851620">
        <ele>397.508164</ele>
        <time>2021-11-15T22:24:17.957Z</time>
      </trkpt>
      <trkpt lat="47.465906" lon="7.851776">
        <ele>397.635881</ele>
        <time>2021-11-15T22:24:20.182Z</time>
      </trkpt>
      <trkpt lat="47.466256" lon="7.853287">
        <ele>399.075704</ele>
        <time>2021-11-15T22:24:41.337Z</time>
      </trkpt>
      <trkpt lat="47.466331" lon="7.853936">
        <ele>399.717431</ele>
        <time>2021-11-15T22:24:50.863Z</time>
      </trkpt>
      <trkpt lat="47.466338" lon="7.854554">
        <ele>400.319852</ele>
        <time>2021-11-15T22:24:59.431Z</time>
      </trkpt>
      <trkpt lat="47.466332" lon="7.854775">
        <ele>400.535424</ele>
        <time>2021-11-15T22:25:02.607Z</time>
      </trkpt>
      <trkpt lat="47.466324" lon="7.855062">
        <ele>400.828434</ele>
        <time>2021-11-15T22:25:06.871Z</time>
      </trkpt>
      <trkpt lat="47.466298" lon="7.855895">
        <ele>401.724961</ele>
        <time>2021-11-15T22:25:19.050Z</time>
      </trkpt>
      <trkpt lat="47.466295" lon="7.856234">
        <ele>402.089457</ele>
        <time>2021-11-15T22:25:24.284Z</time>
      </trkpt>
      <trkpt lat="47.466298" lon="7.856354">
        <ele>402.218559</ele>
        <time>2021-11-15T22:25:25.961Z</time>
      </trkpt>
      <trkpt lat="47.466271" lon="7.856363">
        <ele>402.262576</ele>
        <time>2021-11-15T22:25:26.563Z</time>
      </trkpt>
      <trkpt lat="47.466237" lon="7.856421">
        <ele>402.345112</ele>
        <time>2021-11-15T22:25:27.599Z</time>
      </trkpt>
      <trkpt lat="47.466235" lon="7.856461">
        <ele>402.388234</ele>
        <time>2021-11-15T22:25:28.116Z</time>
      </trkpt>
      <trkpt lat="47.466243" lon="7.856497">
        <ele>402.428976</ele>
        <time>2021-11-15T22:25:28.759Z</time>
      </trkpt>
      <trkpt lat="47.466284" lon="7.856540">
        <ele>402.508906</ele>
        <time>2021-11-15T22:25:29.912Z</time>
      </trkpt>
      <trkpt lat="47.466310" lon="7.856541">
        <ele>402.550269</ele>
        <time>2021-11-15T22:25:30.455Z</time>
      </trkpt>
      <trkpt lat="47.466322" lon="7.856655">
        <ele>402.674310</ele>
        <time>2021-11-15T22:25:32.229Z</time>
      </trkpt>
      <trkpt lat="47.466344" lon="7.856945">
        <ele>402.988051</ele>
        <time>2021-11-15T22:25:36.004Z</time>
      </trkpt>
      <trkpt lat="47.466347" lon="7.856973">
        <ele>403.018530</ele>
        <time>2021-11-15T22:25:36.672Z</time>
      </trkpt>
      <trkpt lat="47.466518" lon="7.858022">
        <ele>403.965715</ele>
        <time>2021-11-15T22:25:51.275Z</time>
      </trkpt>
      <trkpt lat="47.466576" lon="7.858236">
        <ele>404.129722</ele>
        <time>2021-11-15T22:25:54.197Z</time>
      </trkpt>
      <trkpt lat="47.466673" lon="7.858620">
        <ele>404.421328</ele>
        <time>2021-11-15T22:26:00.832Z</time>
      </trkpt>
      <trkpt lat="47.466824" lon="7.859137">
        <ele>404.821952</ele>
        <time>2021-11-15T22:26:10.191Z</time>
      </trkpt>
      <trkpt lat="47.466922" lon="7.859398">
        <ele>405.034330</ele>
        <time>2021-11-15T22:26:14.739Z</time>
      </trkpt>
      <trkpt lat="47.467047" lon="7.859682">
        <ele>405.275398</ele>
        <time>2021-11-15T22:26:20.334Z</time>
      </trkpt>
      <trkpt lat="47.467266" lon="7.860107">
        <ele>405.651534</ele>
        <time>2021-11-15T22:26:29.189Z</time>
      </trkpt>
      <trkpt lat="47.467944" lon="7.861300">
        <ele>406.739445</ele>
        <time>2021-11-15T22:26:53.907Z</time>
      </trkpt>
      <trkpt lat="47.468224" lon="7.861805">
        <ele>407.195341</ele>
        <time>2021-11-15T22:27:05.224Z</time>
      </trkpt>
      <trkpt lat="47.468543" lon="7.862357">
        <ele>407.973165</ele>
        <time>2021-11-15T22:27:17.912Z</time>
      </trkpt>
      <trkpt lat="47.468825" lon="7.862900">
        <ele>408.772358</ele>
        <time>2021-11-15T22:27:30.556Z</time>
      </trkpt>
      <trkpt lat="47.468859" lon="7.862978">
        <ele>408.880680</ele>
        <time>2021-11-15T22:27:32.356Z</time>
      </trkpt>
      <trkpt lat="47.468943" lon="7.863195">
        <ele>409.172534</ele>
        <time>2021-11-15T22:27:36.858Z</time>
      </trkpt>
      <trkpt lat="47.468986" lon="7.863323">
        <ele>409.339358</ele>
        <time>2021-11-15T22:27:39.526Z</time>
      </trkpt>
      <trkpt lat="47.469011" lon="7.863405">
        <ele>409.444346</ele>
        <time>2021-11-15T22:27:41.663Z</time>
      </trkpt>
      <trkpt lat="47.469305" lon="7.864692">
        <ele>410.938804</ele>
        <time>2021-11-15T22:28:06.816Z</time>
      </trkpt>
      <trkpt lat="47.469629" lon="7.865918">
        <ele>412.251345</ele>
        <time>2021-11-15T22:28:30.831Z</time>
      </trkpt>
      <trkpt lat="47.469710" lon="7.866208">
        <ele>412.564214</ele>
        <time>2021-11-15T22:28:35.811Z</time>
      </trkpt>
      <trkpt lat="47.469764" lon="7.866452">
        <ele>412.820211</ele>
        <time>2021-11-15T22:28:40.112Z</time>
      </trkpt>
      <trkpt lat="47.469808" lon="7.866690">
        <ele>413.061638</ele>
        <time>2021-11-15T22:28:43.967Z</time>
      </trkpt>
      <trkpt lat="47.469915" lon="7.867494">
        <ele>413.439787</ele>
        <time>2021-11-15T22:28:57.131Z</time>
      </trkpt>
      <trkpt lat="47.470127" lon="7.868484">
        <ele>413.919023</ele>
        <time>2021-11-15T22:29:12.527Z</time>
      </trkpt>
      <trkpt lat="47.470234" lon="7.868884">
        <ele>414.117541</ele>
        <time>2021-11-15T22:29:18.953Z</time>
      </trkpt>
      <trkpt lat="47.470309" lon="7.869201">
        <ele>414.272529</ele>
        <time>2021-11-15T22:29:24.323Z</time>
      </trkpt>
      <trkpt lat="47.470378" lon="7.869626">
        <ele>414.655127</ele>
        <time>2021-11-15T22:29:31.091Z</time>
      </trkpt>
      <trkpt lat="47.470397" lon="7.870147">
        <ele>415.126773</ele>
        <time>2021-11-15T22:29:39.824Z</time>
      </trkpt>
      <trkpt lat="47.470379" lon="7.870338">
        <ele>415.301099</ele>
        <time>2021-11-15T22:29:43.371Z</time>
      </trkpt>
      <trkpt lat="47.470350" lon="7.870570">
        <ele>415.514372</ele>
        <time>2021-11-15T22:29:46.290Z</time>
      </trkpt>
      <trkpt lat="47.470333" lon="7.870669">
        <ele>415.606707</ele>
        <time>2021-11-15T22:29:47.759Z</time>
      </trkpt>
      <trkpt lat="47.470316" lon="7.870753">
        <ele>415.685969</ele>
        <time>2021-11-15T22:29:49.269Z</time>
      </trkpt>
      <trkpt lat="47.470245" lon="7.871088">
        <ele>416.003331</ele>
        <time>2021-11-15T22:29:53.784Z</time>
      </trkpt>
      <trkpt lat="47.470217" lon="7.871214">
        <ele>416.123227</ele>
        <time>2021-11-15T22:29:55.813Z</time>
      </trkpt>
      <trkpt lat="47.470156" lon="7.871491">
        <ele>416.386576</ele>
        <time>2021-11-15T22:30:00.276Z</time>
      </trkpt>
      <trkpt lat="47.469969" lon="7.872276">
        <ele>417.308880</ele>
        <time>2021-11-15T22:30:12.632Z</time>
      </trkpt>
      <trkpt lat="47.469710" lon="7.873249">
        <ele>418.612626</ele>
        <time>2021-11-15T22:30:27.880Z</time>
      </trkpt>
      <trkpt lat="47.469682" lon="7.873326">
        <ele>418.721634</ele>
        <time>2021-11-15T22:30:29.657Z</time>
      </trkpt>
      <trkpt lat="47.469626" lon="7.873477">
        <ele>418.936364</ele>
        <time>2021-11-15T22:30:32.095Z</time>
      </trkpt>
      <trkpt lat="47.469489" lon="7.873809">
        <ele>419.421313</ele>
        <time>2021-11-15T22:30:38.124Z</time>
      </trkpt>
      <trkpt lat="47.469422" lon="7.873965">
        <ele>419.651742</ele>
        <time>2021-11-15T22:30:40.726Z</time>
      </trkpt>
      <trkpt lat="47.469224" lon="7.874328">
        <ele>420.363897</ele>
        <time>2021-11-15T22:30:48.003Z</time>
      </trkpt>
      <trkpt lat="47.469173" lon="7.874432">
        <ele>420.617044</ele>
        <time>2021-11-15T22:30:49.687Z</time>
      </trkpt>
      <trkpt lat="47.469136" lon="7.874516">
        <ele>420.814582</ele>
        <time>2021-11-15T22:30:51.181Z</time>
      </trkpt>
      <trkpt lat="47.469097" lon="7.874606">
        <ele>421.025212</ele>
        <time>2021-11-15T22:30:53.026Z</time>
      </trkpt>
      <trkpt lat="47.469068" lon="7.874689">
        <ele>421.209297</ele>
        <time>2021-11-15T22:30:54.872Z</time>
      </trkpt>
      <trkpt lat="47.469050" lon="7.874738">
        <ele>421.319175</ele>
        <time>2021-11-15T22:30:55.617Z</time>
      </trkpt>
      <trkpt lat="47.468989" lon="7.874967">
        <ele>421.804134</ele>
        <time>2021-11-15T22:30:59.217Z</time>
      </trkpt>
      <trkpt lat="47.468925" lon="7.875205">
        <ele>422.308800</ele>
        <time>2021-11-15T22:31:03.700Z</time>
      </trkpt>
      <trkpt lat="47.468806" lon="7.875696">
        <ele>423.336506</ele>
        <time>2021-11-15T22:31:11.539Z</time>
      </trkpt>
      <trkpt lat="47.468698" lon="7.876140">
        <ele>424.266223</ele>
        <time>2021-11-15T22:31:19.994Z</time>
      </trkpt>
      <trkpt lat="47.468639" lon="7.876439">
        <ele>424.879925</ele>
        <time>2021-11-15T22:31:26.107Z</time>
      </trkpt>
      <trkpt lat="47.468557" lon="7.876917">
        <ele>426.771228</ele>
        <time>2021-11-15T22:31:37.016Z</time>
      </trkpt>
      <trkpt lat="47.468377" lon="7.877826">
        <ele>431.493400</ele>
        <time>2021-11-15T22:32:06.721Z</time>
      </trkpt>
      <trkpt lat="47.468327" lon="7.877957">
        <ele>432.243401</ele>
        <time>2021-11-15T22:32:12.111Z</time>
      </trkpt>
      <trkpt lat="47.468308" lon="7.877998">
        <ele>432.491221</ele>
        <time>2021-11-15T22:32:15.286Z</time>
      </trkpt>
      <trkpt lat="47.468268" lon="7.878083">
        <ele>433.007552</ele>
        <time>2021-11-15T22:32:18.062Z</time>
      </trkpt>
      <trkpt lat="47.468104" lon="7.878354">
        <ele>434.820893</ele>
        <time>2021-11-15T22:32:28.665Z</time>
      </trkpt>
      <trkpt lat="47.468067" lon="7.878427">
        <ele>435.275767</ele>
        <time>2021-11-15T22:32:33.714Z</time>
      </trkpt>
      <trkpt lat="47.467908" lon="7.878819">
        <ele>437.554870</ele>
        <time>2021-11-15T22:32:46.890Z</time>
      </trkpt>
      <trkpt lat="47.467814" lon="7.879126">
        <ele>438.980199</ele>
        <time>2021-11-15T22:32:57.271Z</time>
      </trkpt>
      <trkpt lat="47.467758" lon="7.879308">
        <ele>439.624016</ele>
        <time>2021-11-15T22:33:04.388Z</time>
      </trkpt>
      <trkpt lat="47.467695" lon="7.879712">
        <ele>440.958910</ele>
        <time>2021-11-15T22:33:17.183Z</time>
      </trkpt>
      <trkpt lat="47.467712" lon="7.880819">
        <ele>444.523972</ele>
        <time>2021-11-15T22:33:45.999Z</time>
      </trkpt>
      <trkpt lat="47.467755" lon="7.881902">
        <ele>446.615233</ele>
        <time>2021-11-15T22:34:00.297Z</time>
      </trkpt>
      <trkpt lat="47.467789" lon="7.882188">
        <ele>446.148518</ele>
        <time>2021-11-15T22:34:02.483Z</time>
      </trkpt>
      <trkpt lat="47.467832" lon="7.882502">
        <ele>445.633604</ele>
        <time>2021-11-15T22:34:04.788Z</time>
      </trkpt>
      <trkpt lat="47.467854" lon="7.882590">
        <ele>445.482808</ele>
        <time>2021-11-15T22:34:05.380Z</time>
      </trkpt>
      <trkpt lat="47.468085" lon="7.883534">
        <ele>443.869265</ele>
        <time>2021-11-15T22:34:12.164Z</time>
      </trkpt>
      <trkpt lat="47.468175" lon="7.884477">
        <ele>442.408692</ele>
        <time>2021-11-15T22:34:18.503Z</time>
      </trkpt>
      <trkpt lat="47.468170" lon="7.884753">
        <ele>442.031504</ele>
        <time>2021-11-15T22:34:20.306Z</time>
      </trkpt>
      <trkpt lat="47.468160" lon="7.885131">
        <ele>441.514710</ele>
        <time>2021-11-15T22:34:23.130Z</time>
      </trkpt>
      <trkpt lat="47.468160" lon="7.885412">
        <ele>441.130826</ele>
        <time>2021-11-15T22:34:25.182Z</time>
      </trkpt>
      <trkpt lat="47.468174" lon="7.885724">
        <ele>440.703655</ele>
        <time>2021-11-15T22:34:27.478Z</time>
      </trkpt>
      <trkpt lat="47.468250" lon="7.886308">
        <ele>439.891184</ele>
        <time>2021-11-15T22:34:31.959Z</time>
      </trkpt>
      <trkpt lat="47.468546" lon="7.888014">
        <ele>439.416733</ele>
        <time>2021-11-15T22:34:49.039Z</time>
      </trkpt>
      <trkpt lat="47.468718" lon="7.888938">
        <ele>439.607788</ele>
        <time>2021-11-15T22:35:00.386Z</time>
      </trkpt>
      <trkpt lat="47.468951" lon="7.890216">
        <ele>440.318981</ele>
        <time>2021-11-15T22:35:17.367Z</time>
      </trkpt>
      <trkpt lat="47.469288" lon="7.891996">
        <ele>441.644822</ele>
        <time>2021-11-15T22:35:41.579Z</time>
      </trkpt>
      <trkpt lat="47.469496" lon="7.893085">
        <ele>442.213458</ele>
        <time>2021-11-15T22:35:55.645Z</time>
      </trkpt>
      <trkpt lat="47.469658" lon="7.894567">
        <ele>442.973432</ele>
        <time>2021-11-15T22:36:13.108Z</time>
      </trkpt>
      <trkpt lat="47.469691" lon="7.894970">
        <ele>443.328303</ele>
        <time>2021-11-15T22:36:17.671Z</time>
      </trkpt>
      <trkpt lat="47.469714" lon="7.895204">
        <ele>443.535012</ele>
        <time>2021-11-15T22:36:20.320Z</time>
      </trkpt>
      <trkpt lat="47.469728" lon="7.895384">
        <ele>443.693403</ele>
        <time>2021-11-15T22:36:22.323Z</time>
      </trkpt>
      <trkpt lat="47.469734" lon="7.895575">
        <ele>443.860552</ele>
        <time>2021-11-15T22:36:24.724Z</time>
      </trkpt>
      <trkpt lat="47.469747" lon="7.895922">
        <ele>444.164358</ele>
        <time>2021-11-15T22:36:28.787Z</time>
      </trkpt>
      <trkpt lat="47.469738" lon="7.896220">
        <ele>444.425124</ele>
        <time>2021-11-15T22:36:33.268Z</time>
      </trkpt>
      <trkpt lat="47.469692" lon="7.896826">
        <ele>444.958207</ele>
        <time>2021-11-15T22:36:42.413Z</time>
      </trkpt>
      <trkpt lat="47.469678" lon="7.896938">
        <ele>445.057776</ele>
        <time>2021-11-15T22:36:43.977Z</time>
      </trkpt>
      <trkpt lat="47.469652" lon="7.897139">
        <ele>445.236674</ele>
        <time>2021-11-15T22:36:47.392Z</time>
      </trkpt>
      <trkpt lat="47.469598" lon="7.897405">
        <ele>445.861149</ele>
        <time>2021-11-15T22:36:51.870Z</time>
      </trkpt>
      <trkpt lat="47.469534" lon="7.897638">
        <ele>446.515311</ele>
        <time>2021-11-15T22:36:56.139Z</time>
      </trkpt>
      <trkpt lat="47.469806" lon="7.897795">
        <ele>447.638755</ele>
        <time>2021-11-15T22:37:03.385Z</time>
      </trkpt>
      <trkpt lat="47.469999" lon="7.897879">
        <ele>448.412851</ele>
        <time>2021-11-15T22:37:09.058Z</time>
      </trkpt>
      <trkpt lat="47.471002" lon="7.898222">
        <ele>452.436328</ele>
        <time>2021-11-15T22:37:44.189Z</time>
      </trkpt>
      <trkpt lat="47.471597" lon="7.898344">
        <ele>455.611393</ele>
        <time>2021-11-15T22:38:06.297Z</time>
      </trkpt>
      <trkpt lat="47.471825" lon="7.898370">
        <ele>456.820111</ele>
        <time>2021-11-15T22:38:14.254Z</time>
      </trkpt>
      <trkpt lat="47.471910" lon="7.898392">
        <ele>457.276221</ele>
        <time>2021-11-15T22:38:17.637Z</time>
      </trkpt>
      <trkpt lat="47.473317" lon="7.898945">
        <ele>464.669778</ele>
        <time>2021-11-15T22:39:10.279Z</time>
      </trkpt>
      <trkpt lat="47.473931" lon="7.899567">
        <ele>468.239120</ele>
        <time>2021-11-15T22:39:33.552Z</time>
      </trkpt>
      <trkpt lat="47.474087" lon="7.899774">
        <ele>469.244253</ele>
        <time>2021-11-15T22:39:41.072Z</time>
      </trkpt>
      <trkpt lat="47.474186" lon="7.899915">
        <ele>469.903391</ele>
        <time>2021-11-15T22:39:45.729Z</time>
      </trkpt>
      <trkpt lat="47.474336" lon="7.900125">
        <ele>470.955987</ele>
        <time>2021-11-15T22:39:53.008Z</time>
      </trkpt>
      <trkpt lat="47.474617" lon="7.900560">
        <ele>473.125841</ele>
        <time>2021-11-15T22:40:07.116Z</time>
      </trkpt>
      <trkpt lat="47.474888" lon="7.900841">
        <ele>474.891411</ele>
        <time>2021-11-15T22:40:18.443Z</time>
      </trkpt>
      <trkpt lat="47.475163" lon="7.901034">
        <ele>476.515286</ele>
        <time>2021-11-15T22:40:29.420Z</time>
      </trkpt>
      <trkpt lat="47.475300" lon="7.901112">
        <ele>477.298456</ele>
        <time>2021-11-15T22:40:35.432Z</time>
      </trkpt>
      <trkpt lat="47.476364" lon="7.901870">
        <ele>484.170398</ele>
        <time>2021-11-15T22:41:20.097Z</time>
      </trkpt>
      <trkpt lat="47.476536" lon="7.901977">
        <ele>485.321250</ele>
        <time>2021-11-15T22:41:27.757Z</time>
      </trkpt>
      <trkpt lat="47.476982" lon="7.902234">
        <ele>488.273431</ele>
        <time>2021-11-15T22:41:46.731Z</time>
      </trkpt>
      <trkpt lat="47.478118" lon="7.903075">
        <ele>495.946958</ele>
        <time>2021-11-15T22:42:39.376Z</time>
      </trkpt>
      <trkpt lat="47.478182" lon="7.903109">
        <ele>496.353044</ele>
        <time>2021-11-15T22:42:42.715Z</time>
      </trkpt>
      <trkpt lat="47.478367" lon="7.903166">
        <ele>497.481529</ele>
        <time>2021-11-15T22:42:49.785Z</time>
      </trkpt>
      <trkpt lat="47.480980" lon="7.903461">
        <ele>511.784087</ele>
        <time>2021-11-15T22:44:22.241Z</time>
      </trkpt>
      <trkpt lat="47.481478" lon="7.903693">
        <ele>515.271511</ele>
        <time>2021-11-15T22:44:41.813Z</time>
      </trkpt>
      <trkpt lat="47.481588" lon="7.903776">
        <ele>516.096288</ele>
        <time>2021-11-15T22:44:46.659Z</time>
      </trkpt>
      <trkpt lat="47.481709" lon="7.903892">
        <ele>517.059333</ele>
        <time>2021-11-15T22:44:53.009Z</time>
      </trkpt>
      <trkpt lat="47.482157" lon="7.904346">
        <ele>520.686337</ele>
        <time>2021-11-15T22:45:17.154Z</time>
      </trkpt>
      <trkpt lat="47.482433" lon="7.904538">
        <ele>522.723486</ele>
        <time>2021-11-15T22:45:31.116Z</time>
      </trkpt>
      <trkpt lat="47.483101" lon="7.904680">
        <ele>525.911759</ele>
        <time>2021-11-15T22:46:02.216Z</time>
      </trkpt>
      <trkpt lat="47.483329" lon="7.904705">
        <ele>526.950220</ele>
        <time>2021-11-15T22:46:10.635Z</time>
      </trkpt>
      <trkpt lat="47.483385" lon="7.904708">
        <ele>527.204749</ele>
        <time>2021-11-15T22:46:13.015Z</time>
      </trkpt>
      <trkpt lat="47.484005" lon="7.904793">
        <ele>530.032974</ele>
        <time>2021-11-15T22:46:29.242Z</time>
      </trkpt>
      <trkpt lat="47.484064" lon="7.904808">
        <ele>530.304890</ele>
        <time>2021-11-15T22:46:30.338Z</time>
      </trkpt>
      <trkpt lat="47.484124" lon="7.904824">
        <ele>530.581812</ele>
        <time>2021-11-15T22:46:31.731Z</time>
      </trkpt>
      <trkpt lat="47.484248" lon="7.904856">
        <ele>531.153546</ele>
        <time>2021-11-15T22:46:34.290Z</time>
      </trkpt>
      <trkpt lat="47.484481" lon="7.904947">
        <ele>530.724700</ele>
        <time>2021-11-15T22:46:38.659Z</time>
      </trkpt>
      <trkpt lat="47.484713" lon="7.905133">
        <ele>530.042184</ele>
        <time>2021-11-15T22:46:43.281Z</time>
      </trkpt>
      <trkpt lat="47.484936" lon="7.905289">
        <ele>529.404157</ele>
        <time>2021-11-15T22:46:45.992Z</time>
      </trkpt>
      <trkpt lat="47.485049" lon="7.905336">
        <ele>529.100541</ele>
        <time>2021-11-15T22:46:47.298Z</time>
      </trkpt>
      <trkpt lat="47.485073" lon="7.905345">
        <ele>529.036499</ele>
        <time>2021-11-15T22:46:47.508Z</time>
      </trkpt>
      <trkpt lat="47.485331" lon="7.905337">
        <ele>528.369002</ele>
        <time>2021-11-15T22:46:50.195Z</time>
      </trkpt>
      <trkpt lat="47.485593" lon="7.905145">
        <ele>527.612755</ele>
        <time>2021-11-15T22:46:53.102Z</time>
      </trkpt>
      <trkpt lat="47.486049" lon="7.904262">
        <ele>524.375314</ele>
        <time>2021-11-15T22:46:59.959Z</time>
      </trkpt>
      <trkpt lat="47.486247" lon="7.904043">
        <ele>522.868779</ele>
        <time>2021-11-15T22:47:02.150Z</time>
      </trkpt>
      <trkpt lat="47.486480" lon="7.904016">
        <ele>521.444416</ele>
        <time>2021-11-15T22:47:04.317Z</time>
      </trkpt>
      <trkpt lat="47.486688" lon="7.904238">
        <ele>519.881446</ele>
        <time>2021-11-15T22:47:06.729Z</time>
      </trkpt>
      <trkpt lat="47.486721" lon="7.904326">
        <ele>519.466962</ele>
        <time>2021-11-15T22:47:07.332Z</time>
      </trkpt>
      <trkpt lat="47.486755" lon="7.904487">
        <ele>518.772273</ele>
        <time>2021-11-15T22:47:08.351Z</time>
      </trkpt>
      <trkpt lat="47.486724" lon="7.905485">
        <ele>514.956104</ele>
        <time>2021-11-15T22:47:14.514Z</time>
      </trkpt>
      <trkpt lat="47.486769" lon="7.905976">
        <ele>513.520967</ele>
        <time>2021-11-15T22:47:17.601Z</time>
      </trkpt>
      <trkpt lat="47.486969" lon="7.906583">
        <ele>511.565025</ele>
        <time>2021-11-15T22:47:21.893Z</time>
      </trkpt>
      <trkpt lat="47.487197" lon="7.906946">
        <ele>510.129628</ele>
        <time>2021-11-15T22:47:25.444Z</time>
      </trkpt>
      <trkpt lat="47.487378" lon="7.907191">
        <ele>509.078261</ele>
        <time>2021-11-15T22:47:28.022Z</time>
      </trkpt>
      <trkpt lat="47.487587" lon="7.907459">
        <ele>507.908333</ele>
        <time>2021-11-15T22:47:30.892Z</time>
      </trkpt>
      <trkpt lat="47.487763" lon="7.907711">
        <ele>507.122773</ele>
        <time>2021-11-15T22:47:33.411Z</time>
      </trkpt>
      <trkpt lat="47.488080" lon="7.908344">
        <ele>505.414962</ele>
        <time>2021-11-15T22:47:38.770Z</time>
      </trkpt>
      <trkpt lat="47.488185" lon="7.908663">
        <ele>504.645831</ele>
        <time>2021-11-15T22:47:41.301Z</time>
      </trkpt>
      <trkpt lat="47.488241" lon="7.908835">
        <ele>504.231987</ele>
        <time>2021-11-15T22:47:42.558Z</time>
      </trkpt>
      <trkpt lat="47.488366" lon="7.909318">
        <ele>503.110886</ele>
        <time>2021-11-15T22:47:46.162Z</time>
      </trkpt>
      <trkpt lat="47.488699" lon="7.910498">
        <ele>499.840927</ele>
        <time>2021-11-15T22:47:54.684Z</time>
      </trkpt>
      <trkpt lat="47.488908" lon="7.911009">
        <ele>498.196741</ele>
        <time>2021-11-15T22:47:58.520Z</time>
      </trkpt>
      <trkpt lat="47.489040" lon="7.911300">
        <ele>497.231986</ele>
        <time>2021-11-15T22:48:00.731Z</time>
      </trkpt>
      <trkpt lat="47.489216" lon="7.911685">
        <ele>495.952495</ele>
        <time>2021-11-15T22:48:03.821Z</time>
      </trkpt>
      <trkpt lat="47.489607" lon="7.912646">
        <ele>493.519864</ele>
        <time>2021-11-15T22:48:11.334Z</time>
      </trkpt>
      <trkpt lat="47.489843" lon="7.913398">
        <ele>491.987808</ele>
        <time>2021-11-15T22:48:17.206Z</time>
      </trkpt>
      <trkpt lat="47.489922" lon="7.913738">
        <ele>491.323472</ele>
        <time>2021-11-15T22:48:19.916Z</time>
      </trkpt>
      <trkpt lat="47.489951" lon="7.913893">
        <ele>491.026296</ele>
        <time>2021-11-15T22:48:21.109Z</time>
      </trkpt>
      <trkpt lat="47.489987" lon="7.914083">
        <ele>490.661684</ele>
        <time>2021-11-15T22:48:22.581Z</time>
      </trkpt>
      <trkpt lat="47.490283" lon="7.915612">
        <ele>487.904634</ele>
        <time>2021-11-15T22:48:34.124Z</time>
      </trkpt>
      <trkpt lat="47.490429" lon="7.916164">
        <ele>486.899173</ele>
        <time>2021-11-15T22:48:38.371Z</time>
      </trkpt>
      <trkpt lat="47.490607" lon="7.916690">
        <ele>485.901356</ele>
        <time>2021-11-15T22:48:42.580Z</time>
      </trkpt>
      <trkpt lat="47.490822" lon="7.917158">
        <ele>484.677311</ele>
        <time>2021-11-15T22:48:46.497Z</time>
      </trkpt>
      <trkpt lat="47.491324" lon="7.917985">
        <ele>481.760274</ele>
        <time>2021-11-15T22:48:53.948Z</time>
      </trkpt>
      <trkpt lat="47.492227" lon="7.918989">
        <ele>477.141339</ele>
        <time>2021-11-15T22:49:04.799Z</time>
      </trkpt>
      <trkpt lat="47.492584" lon="7.919482">
        <ele>474.830532</ele>
        <time>2021-11-15T22:49:09.405Z</time>
      </trkpt>
      <trkpt lat="47.492813" lon="7.919900">
        <ele>473.109727</ele>
        <time>2021-11-15T22:49:12.831Z</time>
      </trkpt>
      <trkpt lat="47.493132" lon="7.920716">
        <ele>470.095132</ele>
        <time>2021-11-15T22:49:18.886Z</time>
      </trkpt>
      <trkpt lat="47.493236" lon="7.921091">
        <ele>469.016906</ele>
        <time>2021-11-15T22:49:21.511Z</time>
      </trkpt>
      <trkpt lat="47.493307" lon="7.921373">
        <ele>468.240459</ele>
        <time>2021-11-15T22:49:23.487Z</time>
      </trkpt>
      <trkpt lat="47.493397" lon="7.921760">
        <ele>467.184489</ele>
        <time>2021-11-15T22:49:26.192Z</time>
      </trkpt>
      <trkpt lat="47.493708" lon="7.923049">
        <ele>463.653140</ele>
        <time>2021-11-15T22:49:35.381Z</time>
      </trkpt>
      <trkpt lat="47.494034" lon="7.924101">
        <ele>460.914875</ele>
        <time>2021-11-15T22:49:43.321Z</time>
      </trkpt>
      <trkpt lat="47.494438" lon="7.925289">
        <ele>457.838880</ele>
        <time>2021-11-15T22:49:52.399Z</time>
      </trkpt>
      <trkpt lat="47.494515" lon="7.925509">
        <ele>457.265851</ele>
        <time>2021-11-15T22:49:54.010Z</time>
      </trkpt>
      <trkpt lat="47.494945" lon="7.926765">
        <ele>453.658570</ele>
        <time>2021-11-15T22:50:03.391Z</time>
      </trkpt>
      <trkpt lat="47.495031" lon="7.927006">
        <ele>452.951803</ele>
        <time>2021-11-15T22:50:05.111Z</time>
      </trkpt>
      <trkpt lat="47.495268" lon="7.927740">
        <ele>450.842229</ele>
        <time>2021-11-15T22:50:10.482Z</time>
      </trkpt>
      <trkpt lat="47.495455" lon="7.928595">
        <ele>449.048279</ele>
        <time>2021-11-15T22:50:16.615Z</time>
      </trkpt>
      <trkpt lat="47.495530" lon="7.929063">
        <ele>448.250812</ele>
        <time>2021-11-15T22:50:19.923Z</time>
      </trkpt>
      <trkpt lat="47.495562" lon="7.929221">
        <ele>447.977334</ele>
        <time>2021-11-15T22:50:21.168Z</time>
      </trkpt>
      <trkpt lat="47.495622" lon="7.929400">
        <ele>447.646039</ele>
        <time>2021-11-15T22:50:22.676Z</time>
      </trkpt>
      <trkpt lat="47.495801" lon="7.929891">
        <ele>446.721024</ele>
        <time>2021-11-15T22:50:26.815Z</time>
      </trkpt>
      <trkpt lat="47.495985" lon="7.930428">
        <ele>445.722743</ele>
        <time>2021-11-15T22:50:31.207Z</time>
      </trkpt>
      <trkpt lat="47.496051" lon="7.930607">
        <ele>445.469369</ele>
        <time>2021-11-15T22:50:32.798Z</time>
      </trkpt>
      <trkpt lat="47.496117" lon="7.930763">
        <ele>445.292804</ele>
        <time>2021-11-15T22:50:34.185Z</time>
      </trkpt>
      <trkpt lat="47.496162" lon="7.930842">
        <ele>445.193683</ele>
        <time>2021-11-15T22:50:35.056Z</time>
      </trkpt>
      <trkpt lat="47.496205" lon="7.930904">
        <ele>445.108451</ele>
        <time>2021-11-15T22:50:35.681Z</time>
      </trkpt>
      <trkpt lat="47.496424" lon="7.931075">
        <ele>444.756900</ele>
        <time>2021-11-15T22:50:39.039Z</time>
      </trkpt>
      <trkpt lat="47.496998" lon="7.931330">
        <ele>443.906017</ele>
        <time>2021-11-15T22:50:46.614Z</time>
      </trkpt>
      <trkpt lat="47.497104" lon="7.931414">
        <ele>443.735306</ele>
        <time>2021-11-15T22:50:48.029Z</time>
      </trkpt>
      <trkpt lat="47.497221" lon="7.931528">
        <ele>443.536426</ele>
        <time>2021-11-15T22:50:49.681Z</time>
      </trkpt>
      <trkpt lat="47.497430" lon="7.931757">
        <ele>443.167228</ele>
        <time>2021-11-15T22:50:52.524Z</time>
      </trkpt>
      <trkpt lat="47.497676" lon="7.932013">
        <ele>442.662338</ele>
        <time>2021-11-15T22:50:55.685Z</time>
      </trkpt>
      <trkpt lat="47.497907" lon="7.932254">
        <ele>442.153878</ele>
        <time>2021-11-15T22:50:58.780Z</time>
      </trkpt>
      <trkpt lat="47.498068" lon="7.932426">
        <ele>441.796652</ele>
        <time>2021-11-15T22:51:00.917Z</time>
      </trkpt>
      <trkpt lat="47.498138" lon="7.932522">
        <ele>441.624965</ele>
        <time>2021-11-15T22:51:01.919Z</time>
      </trkpt>
      <trkpt lat="47.498196" lon="7.932613">
        <ele>441.472901</ele>
        <time>2021-11-15T22:51:02.829Z</time>
      </trkpt>
      <trkpt lat="47.498291" lon="7.932788">
        <ele>441.200029</ele>
        <time>2021-11-15T22:51:04.609Z</time>
      </trkpt>
      <trkpt lat="47.498391" lon="7.932972">
        <ele>440.912996</ele>
        <time>2021-11-15T22:51:06.352Z</time>
      </trkpt>
      <trkpt lat="47.498431" lon="7.932995">
        <ele>440.835792</ele>
        <time>2021-11-15T22:51:06.841Z</time>
      </trkpt>
      <trkpt lat="47.498481" lon="7.933011">
        <ele>440.743758</ele>
        <time>2021-11-15T22:51:07.392Z</time>
      </trkpt>
      <trkpt lat="47.498925" lon="7.932781">
        <ele>439.897445</ele>
        <time>2021-11-15T22:51:12.993Z</time>
      </trkpt>
      <trkpt lat="47.498997" lon="7.932758">
        <ele>439.779332</ele>
        <time>2021-11-15T22:51:13.790Z</time>
      </trkpt>
      <trkpt lat="47.499088" lon="7.932741">
        <ele>439.690773</ele>
        <time>2021-11-15T22:51:14.981Z</time>
      </trkpt>
      <trkpt lat="47.499354" lon="7.932769">
        <ele>439.433295</ele>
        <time>2021-11-15T22:51:18.118Z</time>
      </trkpt>
      <trkpt lat="47.499421" lon="7.932805">
        <ele>439.364474</ele>
        <time>2021-11-15T22:51:18.982Z</time>
      </trkpt>
      <trkpt lat="47.499538" lon="7.932868">
        <ele>439.244265</ele>
        <time>2021-11-15T22:51:20.385Z</time>
      </trkpt>
      <trkpt lat="47.499648" lon="7.933025">
        <ele>439.096724</ele>
        <time>2021-11-15T22:51:22.114Z</time>
      </trkpt>
      <trkpt lat="47.499822" lon="7.933272">
        <ele>438.863951</ele>
        <time>2021-11-15T22:51:24.939Z</time>
      </trkpt>
      <trkpt lat="47.499993" lon="7.933864">
        <ele>438.443974</ele>
        <time>2021-11-15T22:51:30.421Z</time>
      </trkpt>
      <trkpt lat="47.500034" lon="7.933965">
        <ele>438.367114</ele>
        <time>2021-11-15T22:51:31.310Z</time>
      </trkpt>
      <trkpt lat="47.500007" lon="7.933994">
        <ele>438.334904</ele>
        <time>2021-11-15T22:51:31.794Z</time>
      </trkpt>
      <trkpt lat="47.499971" lon="7.934127">
        <ele>438.241444</ele>
        <time>2021-11-15T22:51:33.507Z</time>
      </trkpt>
      <trkpt lat="47.499976" lon="7.934175">
        <ele>438.209764</ele>
        <time>2021-11-15T22:51:34.188Z</time>
      </trkpt>
      <trkpt lat="47.499991" lon="7.934221">
        <ele>438.176446</ele>
        <time>2021-11-15T22:51:34.583Z</time>
      </trkpt>
      <trkpt lat="47.500077" lon="7.934300">
        <ele>438.078720</ele>
        <time>2021-11-15T22:51:35.773Z</time>
      </trkpt>
      <trkpt lat="47.500111" lon="7.934299">
        <ele>438.053093</ele>
        <time>2021-11-15T22:51:36.317Z</time>
      </trkpt>
      <trkpt lat="47.500150" lon="7.934279">
        <ele>438.034518</ele>
        <time>2021-11-15T22:51:36.861Z</time>
      </trkpt>
      <trkpt lat="47.500213" lon="7.934131">
        <ele>437.981334</ele>
        <time>2021-11-15T22:51:39.194Z</time>
      </trkpt>
      <trkpt lat="47.500208" lon="7.934071">
        <ele>437.962954</ele>
        <time>2021-11-15T22:51:39.961Z</time>
      </trkpt>
      <trkpt lat="47.500275" lon="7.934029">
        <ele>437.930210</ele>
        <time>2021-11-15T22:51:40.824Z</time>
      </trkpt>
      <trkpt lat="47.500352" lon="7.933976">
        <ele>437.891995</ele>
        <time>2021-11-15T22:51:42.041Z</time>
      </trkpt>
      <trkpt lat="47.500386" lon="7.933937">
        <ele>437.872638</ele>
        <time>2021-11-15T22:51:42.684Z</time>
      </trkpt>
      <trkpt lat="47.500435" lon="7.933872">
        <ele>437.843027</ele>
        <time>2021-11-15T22:51:43.793Z</time>
      </trkpt>
      <trkpt lat="47.500843" lon="7.933102">
        <ele>437.545510</ele>
        <time>2021-11-15T22:51:52.997Z</time>
      </trkpt>
      <trkpt lat="47.500990" lon="7.932950">
        <ele>437.464813</ele>
        <time>2021-11-15T22:51:55.608Z</time>
      </trkpt>
      <trkpt lat="47.501075" lon="7.932885">
        <ele>437.421758</ele>
        <time>2021-11-15T22:51:56.616Z</time>
      </trkpt>
      <trkpt lat="47.501463" lon="7.932668">
        <ele>437.222017</ele>
        <time>2021-11-15T22:52:01.619Z</time>
      </trkpt>
      <trkpt lat="47.501794" lon="7.932466">
        <ele>436.918935</ele>
        <time>2021-11-15T22:52:06.292Z</time>
      </trkpt>
      <trkpt lat="47.501901" lon="7.932351">
        <ele>436.806998</ele>
        <time>2021-11-15T22:52:08.436Z</time>
      </trkpt>
      <trkpt lat="47.502023" lon="7.932158">
        <ele>436.655840</ele>
        <time>2021-11-15T22:52:10.455Z</time>
      </trkpt>
      <trkpt lat="47.502400" lon="7.931256">
        <ele>436.049256</ele>
        <time>2021-11-15T22:52:19.427Z</time>
      </trkpt>
      <trkpt lat="47.502613" lon="7.930856">
        <ele>435.757982</ele>
        <time>2021-11-15T22:52:23.512Z</time>
      </trkpt>
      <trkpt lat="47.502761" lon="7.930610">
        <ele>435.546540</ele>
        <time>2021-11-15T22:52:26.416Z</time>
      </trkpt>
      <trkpt lat="47.503014" lon="7.930220">
        <ele>435.192125</ele>
        <time>2021-11-15T22:52:31.138Z</time>
      </trkpt>
      <trkpt lat="47.503485" lon="7.929688">
        <ele>434.617279</ele>
        <time>2021-11-15T22:52:38.921Z</time>
      </trkpt>
      <trkpt lat="47.503528" lon="7.929650">
        <ele>434.568687</ele>
        <time>2021-11-15T22:52:39.405Z</time>
      </trkpt>
      <trkpt lat="47.503598" lon="7.929585">
        <ele>434.488511</ele>
        <time>2021-11-15T22:52:40.859Z</time>
      </trkpt>
      <trkpt lat="47.503815" lon="7.929426">
        <ele>434.253579</ele>
        <time>2021-11-15T22:52:43.546Z</time>
      </trkpt>
      <trkpt lat="47.504005" lon="7.929312">
        <ele>434.054658</ele>
        <time>2021-11-15T22:52:46.773Z</time>
      </trkpt>
      <trkpt lat="47.504650" lon="7.928941">
        <ele>432.146633</ele>
        <time>2021-11-15T22:52:54.493Z</time>
      </trkpt>
      <trkpt lat="47.504724" lon="7.928871">
        <ele>431.885489</ele>
        <time>2021-11-15T22:52:55.458Z</time>
      </trkpt>
      <trkpt lat="47.504799" lon="7.928777">
        <ele>431.593262</ele>
        <time>2021-11-15T22:52:56.332Z</time>
      </trkpt>
      <trkpt lat="47.505253" lon="7.928170">
        <ele>429.774075</ele>
        <time>2021-11-15T22:53:02.682Z</time>
      </trkpt>
      <trkpt lat="47.505814" lon="7.927657">
        <ele>427.707522</ele>
        <time>2021-11-15T22:53:08.984Z</time>
      </trkpt>
      <trkpt lat="47.505868" lon="7.927611">
        <ele>427.498384</ele>
        <time>2021-11-15T22:53:09.603Z</time>
      </trkpt>
      <trkpt lat="47.505881" lon="7.927601">
        <ele>427.449205</ele>
        <time>2021-11-15T22:53:09.739Z</time>
      </trkpt>
      <trkpt lat="47.506112" lon="7.927414">
        <ele>426.565408</ele>
        <time>2021-11-15T22:53:12.198Z</time>
      </trkpt>
      <trkpt lat="47.507856" lon="7.925990">
        <ele>420.762654</ele>
        <time>2021-11-15T22:53:32.970Z</time>
      </trkpt>
      <trkpt lat="47.508002" lon="7.925879">
        <ele>420.390814</ele>
        <time>2021-11-15T22:53:34.778Z</time>
      </trkpt>
      <trkpt lat="47.508106" lon="7.925799">
        <ele>420.125288</ele>
        <time>2021-11-15T22:53:36.175Z</time>
      </trkpt>
      <trkpt lat="47.508355" lon="7.925609">
        <ele>419.490640</ele>
        <time>2021-11-15T22:53:39.338Z</time>
      </trkpt>
      <trkpt lat="47.508667" lon="7.925295">
        <ele>418.635921</ele>
        <time>2021-11-15T22:53:43.594Z</time>
      </trkpt>
      <trkpt lat="47.509016" lon="7.924882">
        <ele>417.635307</ele>
        <time>2021-11-15T22:53:48.334Z</time>
      </trkpt>
      <trkpt lat="47.509032" lon="7.924863">
        <ele>417.589440</ele>
        <time>2021-11-15T22:53:48.536Z</time>
      </trkpt>
      <trkpt lat="47.509223" lon="7.924628">
        <ele>417.034078</ele>
        <time>2021-11-15T22:53:51.202Z</time>
      </trkpt>
      <trkpt lat="47.509572" lon="7.924311">
        <ele>416.118464</ele>
        <time>2021-11-15T22:53:55.559Z</time>
      </trkpt>
      <trkpt lat="47.509605" lon="7.924290">
        <ele>416.038141</ele>
        <time>2021-11-15T22:53:55.898Z</time>
      </trkpt>
      <trkpt lat="47.509676" lon="7.924247">
        <ele>415.866600</ele>
        <time>2021-11-15T22:53:56.687Z</time>
      </trkpt>
      <trkpt lat="47.509806" lon="7.924174">
        <ele>415.555684</ele>
        <time>2021-11-15T22:53:58.280Z</time>
      </trkpt>
      <trkpt lat="47.509886" lon="7.924134">
        <ele>415.366861</ele>
        <time>2021-11-15T22:53:59.259Z</time>
      </trkpt>
      <trkpt lat="47.509869" lon="7.923971">
        <ele>415.117737</ele>
        <time>2021-11-15T22:54:00.369Z</time>
      </trkpt>
      <trkpt lat="47.509817" lon="7.923703">
        <ele>414.696561</ele>
        <time>2021-11-15T22:54:02.528Z</time>
      </trkpt>
      <trkpt lat="47.509668" lon="7.923400">
        <ele>414.274059</ele>
        <time>2021-11-15T22:54:05.230Z</time>
      </trkpt>
      <trkpt lat="47.509595" lon="7.923295">
        <ele>414.135202</ele>
        <time>2021-11-15T22:54:06.457Z</time>
      </trkpt>
      <trkpt lat="47.509550" lon="7.923245">
        <ele>414.058442</ele>
        <time>2021-11-15T22:54:07.128Z</time>
      </trkpt>
      <trkpt lat="47.509583" lon="7.922962">
        <ele>413.793792</ele>
        <time>2021-11-15T22:54:09.198Z</time>
      </trkpt>
      <trkpt lat="47.509615" lon="7.922742">
        <ele>413.586408</ele>
        <time>2021-11-15T22:54:11.097Z</time>
      </trkpt>
      <trkpt lat="47.509688" lon="7.922616">
        <ele>413.433435</ele>
        <time>2021-11-15T22:54:12.249Z</time>
      </trkpt>
      <trkpt lat="47.510639" lon="7.921796">
        <ele>411.966848</ele>
        <time>2021-11-15T22:54:25.806Z</time>
      </trkpt>
      <trkpt lat="47.510872" lon="7.921477">
        <ele>411.667531</ele>
        <time>2021-11-15T22:54:29.905Z</time>
      </trkpt>
      <trkpt lat="47.511052" lon="7.921232">
        <ele>411.436921</ele>
        <time>2021-11-15T22:54:33.032Z</time>
      </trkpt>
      <trkpt lat="47.511067" lon="7.921207">
        <ele>411.415618</ele>
        <time>2021-11-15T22:54:33.302Z</time>
      </trkpt>
      <trkpt lat="47.511186" lon="7.920984">
        <ele>411.234570</ele>
        <time>2021-11-15T22:54:35.798Z</time>
      </trkpt>
      <trkpt lat="47.511371" lon="7.920637">
        <ele>410.952950</ele>
        <time>2021-11-15T22:54:39.489Z</time>
      </trkpt>
      <trkpt lat="47.511613" lon="7.920183">
        <ele>410.584518</ele>
        <time>2021-11-15T22:54:44.360Z</time>
      </trkpt>
      <trkpt lat="47.511632" lon="7.920105">
        <ele>410.531696</ele>
        <time>2021-11-15T22:54:45.107Z</time>
      </trkpt>
      <trkpt lat="47.511883" lon="7.920133">
        <ele>410.246951</ele>
        <time>2021-11-15T22:54:49.236Z</time>
      </trkpt>
      <trkpt lat="47.511964" lon="7.919989">
        <ele>410.023333</ele>
        <time>2021-11-15T22:54:50.692Z</time>
      </trkpt>
      <trkpt lat="47.512085" lon="7.919732">
        <ele>409.649504</ele>
        <time>2021-11-15T22:54:53.082Z</time>
      </trkpt>
      <trkpt lat="47.512255" lon="7.919538">
        <ele>409.270302</ele>
        <time>2021-11-15T22:54:55.509Z</time>
      </trkpt>
      <trkpt lat="47.512664" lon="7.919306">
        <ele>408.496506</ele>
        <time>2021-11-15T22:55:00.397Z</time>
      </trkpt>
      <trkpt lat="47.512938" lon="7.919052">
        <ele>407.925373</ele>
        <time>2021-11-15T22:55:03.962Z</time>
      </trkpt>
      <trkpt lat="47.513058" lon="7.918896">
        <ele>407.643243</ele>
        <time>2021-11-15T22:55:05.686Z</time>
      </trkpt>
      <trkpt lat="47.513160" lon="7.918764">
        <ele>407.403905</ele>
        <time>2021-11-15T22:55:07.163Z</time>
      </trkpt>
      <trkpt lat="47.513378" lon="7.918393">
        <ele>406.848073</ele>
        <time>2021-11-15T22:55:10.826Z</time>
      </trkpt>
      <trkpt lat="47.514255" lon="7.917714">
        <ele>405.252620</ele>
        <time>2021-11-15T22:55:21.900Z</time>
      </trkpt>
      <trkpt lat="47.514561" lon="7.917409">
        <ele>404.657948</ele>
        <time>2021-11-15T22:55:26.212Z</time>
      </trkpt>
      <trkpt lat="47.514635" lon="7.917349">
        <ele>404.521936</ele>
        <time>2021-11-15T22:55:27.155Z</time>
      </trkpt>
      <trkpt lat="47.515014" lon="7.917030">
        <ele>404.004045</ele>
        <time>2021-11-15T22:55:32.519Z</time>
      </trkpt>
      <trkpt lat="47.516391" lon="7.915243">
        <ele>402.270321</ele>
        <time>2021-11-15T22:55:55.217Z</time>
      </trkpt>
      <trkpt lat="47.516544" lon="7.914936">
        <ele>402.033729</ele>
        <time>2021-11-15T22:55:58.381Z</time>
      </trkpt>
      <trkpt lat="47.516569" lon="7.914864">
        <ele>401.983527</ele>
        <time>2021-11-15T22:55:59.168Z</time>
      </trkpt>
      <trkpt lat="47.516590" lon="7.914840">
        <ele>401.959170</ele>
        <time>2021-11-15T22:55:59.485Z</time>
      </trkpt>
      <trkpt lat="47.516626" lon="7.914830">
        <ele>401.925540</ele>
        <time>2021-11-15T22:55:59.968Z</time>
      </trkpt>
      <trkpt lat="47.516662" lon="7.914835">
        <ele>401.892341</ele>
        <time>2021-11-15T22:56:00.405Z</time>
      </trkpt>
      <trkpt lat="47.516748" lon="7.914873">
        <ele>401.809938</ele>
        <time>2021-11-15T22:56:01.482Z</time>
      </trkpt>
      <trkpt lat="47.516806" lon="7.914896">
        <ele>401.754808</ele>
        <time>2021-11-15T22:56:02.187Z</time>
      </trkpt>
      <trkpt lat="47.516849" lon="7.914943">
        <ele>401.705735</ele>
        <time>2021-11-15T22:56:02.881Z</time>
      </trkpt>
      <trkpt lat="47.516999" lon="7.915106">
        <ele>401.534901</ele>
        <time>2021-11-15T22:56:05.241Z</time>
      </trkpt>
      <trkpt lat="47.517140" lon="7.915259">
        <ele>401.374398</ele>
        <time>2021-11-15T22:56:07.347Z</time>
      </trkpt>
      <trkpt lat="47.517281" lon="7.915238">
        <ele>401.244285</ele>
        <time>2021-11-15T22:56:09.167Z</time>
      </trkpt>
      <trkpt lat="47.517688" lon="7.914418">
        <ele>400.571029</ele>
        <time>2021-11-15T22:56:17.537Z</time>
      </trkpt>
      <trkpt lat="47.519421" lon="7.912098">
        <ele>398.089238</ele>
        <time>2021-11-15T22:56:45.859Z</time>
      </trkpt>
      <trkpt lat="47.519720" lon="7.911522">
        <ele>397.558103</ele>
        <time>2021-11-15T22:56:51.739Z</time>
      </trkpt>
      <trkpt lat="47.519891" lon="7.911129">
        <ele>397.216314</ele>
        <time>2021-11-15T22:56:55.535Z</time>
      </trkpt>
      <trkpt lat="47.519997" lon="7.910833">
        <ele>397.027383</ele>
        <time>2021-11-15T22:56:58.179Z</time>
      </trkpt>
      <trkpt lat="47.520493" lon="7.908683">
        <ele>396.314878</ele>
        <time>2021-11-15T22:57:18.435Z</time>
      </trkpt>
      <trkpt lat="47.520738" lon="7.907839">
        <ele>396.156743</ele>
        <time>2021-11-15T22:57:28.941Z</time>
      </trkpt>
      <trkpt lat="47.520733" lon="7.907655">
        <ele>396.135174</ele>
        <time>2021-11-15T22:57:30.550Z</time>
      </trkpt>
      <trkpt lat="47.520551" lon="7.907422">
        <ele>396.093447</ele>
        <time>2021-11-15T22:57:34.601Z</time>
      </trkpt>
      <trkpt lat="47.520506" lon="7.907236">
        <ele>396.070306</ele>
        <time>2021-11-15T22:57:36.281Z</time>
      </trkpt>
      <trkpt lat="47.520515" lon="7.907103">
        <ele>396.054650</ele>
        <time>2021-11-15T22:57:38.043Z</time>
      </trkpt>
      <trkpt lat="47.520528" lon="7.906930">
        <ele>396.034262</ele>
        <time>2021-11-15T22:57:39.734Z</time>
      </trkpt>
      <trkpt lat="47.520566" lon="7.906668">
        <ele>396.002874</ele>
        <time>2021-11-15T22:57:42.011Z</time>
      </trkpt>
      <trkpt lat="47.520678" lon="7.906050">
        <ele>395.927929</ele>
        <time>2021-11-15T22:57:47.940Z</time>
      </trkpt>
      <trkpt lat="47.520989" lon="7.905130">
        <ele>394.487408</ele>
        <time>2021-11-15T22:57:56.361Z</time>
      </trkpt>
      <trkpt lat="47.521297" lon="7.904312">
        <ele>393.116833</ele>
        <time>2021-11-15T22:58:03.115Z</time>
      </trkpt>
      <trkpt lat="47.521691" lon="7.903543">
        <ele>391.412365</ele>
        <time>2021-11-15T22:58:09.688Z</time>
      </trkpt>
      <trkpt lat="47.521792" lon="7.903347">
        <ele>390.722843</ele>
        <time>2021-11-15T22:58:11.256Z</time>
      </trkpt>
      <trkpt lat="47.522013" lon="7.902637">
        <ele>388.536383</ele>
        <time>2021-11-15T22:58:16.448Z</time>
      </trkpt>
      <trkpt lat="47.522038" lon="7.902562">
        <ele>388.302468</ele>
        <time>2021-11-15T22:58:16.967Z</time>
      </trkpt>
      <trkpt lat="47.522065" lon="7.902526">
        <ele>388.152001</ele>
        <time>2021-11-15T22:58:17.296Z</time>
      </trkpt>
      <trkpt lat="47.522132" lon="7.902476">
        <ele>387.841282</ele>
        <time>2021-11-15T22:58:18.032Z</time>
      </trkpt>
      <trkpt lat="47.522260" lon="7.902356">
        <ele>387.213876</ele>
        <time>2021-11-15T22:58:19.533Z</time>
      </trkpt>
      <trkpt lat="47.522554" lon="7.901999">
        <ele>385.639284</ele>
        <time>2021-11-15T22:58:23.177Z</time>
      </trkpt>
      <trkpt lat="47.522688" lon="7.901843">
        <ele>384.933371</ele>
        <time>2021-11-15T22:58:24.756Z</time>
      </trkpt>
      <trkpt lat="47.523036" lon="7.901580">
        <ele>383.763080</ele>
        <time>2021-11-15T22:58:28.535Z</time>
      </trkpt>
      <trkpt lat="47.523340" lon="7.901197">
        <ele>382.697352</ele>
        <time>2021-11-15T22:58:32.495Z</time>
      </trkpt>
      <trkpt lat="47.523433" lon="7.901043">
        <ele>382.324840</ele>
        <time>2021-11-15T22:58:33.885Z</time>
      </trkpt>
      <trkpt lat="47.523567" lon="7.900820">
        <ele>381.786612</ele>
        <time>2021-11-15T22:58:35.985Z</time>
      </trkpt>
      <trkpt lat="47.523620" lon="7.900698">
        <ele>381.525048</ele>
        <time>2021-11-15T22:58:37.086Z</time>
      </trkpt>
      <trkpt lat="47.523648" lon="7.900606">
        <ele>381.343095</ele>
        <time>2021-11-15T22:58:37.771Z</time>
      </trkpt>
      <trkpt lat="47.523739" lon="7.900557">
        <ele>381.084553</ele>
        <time>2021-11-15T22:58:38.827Z</time>
      </trkpt>
      <trkpt lat="47.523878" lon="7.900445">
        <ele>380.662026</ele>
        <time>2021-11-15T22:58:40.793Z</time>
      </trkpt>
      <trkpt lat="47.523957" lon="7.900371">
        <ele>380.412432</ele>
        <time>2021-11-15T22:58:41.825Z</time>
      </trkpt>
      <trkpt lat="47.523989" lon="7.900340">
        <ele>380.310330</ele>
        <time>2021-11-15T22:58:42.290Z</time>
      </trkpt>
      <trkpt lat="47.523945" lon="7.900256">
        <ele>380.118649</ele>
        <time>2021-11-15T22:58:43.368Z</time>
      </trkpt>
      <trkpt lat="47.523890" lon="7.900131">
        <ele>379.849643</ele>
        <time>2021-11-15T22:58:44.783Z</time>
      </trkpt>
      <trkpt lat="47.523861" lon="7.900049">
        <ele>379.767762</ele>
        <time>2021-11-15T22:58:45.679Z</time>
      </trkpt>
      <trkpt lat="47.523896" lon="7.900001">
        <ele>379.760219</ele>
        <time>2021-11-15T22:58:46.236Z</time>
      </trkpt>
      <trkpt lat="47.524309" lon="7.899115">
        <ele>379.645264</ele>
        <time>2021-11-15T22:58:56.060Z</time>
      </trkpt>
      <trkpt lat="47.524360" lon="7.898951">
        <ele>379.625985</ele>
        <time>2021-11-15T22:58:57.764Z</time>
      </trkpt>
      <trkpt lat="47.524617" lon="7.898216">
        <ele>379.537607</ele>
        <time>2021-11-15T22:59:06.973Z</time>
      </trkpt>
      <trkpt lat="47.524834" lon="7.897636">
        <ele>379.376299</ele>
        <time>2021-11-15T22:59:14.162Z</time>
      </trkpt>
      <trkpt lat="47.525518" lon="7.896336">
        <ele>378.473122</ele>
        <time>2021-11-15T22:59:30.248Z</time>
      </trkpt>
      <trkpt lat="47.525590" lon="7.896117">
        <ele>378.339635</ele>
        <time>2021-11-15T22:59:31.886Z</time>
      </trkpt>
      <trkpt lat="47.525622" lon="7.895944">
        <ele>378.241333</ele>
        <time>2021-11-15T22:59:34.013Z</time>
      </trkpt>
      <trkpt lat="47.525631" lon="7.895583">
        <ele>378.043361</ele>
        <time>2021-11-15T22:59:36.401Z</time>
      </trkpt>
      <trkpt lat="47.525631" lon="7.895442">
        <ele>377.819029</ele>
        <time>2021-11-15T22:59:38.138Z</time>
      </trkpt>
      <trkpt lat="47.525603" lon="7.895265">
        <ele>377.486394</ele>
        <time>2021-11-15T22:59:39.485Z</time>
      </trkpt>
      <trkpt lat="47.525725" lon="7.895110">
        <ele>377.050823</ele>
        <time>2021-11-15T22:59:41.007Z</time>
      </trkpt>
      <trkpt lat="47.526257" lon="7.894278">
        <ele>374.954241</ele>
        <time>2021-11-15T22:59:49.203Z</time>
      </trkpt>
      <trkpt lat="47.526335" lon="7.893960">
        <ele>374.335187</ele>
        <time>2021-11-15T22:59:51.535Z</time>
      </trkpt>
      <trkpt lat="47.526401" lon="7.893964">
        <ele>374.156197</ele>
        <time>2021-11-15T22:59:52.172Z</time>
      </trkpt>
      <trkpt lat="47.526451" lon="7.893983">
        <ele>374.016322</ele>
        <time>2021-11-15T22:59:52.904Z</time>
      </trkpt>
      <trkpt lat="47.526504" lon="7.894030">
        <ele>373.848928</ele>
        <time>2021-11-15T22:59:53.573Z</time>
      </trkpt>
      <trkpt lat="47.526709" lon="7.893617">
        <ele>372.977181</ele>
        <time>2021-11-15T22:59:57.000Z</time>
      </trkpt>
      <trkpt lat="47.527011" lon="7.893061">
        <ele>372.025261</ele>
        <time>2021-11-15T23:00:02.004Z</time>
      </trkpt>
      <trkpt lat="47.527498" lon="7.892650">
        <ele>370.917859</ele>
        <time>2021-11-15T23:00:08.078Z</time>
      </trkpt>
      <trkpt lat="47.528003" lon="7.892732">
        <ele>369.914176</ele>
        <time>2021-11-15T23:00:14.328Z</time>
      </trkpt>
      <trkpt lat="47.528331" lon="7.892682">
        <ele>369.420038</ele>
        <time>2021-11-15T23:00:18.595Z</time>
      </trkpt>
      <trkpt lat="47.529235" lon="7.892158">
        <ele>368.392224</ele>
        <time>2021-11-15T23:00:30.294Z</time>
      </trkpt>
      <trkpt lat="47.529695" lon="7.891638">
        <ele>367.779534</ele>
        <time>2021-11-15T23:00:37.345Z</time>
      </trkpt>
      <trkpt lat="47.529714" lon="7.891609">
        <ele>367.750647</ele>
        <time>2021-11-15T23:00:37.608Z</time>
      </trkpt>
      <trkpt lat="47.529972" lon="7.891210">
        <ele>367.531068</ele>
        <time>2021-11-15T23:00:42.034Z</time>
      </trkpt>
      <trkpt lat="47.530322" lon="7.890690">
        <ele>367.275601</ele>
        <time>2021-11-15T23:00:48.179Z</time>
      </trkpt>
      <trkpt lat="47.530606" lon="7.890373">
        <ele>367.092346</ele>
        <time>2021-11-15T23:00:52.887Z</time>
      </trkpt>
      <trkpt lat="47.530820" lon="7.890216">
        <ele>366.969282</ele>
        <time>2021-11-15T23:00:56.160Z</time>
      </trkpt>
      <trkpt lat="47.531076" lon="7.890029">
        <ele>366.822191</ele>
        <time>2021-11-15T23:01:00.637Z</time>
      </trkpt>
      <trkpt lat="47.531265" lon="7.889937">
        <ele>366.893776</ele>
        <time>2021-11-15T23:01:03.704Z</time>
      </trkpt>
      <trkpt lat="47.531560" lon="7.889776">
        <ele>367.286789</ele>
        <time>2021-11-15T23:01:09.356Z</time>
      </trkpt>
      <trkpt lat="47.531843" lon="7.889349">
        <ele>367.791806</ele>
        <time>2021-11-15T23:01:16.941Z</time>
      </trkpt>
      <trkpt lat="47.532011" lon="7.888896">
        <ele>368.228031</ele>
        <time>2021-11-15T23:01:24.137Z</time>
      </trkpt>
      <trkpt lat="47.532288" lon="7.887728">
        <ele>369.366387</ele>
        <time>2021-11-15T23:01:43.020Z</time>
      </trkpt>
      <trkpt lat="47.532505" lon="7.887120">
        <ele>370.160523</ele>
        <time>2021-11-15T23:01:53.307Z</time>
      </trkpt>
      <trkpt lat="47.532650" lon="7.885569">
        <ele>371.968596</ele>
        <time>2021-11-15T23:02:16.069Z</time>
      </trkpt>
      <trkpt lat="47.532658" lon="7.884989">
        <ele>372.319679</ele>
        <time>2021-11-15T23:02:24.256Z</time>
      </trkpt>
      <trkpt lat="47.532670" lon="7.884773">
        <ele>372.423110</ele>
        <time>2021-11-15T23:02:27.559Z</time>
      </trkpt>
      <trkpt lat="47.532699" lon="7.884224">
        <ele>372.685914</ele>
        <time>2021-11-15T23:02:34.674Z</time>
      </trkpt>
      <trkpt lat="47.532713" lon="7.884122">
        <ele>372.735587</ele>
        <time>2021-11-15T23:02:35.838Z</time>
      </trkpt>
      <trkpt lat="47.532859" lon="7.883508">
        <ele>373.046251</ele>
        <time>2021-11-15T23:02:43.449Z</time>
      </trkpt>
      <trkpt lat="47.533014" lon="7.882949">
        <ele>373.334646</ele>
        <time>2021-11-15T23:02:49.669Z</time>
      </trkpt>
      <trkpt lat="47.533374" lon="7.881639">
        <ele>372.001391</ele>
        <time>2021-11-15T23:03:01.381Z</time>
      </trkpt>
      <trkpt lat="47.533606" lon="7.880961">
        <ele>371.231486</ele>
        <time>2021-11-15T23:03:07.176Z</time>
      </trkpt>
      <trkpt lat="47.533892" lon="7.880353">
        <ele>370.130639</ele>
        <time>2021-11-15T23:03:12.493Z</time>
      </trkpt>
      <trkpt lat="47.534616" lon="7.879490">
        <ele>366.127204</ele>
        <time>2021-11-15T23:03:21.663Z</time>
      </trkpt>
      <trkpt lat="47.534908" lon="7.878975">
        <ele>364.171238</ele>
        <time>2021-11-15T23:03:25.865Z</time>
      </trkpt>
      <trkpt lat="47.534946" lon="7.878790">
        <ele>363.608831</ele>
        <time>2021-11-15T23:03:27.141Z</time>
      </trkpt>
      <trkpt lat="47.534825" lon="7.878414">
        <ele>362.280136</ele>
        <time>2021-11-15T23:03:29.667Z</time>
      </trkpt>
      <trkpt lat="47.534778" lon="7.878270">
        <ele>361.710536</ele>
        <time>2021-11-15T23:03:30.819Z</time>
      </trkpt>
      <trkpt lat="47.534855" lon="7.878090">
        <ele>360.951671</ele>
        <time>2021-11-15T23:03:32.069Z</time>
      </trkpt>
      <trkpt lat="47.535088" lon="7.877742">
        <ele>359.206281</ele>
        <time>2021-11-15T23:03:35.165Z</time>
      </trkpt>
      <trkpt lat="47.535322" lon="7.877590">
        <ele>357.858501</ele>
        <time>2021-11-15T23:03:37.662Z</time>
      </trkpt>
      <trkpt lat="47.535551" lon="7.877487">
        <ele>356.596109</ele>
        <time>2021-11-15T23:03:39.816Z</time>
      </trkpt>
      <trkpt lat="47.535635" lon="7.877484">
        <ele>356.152897</ele>
        <time>2021-11-15T23:03:40.753Z</time>
      </trkpt>
      <trkpt lat="47.535770" lon="7.877432">
        <ele>355.417116</ele>
        <time>2021-11-15T23:03:42.005Z</time>
      </trkpt>
      <trkpt lat="47.535851" lon="7.877319">
        <ele>354.830187</ele>
        <time>2021-11-15T23:03:43.035Z</time>
      </trkpt>
      <trkpt lat="47.536444" lon="7.876177">
        <ele>351.435002</ele>
        <time>2021-11-15T23:03:52.414Z</time>
      </trkpt>
      <trkpt lat="47.536632" lon="7.875912">
        <ele>350.702517</ele>
        <time>2021-11-15T23:03:55.063Z</time>
      </trkpt>
      <trkpt lat="47.536757" lon="7.875759">
        <ele>350.244843</ele>
        <time>2021-11-15T23:03:57.010Z</time>
      </trkpt>
      <trkpt lat="47.536921" lon="7.875537">
        <ele>349.617786</ele>
        <time>2021-11-15T23:03:59.577Z</time>
      </trkpt>
      <trkpt lat="47.537182" lon="7.875293">
        <ele>348.746680</ele>
        <time>2021-11-15T23:04:03.287Z</time>
      </trkpt>
      <trkpt lat="47.537261" lon="7.875237">
        <ele>348.499489</ele>
        <time>2021-11-15T23:04:04.248Z</time>
      </trkpt>
      <trkpt lat="47.537716" lon="7.874966">
        <ele>347.901224</ele>
        <time>2021-11-15T23:04:10.137Z</time>
      </trkpt>
      <trkpt lat="47.538278" lon="7.874319">
        <ele>347.165062</ele>
        <time>2021-11-15T23:04:18.612Z</time>
      </trkpt>
      <trkpt lat="47.539222" lon="7.873416">
        <ele>345.763671</ele>
        <time>2021-11-15T23:04:33.058Z</time>
      </trkpt>
      <trkpt lat="47.539678" lon="7.872430">
        <ele>344.524067</ele>
        <time>2021-11-15T23:04:42.139Z</time>
      </trkpt>
      <trkpt lat="47.539841" lon="7.872151">
        <ele>344.141383</ele>
        <time>2021-11-15T23:04:44.915Z</time>
      </trkpt>
      <trkpt lat="47.539930" lon="7.872041">
        <ele>343.963302</ele>
        <time>2021-11-15T23:04:46.110Z</time>
      </trkpt>
      <trkpt lat="47.540034" lon="7.871970">
        <ele>343.787369</ele>
        <time>2021-11-15T23:04:47.375Z</time>
      </trkpt>
      <trkpt lat="47.540216" lon="7.871851">
        <ele>343.732145</ele>
        <time>2021-11-15T23:04:49.556Z</time>
      </trkpt>
      <trkpt lat="47.540265" lon="7.871808">
        <ele>343.732145</ele>
        <time>2021-11-15T23:04:50.160Z</time>
      </trkpt>
      <trkpt lat="47.540463" lon="7.871584">
        <ele>343.732145</ele>
        <time>2021-11-15T23:04:52.950Z</time>
      </trkpt>
      <trkpt lat="47.540693" lon="7.871390">
        <ele>343.732145</ele>
        <time>2021-11-15T23:04:55.820Z</time>
      </trkpt>
      <trkpt lat="47.540894" lon="7.871220">
        <ele>343.732145</ele>
        <time>2021-11-15T23:04:58.327Z</time>
      </trkpt>
      <trkpt lat="47.540933" lon="7.871187">
        <ele>343.732145</ele>
        <time>2021-11-15T23:04:58.800Z</time>
      </trkpt>
      <trkpt lat="47.541296" lon="7.870886">
        <ele>343.732145</ele>
        <time>2021-11-15T23:05:03.378Z</time>
      </trkpt>
    </trkseg>
  </trk>
</gpx>